[[{"header":{"parameterUnit":"m.s-1","parameterCategory":1,"la1":31.0,"la2":29.5877,"lo1":-88.7671,"lo2":-86.6584,"dx":0.0162,"dy":0.0185,"nx":115,"ny":88,"refTime":"2023-01-15T06:00:00:Z","depth":0,"parameterNumber":2,"parameterNumberName":"U-component_of_WINDS"},"data":[0.0,0.0,0.0,0.0,0.0,0.0,0.0,0.0,0.0,0.0,0.0,0.0,0.0,0.0,0.0,0.0,0.0,0.0,0.0,0.0,0.0,0.0,0.0,0.0,0.0,0.0,0.0,0.0,0.0,0.0,0.0,0.0,0.0,0.0,0.0,0.0,0.0,0.0,0.0,0.0,0.0,0.0,0.0,0.0,0.0,0.0,0.0,0.0,0.0,0.0,0.0,0.0,0.0,0.0,0.0,0.0,0.0,0.0,0.0,0.0,0.0,0.0,0.0,0.0,0.0,0.0,0.0,0.0,0.0,0.0,0.0,0.0,0.0,0.0,0.0,0.0,0.0,0.0,0.0,0.0,0.0,0.0,0.0,0.0,0.0,0.0,0.0,0.0,0.0,0.0,0.0,0.0,0.0,0.0,0.0,0.0,0.0,0.0,0.0,0.0,0.0,0.0,0.0,0.0,0.0,0.0,0.0,0.0,0.0,0.0,0.0,0.0,0.0,0.0,0.0,0.0,0.0,0.0,0.0,0.0,0.0,0.0,0.0,0.0,0.0,0.0,0.0,0.0,0.0,0.0,0.0,0.0,0.0,0.0,0.0,0.0,0.0,0.0,0.0,0.0,0.0,0.0,0.0,0.0,0.0,0.0,0.0,0.0,0.0,0.0,0.0,0.0,0.0,0.0,0.0,0.0,0.0,0.0,0.0,0.0,0.0,0.0,0.0,0.0,0.0,0.0,0.0,0.0,0.0,0.0,0.0,0.0,0.0,0.0,0.0,0.0,0.0,0.0,0.0,0.0,0.0,0.0,0.0,0.0,0.0,0.0,0.0,0.0,0.0,0.0,0.0,0.0,0.0,0.0,0.0,0.0,0.0,0.0,0.0,0.0,0.0,0.0,0.0,0.0,0.0,0.0,0.0,0.0,0.0,0.0,0.0,0.0,0.0,0.0,0.0,0.0,0.0,0.0,0.0,0.0,0.0,0.0,0.0,0.0,0.0,0.0,0.0,0.0,0.0,0.0,0.0,0.0,0.0,0.0,0.0,0.0,0.0,0.0,0.0,0.0,0.0,0.0,0.0,0.0,0.0,0.0,0.0,0.0,0.0,0.0,0.0,0.0,0.0,0.0,0.0,0.0,0.0,0.0,0.0,0.0,0.0,0.0,0.0,0.0,0.0,0.0,0.0,0.0,0.0,0.0,0.0,0.0,0.0,0.0,0.0,0.0,0.0,0.0,0.0,0.0,0.0,0.0,0.0,0.0,0.0,0.0,0.0,0.0,0.0,0.0,0.0,0.0,0.0,0.0,0.0,0.0,0.0,0.0,0.0,0.0,0.0,0.0,0.0,0.0,0.0,0.0,0.0,0.0,0.0,0.0,0.0,0.0,0.0,0.0,0.0,0.0,0.0,0.0,0.0,0.0,0.0,0.0,0.0,0.0,0.0,0.0,0.0,0.0,0.0,0.0,0.0,0.0,0.0,0.0,0.0,0.0,0.0,0.0,0.0,0.0,0.0,0.0,0.0,0.0,0.0,0.0,0.0,0.0,0.0,0.0,0.0,0.0,0.0,0.0,0.0,0.0,0.0,0.0,0.0,0.0,0.0,0.0,0.0,0.0,0.0,0.0,0.0,0.0,0.0,0.0,0.0,0.0,0.0,0.0,0.0,0.0,0.0,0.0,0.0,0.0,0.0,0.0,0.0,0.0,0.0,0.0,0.0,0.0,0.0,0.0,0.0,0.0,0.0,0.0,0.0,0.0,0.0,0.0,0.0,0.0,0.0,0.0,0.0,0.0,0.0,0.0,0.0,0.0,0.0,0.0,0.0,0.0,0.0,0.0,0.0,0.0,0.0,0.0,0.0,0.0,0.0,0.0,0.0,0.0,0.0,0.0,0.0,0.0,0.0,0.0,0.0,0.0,0.0,0.0,0.0,0.0,0.0,0.0,0.0,0.0,0.0,0.0,0.0,0.0,0.0,0.0,0.0,0.0,0.0,0.0,0.0,0.0,0.0,0.0,0.0,0.0,0.0,0.0,0.0,0.0,0.0,0.0,0.0,0.0,0.0,0.0,0.0,0.0,0.0,0.0,0.0,0.0,0.0,0.0,0.0,0.0,0.0,0.0,0.0,0.0,0.0,0.0,0.0,0.0,0.0,0.0,0.0,0.0,0.0,0.0,0.0,0.0,0.0,0.0,0.0,0.0,0.0,0.0,0.0,0.0,0.0,0.0,0.0,0.0,0.0,0.0,0.0,0.0,0.0,0.0,0.0,0.0,0.0,0.0,0.0,0.0,0.0,0.0,0.0,0.0,0.0,0.0,0.0,0.0,0.0,0.0,0.0,0.0,0.0,0.0,0.0,0.0,0.0,0.0,0.0,0.0,0.0,0.0,0.0,0.0,0.0,0.0,0.0,0.0,0.0,0.0,0.0,0.0,0.0,0.0,0.0,0.0,0.0,0.0,0.0,0.0,0.0,0.0,0.0,0.0,0.0,0.0,0.0,0.0,0.0,0.0,0.0,0.0,0.0,0.0,0.0,0.0,0.0,0.0,0.0,0.0,0.0,0.0,0.0,0.0,0.0,0.0,0.0,0.0,0.0,0.0,0.0,0.0,0.0,0.0,0.0,0.0,0.0,0.0,0.0,0.0,0.0,0.0,0.0,0.0,0.0,0.0,0.0,0.0,0.0,0.0,0.0,0.0,0.0,0.0,0.0,0.0,0.0,0.0,0.0,0.0,0.0,0.0,0.0,0.0,0.0,0.0,0.0,0.0,0.0,0.0,0.0,0.0,0.0,0.0,0.0,0.0,0.0,0.0,0.0,0.0,0.0,0.0,0.0,0.0,0.0,0.0,0.0,0.0,0.0,0.0,0.0,0.0,0.0,0.0,0.0,0.0,0.0,0.0,0.0,0.0,0.0,0.0,0.0,0.0,0.0,0.0,0.0,0.0,0.0,0.0,0.0,0.0,0.0,0.0,0.0,0.0,0.0,0.0,0.0,0.0,0.0,0.0,0.0,0.0,0.0,0.0,0.0,0.0,0.0,0.0,0.0,0.0,0.0,0.0,0.0,0.0,0.0,0.0,0.0,0.0,0.0,0.0,0.0,0.0,0.0,0.0,0.0,0.0,0.0,0.0,0.0,0.0,0.0,0.0,0.0,0.0,0.0,0.0,0.0,0.0,0.0,0.0,0.0,0.0,0.0,0.0,0.0,0.0,0.0,0.0,0.0,0.0,0.0,0.0,0.0,0.0,0.0,0.0,0.0,0.0,0.0,0.0,0.0,0.0,0.0,0.0,0.0,0.0,0.0,0.0,0.0,0.0,0.0,0.0,0.0,0.0,0.0,0.0,0.0,0.0,0.0,0.0,0.0,0.0,0.0,0.0,0.0,0.0,0.0,0.0,0.0,0.0,0.0,0.0,0.0,0.0,0.0,0.0,0.0,0.0,0.0,0.0,0.0,0.0,0.0,0.0,0.0,0.0,0.0,0.0,0.0,0.0,0.0,0.0,0.0,0.0,0.0,0.0,0.0,0.0,0.0,0.0,0.0,0.0,0.0,0.0,0.0,0.0,0.0,0.0,0.0,0.0,0.0,0.0,0.0,0.0,0.0,0.0,0.0,0.0,0.0,0.0,0.0,0.0,0.0,0.0,0.0,0.0,0.0,0.0,0.0,0.0,0.0,0.0,0.0,0.0,0.0,0.0,0.0,0.0,0.0,0.0,0.0,0.0,0.0,0.0,0.0,0.0,0.0,0.0,0.0,0.0,0.0,0.0,0.0,0.0,0.0,0.0,0.0,0.0,0.0,0.0,0.0,0.0,0.0,0.0,0.0,0.0,0.0,0.0,0.0,0.0,0.0,0.0,0.0,0.0,0.0,0.0,0.0,0.0,0.0,0.0,0.0,0.0,0.0,0.0,0.0,0.0,0.0,0.0,0.0,0.0,0.0,0.0,0.0,0.0,0.0,0.0,0.0,0.0,0.0,0.0,0.0,0.0,0.0,0.0,0.0,0.0,0.0,0.0,0.0,0.0,0.0,0.0,0.0,0.0,0.0,0.0,0.0,0.0,0.0,0.0,0.0,0.0,0.0,0.0,0.0,0.0,0.0,0.0,0.0,0.0,0.0,0.0,0.0,0.0,0.0,0.0,0.0,0.0,0.0,0.0,0.0,0.0,0.0,0.0,0.0,0.0,0.0,0.0,0.0,0.0,0.0,0.0,0.0,0.0,0.0,0.0,0.0,0.0,0.0,0.0,0.0,0.0,0.0,0.0,-3.9198,0.0,0.0,0.0,-3.6538,0.0,0.0,0.0,0.0,0.0,0.0,0.0,0.0,0.0,0.0,0.0,0.0,0.0,0.0,0.0,0.0,0.0,0.0,0.0,0.0,0.0,0.0,0.0,0.0,0.0,0.0,0.0,0.0,0.0,0.0,0.0,0.0,0.0,0.0,0.0,0.0,0.0,0.0,0.0,0.0,0.0,0.0,0.0,0.0,0.0,0.0,0.0,0.0,0.0,0.0,0.0,0.0,0.0,0.0,0.0,0.0,0.0,0.0,0.0,0.0,0.0,0.0,0.0,0.0,0.0,0.0,0.0,0.0,0.0,0.0,0.0,0.0,0.0,0.0,0.0,0.0,0.0,0.0,0.0,0.0,0.0,0.0,0.0,0.0,0.0,0.0,0.0,0.0,0.0,0.0,0.0,0.0,0.0,0.0,0.0,0.0,0.0,0.0,0.0,0.0,0.0,0.0,0.0,0.0,0.0,0.0,0.0,0.0,0.0,0.0,-3.9767,-3.9284,-3.8084,-3.7192,-3.6692,0.0,0.0,0.0,0.0,0.0,0.0,0.0,0.0,0.0,0.0,0.0,0.0,0.0,0.0,0.0,0.0,0.0,0.0,0.0,0.0,0.0,0.0,0.0,0.0,0.0,0.0,0.0,0.0,0.0,0.0,0.0,0.0,0.0,0.0,0.0,0.0,0.0,0.0,0.0,0.0,0.0,0.0,0.0,0.0,0.0,0.0,0.0,0.0,0.0,0.0,0.0,0.0,0.0,0.0,0.0,0.0,0.0,0.0,0.0,0.0,0.0,0.0,0.0,0.0,0.0,0.0,0.0,0.0,0.0,0.0,0.0,0.0,0.0,0.0,0.0,0.0,0.0,0.0,0.0,0.0,0.0,0.0,0.0,0.0,0.0,0.0,0.0,0.0,0.0,0.0,0.0,0.0,0.0,0.0,0.0,0.0,0.0,0.0,0.0,0.0,0.0,0.0,0.0,0.0,0.0,0.0,0.0,0.0,0.0,0.0,0.0,0.0,-3.8738,-3.7777,-3.6731,0.0,0.0,0.0,0.0,0.0,0.0,0.0,0.0,0.0,0.0,0.0,0.0,0.0,0.0,0.0,0.0,0.0,0.0,0.0,0.0,0.0,0.0,0.0,0.0,0.0,0.0,0.0,0.0,0.0,0.0,0.0,0.0,0.0,0.0,0.0,0.0,0.0,0.0,0.0,0.0,0.0,0.0,0.0,0.0,0.0,0.0,0.0,0.0,0.0,0.0,0.0,0.0,0.0,0.0,0.0,0.0,0.0,0.0,0.0,0.0,0.0,0.0,0.0,0.0,0.0,0.0,0.0,0.0,0.0,0.0,0.0,0.0,0.0,0.0,0.0,0.0,0.0,0.0,0.0,0.0,0.0,0.0,0.0,0.0,0.0,0.0,0.0,0.0,0.0,0.0,0.0,0.0,0.0,0.0,0.0,0.0,0.0,0.0,0.0,0.0,0.0,0.0,0.0,0.0,0.0,0.0,0.0,0.0,0.0,0.0,-4.0514,-4.0362,-3.9592,0.0,-3.6808,0.0,0.0,0.0,0.0,0.0,0.0,0.0,0.0,0.0,0.0,0.0,0.0,0.0,0.0,0.0,0.0,0.0,0.0,0.0,0.0,0.0,0.0,0.0,0.0,0.0,0.0,0.0,0.0,0.0,0.0,0.0,0.0,0.0,0.0,0.0,0.0,0.0,0.0,0.0,0.0,0.0,0.0,0.0,0.0,0.0,0.0,0.0,0.0,0.0,0.0,0.0,0.0,0.0,0.0,0.0,0.0,0.0,0.0,0.0,0.0,0.0,0.0,0.0,0.0,0.0,0.0,0.0,0.0,0.0,0.0,0.0,0.0,0.0,0.0,0.0,0.0,0.0,0.0,0.0,0.0,0.0,0.0,0.0,0.0,0.0,0.0,0.0,0.0,0.0,0.0,0.0,0.0,0.0,0.0,0.0,0.0,0.0,0.0,0.0,0.0,0.0,0.0,0.0,0.0,0.0,0.0,0.0,0.0,0.0,0.0,-4.1323,-4.1277,-4.0008,-3.8738,0.0,0.0,0.0,0.0,0.0,0.0,0.0,0.0,0.0,0.0,0.0,0.0,0.0,0.0,0.0,0.0,0.0,0.0,0.0,0.0,0.0,0.0,0.0,0.0,0.0,0.0,0.0,0.0,0.0,0.0,0.0,0.0,0.0,0.0,0.0,0.0,0.0,0.0,0.0,0.0,0.0,0.0,0.0,0.0,0.0,0.0,0.0,0.0,0.0,0.0,0.0,0.0,0.0,0.0,0.0,0.0,0.0,0.0,0.0,0.0,0.0,0.0,0.0,0.0,0.0,0.0,0.0,0.0,0.0,0.0,0.0,0.0,0.0,0.0,0.0,0.0,0.0,0.0,0.0,0.0,0.0,0.0,0.0,0.0,0.0,0.0,0.0,0.0,0.0,0.0,0.0,0.0,0.0,0.0,0.0,0.0,0.0,0.0,0.0,0.0,0.0,0.0,0.0,0.0,0.0,0.0,0.0,0.0,0.0,0.0,-4.1822,-4.2202,-4.2085,-4.0739,-3.9469,-3.8392,0.0,0.0,0.0,0.0,0.0,0.0,0.0,0.0,0.0,0.0,0.0,0.0,0.0,0.0,0.0,0.0,0.0,0.0,0.0,0.0,0.0,0.0,0.0,0.0,0.0,0.0,0.0,0.0,0.0,0.0,0.0,0.0,0.0,0.0,0.0,0.0,0.0,0.0,0.0,0.0,0.0,0.0,0.0,0.0,0.0,0.0,0.0,0.0,0.0,0.0,0.0,0.0,0.0,0.0,0.0,0.0,0.0,0.0,0.0,0.0,0.0,0.0,0.0,0.0,0.0,0.0,0.0,0.0,0.0,0.0,0.0,0.0,0.0,0.0,0.0,0.0,0.0,0.0,0.0,0.0,0.0,0.0,0.0,0.0,0.0,0.0,0.0,0.0,0.0,0.0,0.0,0.0,0.0,0.0,0.0,0.0,0.0,0.0,0.0,0.0,0.0,0.0,0.0,0.0,0.0,0.0,0.0,0.0,-4.1861,-4.2671,-4.3135,-4.3055,-4.2162,-4.0931,0.0,0.0,0.0,0.0,0.0,0.0,0.0,0.0,0.0,0.0,0.0,0.0,0.0,0.0,0.0,0.0,0.0,0.0,0.0,0.0,0.0,0.0,0.0,0.0,0.0,0.0,0.0,0.0,0.0,0.0,0.0,0.0,0.0,0.0,0.0,0.0,0.0,0.0,0.0,0.0,0.0,0.0,0.0,0.0,0.0,0.0,0.0,0.0,0.0,0.0,0.0,0.0,0.0,0.0,0.0,0.0,0.0,0.0,0.0,0.0,0.0,0.0,0.0,0.0,0.0,0.0,0.0,0.0,0.0,0.0,0.0,0.0,0.0,0.0,0.0,0.0,0.0,0.0,0.0,0.0,0.0,0.0,0.0,0.0,0.0,0.0,0.0,0.0,0.0,0.0,0.0,0.0,0.0,0.0,0.0,0.0,0.0,0.0,0.0,0.0,0.0,0.0,0.0,0.0,0.0,0.0,0.0,0.0,0.0,-4.2756,-4.3505,-4.4157,-4.4624,-4.3355,-4.1816,0.0,0.0,0.0,0.0,0.0,0.0,0.0,0.0,0.0,0.0,0.0,0.0,0.0,0.0,0.0,0.0,0.0,0.0,0.0,0.0,0.0,0.0,0.0,0.0,0.0,0.0,0.0,0.0,0.0,0.0,0.0,0.0,0.0,0.0,0.0,0.0,0.0,0.0,0.0,0.0,0.0,0.0,0.0,0.0,0.0,0.0,0.0,0.0,0.0,0.0,0.0,0.0,0.0,0.0,0.0,0.0,0.0,0.0,0.0,0.0,0.0,0.0,0.0,0.0,0.0,0.0,0.0,0.0,0.0,0.0,0.0,0.0,0.0,0.0,0.0,0.0,0.0,0.0,0.0,0.0,0.0,0.0,0.0,0.0,0.0,0.0,0.0,0.0,0.0,0.0,0.0,0.0,0.0,0.0,0.0,0.0,0.0,0.0,0.0,0.0,0.0,0.0,0.0,0.0,0.0,0.0,0.0,0.0,0.0,-4.4392,0.0,-4.5701,-4.597,-4.4932,-4.3393,0.0,0.0,0.0,0.0,0.0,0.0,0.0,0.0,0.0,0.0,0.0,0.0,0.0,0.0,0.0,0.0,0.0,0.0,0.0,0.0,0.0,0.0,0.0,0.0,0.0,0.0,0.0,0.0,0.0,0.0,0.0,0.0,0.0,0.0,0.0,0.0,0.0,0.0,0.0,0.0,0.0,0.0,0.0,0.0,0.0,0.0,0.0,0.0,0.0,0.0,0.0,0.0,0.0,0.0,0.0,0.0,0.0,0.0,0.0,0.0,0.0,0.0,0.0,0.0,0.0,0.0,0.0,0.0,0.0,0.0,0.0,0.0,0.0,0.0,0.0,0.0,0.0,0.0,0.0,0.0,0.0,0.0,0.0,0.0,0.0,0.0,0.0,0.0,0.0,0.0,0.0,0.0,0.0,0.0,0.0,0.0,0.0,0.0,0.0,0.0,0.0,0.0,0.0,0.0,0.0,0.0,0.0,0.0,-4.5423,-4.6848,-4.7643,-4.7663,-4.6962,-4.6885,-4.5701,0.0,0.0,0.0,0.0,0.0,0.0,0.0,0.0,0.0,0.0,0.0,0.0,0.0,0.0,0.0,0.0,0.0,0.0,0.0,0.0,0.0,0.0,0.0,0.0,0.0,0.0,0.0,0.0,0.0,0.0,0.0,0.0,0.0,0.0,0.0,0.0,0.0,0.0,0.0,0.0,0.0,0.0,0.0,0.0,0.0,0.0,0.0,0.0,0.0,0.0,0.0,0.0,0.0,0.0,0.0,0.0,0.0,0.0,0.0,0.0,0.0,0.0,0.0,0.0,0.0,0.0,0.0,0.0,0.0,0.0,0.0,0.0,0.0,0.0,0.0,0.0,0.0,0.0,0.0,0.0,0.0,0.0,0.0,0.0,0.0,0.0,0.0,0.0,0.0,0.0,0.0,0.0,0.0,0.0,0.0,0.0,0.0,0.0,0.0,0.0,0.0,0.0,0.0,0.0,0.0,0.0,0.0,0.0,0.0,-4.8653,-4.8865,-4.8856,-4.8625,-4.8625,-4.7124,0.0,0.0,0.0,0.0,0.0,0.0,0.0,0.0,0.0,0.0,0.0,0.0,0.0,0.0,0.0,0.0,0.0,0.0,0.0,0.0,0.0,0.0,0.0,0.0,0.0,0.0,0.0,0.0,0.0,0.0,0.0,0.0,0.0,0.0,0.0,0.0,0.0,0.0,0.0,0.0,0.0,0.0,0.0,0.0,0.0,0.0,0.0,0.0,0.0,0.0,0.0,0.0,0.0,0.0,0.0,0.0,0.0,0.0,0.0,0.0,0.0,0.0,0.0,0.0,0.0,0.0,0.0,0.0,0.0,0.0,0.0,0.0,0.0,0.0,0.0,0.0,0.0,0.0,0.0,0.0,0.0,0.0,0.0,0.0,0.0,0.0,0.0,0.0,0.0,0.0,0.0,0.0,0.0,0.0,0.0,0.0,0.0,0.0,0.0,0.0,0.0,0.0,0.0,0.0,0.0,0.0,0.0,0.0,0.0,-5.1751,-5.1741,-5.1279,-5.0356,-5.0048,-4.8432,-4.5393,0.0,0.0,0.0,0.0,0.0,0.0,0.0,0.0,0.0,0.0,0.0,0.0,0.0,0.0,0.0,0.0,0.0,0.0,0.0,0.0,0.0,0.0,0.0,0.0,0.0,0.0,0.0,0.0,0.0,0.0,0.0,0.0,0.0,0.0,0.0,0.0,0.0,0.0,0.0,0.0,0.0,0.0,0.0,0.0,0.0,0.0,0.0,0.0,0.0,0.0,0.0,0.0,0.0,0.0,0.0,0.0,0.0,0.0,0.0,0.0,0.0,0.0,0.0,0.0,0.0,0.0,0.0,0.0,0.0,0.0,0.0,0.0,0.0,0.0,0.0,0.0,0.0,0.0,0.0,0.0,0.0,0.0,0.0,0.0,0.0,0.0,0.0,0.0,0.0,0.0,0.0,0.0,0.0,0.0,0.0,0.0,0.0,0.0,0.0,0.0,0.0,0.0,0.0,0.0,0.0,0.0,0.0,0.0,-5.5934,-5.6088,-5.4857,-5.2308,-5.1433,-4.9779,0.0,0.0,0.0,0.0,0.0,0.0,0.0,0.0,0.0,0.0,0.0,0.0,0.0,0.0,0.0,0.0,0.0,0.0,0.0,0.0,0.0,0.0,0.0,0.0,0.0,0.0,0.0,0.0,0.0,0.0,0.0,0.0,0.0,0.0,0.0,0.0,0.0,0.0,0.0,0.0,0.0,0.0,0.0,0.0,0.0,0.0,0.0,0.0,0.0,0.0,0.0,0.0,0.0,0.0,0.0,0.0,0.0,0.0,0.0,0.0,0.0,0.0,0.0,0.0,0.0,0.0,0.0,0.0,0.0,0.0,0.0,0.0,0.0,0.0,0.0,0.0,0.0,0.0,0.0,0.0,0.0,0.0,0.0,0.0,0.0,0.0,0.0,0.0,0.0,0.0,0.0,0.0,0.0,0.0,0.0,0.0,0.0,0.0,0.0,0.0,0.0,0.0,0.0,0.0,0.0,0.0,0.0,0.0,0.0,-5.9407,-6.0666,-5.9511,-5.5818,-5.4818,-5.3203,0.0,0.0,0.0,0.0,0.0,0.0,0.0,0.0,0.0,0.0,0.0,0.0,0.0,0.0,0.0,0.0,0.0,0.0,0.0,0.0,0.0,0.0,0.0,0.0,0.0,0.0,0.0,0.0,0.0,0.0,0.0,0.0,0.0,0.0,0.0,0.0,0.0,0.0,0.0,0.0,0.0,0.0,0.0,0.0,0.0,0.0,0.0,0.0,0.0,0.0,0.0,0.0,0.0,0.0,0.0,0.0,0.0,0.0,0.0,0.0,0.0,0.0,0.0,0.0,0.0,0.0,0.0,0.0,0.0,0.0,0.0,0.0,0.0,0.0,0.0,0.0,0.0,0.0,0.0,0.0,0.0,0.0,0.0,0.0,0.0,0.0,0.0,0.0,0.0,0.0,0.0,0.0,0.0,0.0,0.0,0.0,0.0,0.0,0.0,0.0,0.0,0.0,0.0,0.0,0.0,0.0,0.0,0.0,-5.9315,-6.1331,-6.2627,-6.2127,-5.9704,-5.778,-5.4895,0.0,0.0,0.0,0.0,0.0,0.0,0.0,0.0,0.0,0.0,0.0,0.0,0.0,0.0,0.0,0.0,0.0,0.0,0.0,0.0,0.0,0.0,0.0,0.0,0.0,0.0,0.0,0.0,0.0,0.0,0.0,0.0,0.0,0.0,0.0,0.0,0.0,0.0,0.0,0.0,0.0,0.0,0.0,0.0,0.0,0.0,0.0,0.0,0.0,0.0,0.0,0.0,0.0,0.0,0.0,0.0,0.0,0.0,0.0,0.0,0.0,0.0,0.0,0.0,0.0,0.0,0.0,0.0,0.0,0.0,0.0,0.0,0.0,0.0,0.0,0.0,0.0,0.0,0.0,0.0,0.0,0.0,0.0,0.0,0.0,0.0,0.0,0.0,0.0,0.0,0.0,0.0,0.0,0.0,0.0,0.0,0.0,0.0,0.0,0.0,0.0,0.0,0.0,0.0,0.0,0.0,0.0,0.0,-5.9935,-6.2447,-6.3281,-6.3577,-6.3346,-6.0204,-5.5895,0.0,0.0,0.0,0.0,0.0,0.0,0.0,0.0,0.0,0.0,0.0,0.0,0.0,0.0,0.0,0.0,0.0,0.0,0.0,0.0,0.0,0.0,0.0,0.0,0.0,0.0,0.0,0.0,0.0,0.0,0.0,0.0,0.0,0.0,0.0,0.0,0.0,0.0,0.0,0.0,0.0,0.0,0.0,0.0,0.0,0.0,0.0,0.0,0.0,0.0,0.0,0.0,0.0,0.0,0.0,0.0,0.0,0.0,0.0,0.0,0.0,0.0,0.0,0.0,0.0,0.0,0.0,0.0,0.0,0.0,0.0,0.0,0.0,0.0,0.0,0.0,0.0,0.0,0.0,0.0,0.0,0.0,0.0,0.0,0.0,0.0,0.0,0.0,0.0,0.0,0.0,0.0,0.0,0.0,0.0,0.0,0.0,0.0,0.0,0.0,0.0,0.0,0.0,0.0,0.0,0.0,0.0,0.0,-6.2524,-6.5013,-6.5859,-6.5667,-6.432,-6.1012,-5.8357,0.0,0.0,0.0,0.0,0.0,0.0,0.0,0.0,0.0,0.0,0.0,0.0,0.0,0.0,0.0,0.0,0.0,0.0,0.0,0.0,0.0,0.0,0.0,0.0,0.0,0.0,0.0,0.0,0.0,0.0,0.0,0.0,0.0,0.0,0.0,0.0,0.0,0.0,0.0,0.0,0.0,0.0,0.0,0.0,0.0,0.0,0.0,0.0,-4.6201,0.0,0.0,0.0,0.0,0.0,0.0,0.0,0.0,0.0,0.0,0.0,0.0,0.0,0.0,0.0,0.0,0.0,0.0,0.0,0.0,0.0,0.0,0.0,0.0,0.0,0.0,0.0,0.0,0.0,0.0,0.0,0.0,0.0,0.0,0.0,0.0,0.0,0.0,0.0,0.0,0.0,0.0,0.0,0.0,0.0,0.0,0.0,0.0,0.0,0.0,0.0,0.0,0.0,0.0,0.0,0.0,0.0,0.0,0.0,-6.3897,-6.6359,-6.7282,-6.709,-6.5743,-6.2474,-5.955,0.0,0.0,0.0,0.0,0.0,0.0,0.0,0.0,0.0,0.0,0.0,0.0,0.0,0.0,0.0,0.0,0.0,0.0,0.0,0.0,0.0,0.0,0.0,0.0,0.0,0.0,0.0,0.0,0.0,0.0,0.0,0.0,0.0,0.0,0.0,0.0,0.0,0.0,0.0,0.0,0.0,0.0,0.0,0.0,0.0,0.0,0.0,0.0,0.0,0.0,0.0,0.0,0.0,0.0,0.0,0.0,0.0,0.0,0.0,0.0,0.0,0.0,0.0,0.0,0.0,0.0,0.0,0.0,0.0,0.0,0.0,0.0,0.0,0.0,0.0,0.0,0.0,0.0,0.0,0.0,0.0,0.0,0.0,0.0,0.0,0.0,0.0,0.0,0.0,0.0,0.0,0.0,0.0,0.0,0.0,0.0,0.0,0.0,0.0,0.0,0.0,0.0,0.0,0.0,0.0,0.0,0.0,-6.2406,-6.4936,-6.7398,-6.8205,-6.8244,-6.7475,-6.4486,-6.0947,-5.6857,0.0,0.0,0.0,0.0,0.0,0.0,0.0,0.0,0.0,0.0,0.0,0.0,0.0,0.0,0.0,0.0,0.0,0.0,0.0,0.0,0.0,0.0,0.0,0.0,0.0,0.0,0.0,0.0,0.0,0.0,0.0,0.0,0.0,0.0,0.0,0.0,0.0,0.0,-4.4833,-4.8111,0.0,0.0,0.0,0.0,0.0,0.0,0.0,0.0,-5.2174,0.0,0.0,0.0,0.0,0.0,0.0,0.0,0.0,0.0,0.0,0.0,0.0,0.0,0.0,0.0,0.0,0.0,0.0,0.0,0.0,0.0,0.0,0.0,0.0,0.0,0.0,0.0,0.0,0.0,0.0,0.0,0.0,0.0,0.0,0.0,0.0,0.0,0.0,0.0,0.0,0.0,0.0,0.0,0.0,0.0,0.0,0.0,0.0,0.0,0.0,0.0,0.0,0.0,0.0,0.0,0.0,-6.0668,-6.3842,-6.6705,-6.9206,-6.9398,-6.9398,-6.9206,-6.7321,-6.4628,-6.1062,0.0,0.0,0.0,0.0,0.0,0.0,0.0,0.0,0.0,0.0,0.0,0.0,0.0,0.0,0.0,0.0,0.0,0.0,0.0,0.0,0.0,0.0,0.0,0.0,0.0,0.0,0.0,0.0,0.0,0.0,0.0,0.0,0.0,0.0,0.0,0.0,0.0,0.0,0.0,-5.1604,-5.3858,0.0,0.0,0.0,0.0,0.0,0.0,0.0,0.0,-5.4972,0.0,0.0,0.0,0.0,0.0,0.0,0.0,0.0,0.0,0.0,0.0,0.0,0.0,0.0,0.0,0.0,0.0,0.0,0.0,0.0,0.0,0.0,0.0,0.0,0.0,0.0,0.0,0.0,0.0,0.0,0.0,0.0,0.0,0.0,0.0,0.0,0.0,0.0,0.0,0.0,0.0,0.0,0.0,0.0,0.0,0.0,0.0,0.0,0.0,0.0,0.0,0.0,0.0,0.0,0.0,-6.2133,-6.5074,-6.7552,-6.9629,-7.009,-7.0129,-6.9667,-6.759,-6.4897,0.0,0.0,0.0,0.0,0.0,0.0,0.0,0.0,0.0,0.0,0.0,0.0,0.0,0.0,0.0,0.0,0.0,0.0,0.0,0.0,0.0,0.0,0.0,0.0,0.0,0.0,0.0,0.0,0.0,0.0,0.0,0.0,0.0,0.0,0.0,0.0,0.0,0.0,0.0,0.0,-5.3834,-5.6343,-5.7301,0.0,0.0,0.0,0.0,0.0,0.0,-5.9425,-5.8671,0.0,0.0,0.0,0.0,0.0,0.0,0.0,0.0,0.0,0.0,0.0,0.0,0.0,0.0,0.0,0.0,0.0,0.0,0.0,0.0,0.0,0.0,0.0,0.0,0.0,0.0,0.0,0.0,0.0,0.0,0.0,0.0,0.0,0.0,0.0,0.0,0.0,0.0,0.0,0.0,0.0,0.0,0.0,0.0,0.0,0.0,0.0,0.0,0.0,0.0,0.0,0.0,0.0,0.0,0.0,-6.3648,-6.6306,-6.8475,-7.0129,-7.0821,-7.086,-7.0167,-6.7744,-6.4897,0.0,0.0,0.0,0.0,0.0,0.0,0.0,0.0,0.0,0.0,0.0,0.0,0.0,0.0,0.0,0.0,0.0,0.0,0.0,0.0,0.0,0.0,0.0,0.0,0.0,0.0,0.0,0.0,0.0,0.0,0.0,0.0,0.0,0.0,0.0,0.0,0.0,0.0,0.0,0.0,0.0,-5.8604,-6.0073,-6.1438,0.0,0.0,0.0,0.0,-6.2767,-6.2694,0.0,0.0,0.0,0.0,0.0,0.0,0.0,0.0,0.0,0.0,0.0,0.0,0.0,0.0,0.0,0.0,0.0,0.0,0.0,0.0,0.0,0.0,0.0,0.0,0.0,0.0,0.0,0.0,0.0,0.0,0.0,0.0,0.0,0.0,0.0,0.0,0.0,0.0,0.0,0.0,0.0,0.0,0.0,0.0,0.0,0.0,0.0,0.0,0.0,0.0,0.0,0.0,0.0,0.0,0.0,0.0,-6.4602,-6.7769,-7.0206,-7.1822,-7.2014,-7.2014,-7.186,-6.9436,-6.6859,0.0,0.0,0.0,0.0,0.0,0.0,0.0,0.0,0.0,0.0,0.0,0.0,0.0,0.0,0.0,0.0,0.0,0.0,0.0,0.0,0.0,0.0,0.0,0.0,0.0,0.0,0.0,0.0,0.0,0.0,0.0,0.0,0.0,0.0,0.0,0.0,0.0,0.0,0.0,0.0,0.0,-6.0926,-6.1128,-6.3806,-6.5536,0.0,0.0,-6.5459,-6.4646,-6.4463,0.0,0.0,0.0,0.0,0.0,0.0,0.0,0.0,0.0,0.0,0.0,0.0,0.0,0.0,0.0,0.0,0.0,0.0,0.0,0.0,0.0,0.0,0.0,0.0,0.0,0.0,0.0,0.0,0.0,0.0,0.0,0.0,0.0,0.0,0.0,0.0,0.0,0.0,0.0,0.0,0.0,0.0,0.0,0.0,0.0,0.0,0.0,0.0,0.0,0.0,0.0,0.0,0.0,0.0,0.0,-6.2372,-6.6156,-6.9001,-7.1016,-7.2168,-7.2706,-7.2706,-7.2206,-7.0667,-6.8167,0.0,0.0,0.0,0.0,0.0,0.0,0.0,0.0,0.0,0.0,0.0,0.0,0.0,0.0,0.0,0.0,0.0,0.0,0.0,0.0,0.0,0.0,0.0,0.0,0.0,0.0,0.0,0.0,0.0,0.0,0.0,0.0,0.0,0.0,0.0,0.0,0.0,0.0,0.0,0.0,0.0,0.0,-6.403,-6.598,0.0,0.0,0.0,-6.7706,-6.7713,0.0,0.0,0.0,0.0,0.0,0.0,0.0,0.0,0.0,0.0,0.0,0.0,0.0,0.0,0.0,0.0,0.0,0.0,0.0,0.0,0.0,0.0,0.0,0.0,0.0,0.0,0.0,0.0,0.0,0.0,0.0,0.0,0.0,0.0,0.0,0.0,0.0,0.0,0.0,0.0,0.0,0.0,0.0,0.0,0.0,0.0,0.0,0.0,0.0,0.0,0.0,0.0,0.0,0.0,0.0,0.0,0.0,-6.7583,-7.0067,-7.1813,-7.2783,-7.3476,-7.3476,-7.2822,-7.1591,0.0,0.0,0.0,0.0,0.0,0.0,0.0,0.0,0.0,0.0,0.0,0.0,0.0,0.0,0.0,0.0,0.0,0.0,0.0,0.0,0.0,0.0,0.0,0.0,0.0,0.0,0.0,-4.0105,0.0,0.0,0.0,0.0,0.0,0.0,0.0,0.0,0.0,0.0,0.0,0.0,0.0,0.0,-6.3171,-6.6192,-6.7857,-6.894,0.0,0.0,-6.9973,-7.0203,-6.901,-6.7614,0.0,0.0,0.0,0.0,0.0,0.0,0.0,0.0,0.0,0.0,0.0,0.0,0.0,0.0,0.0,0.0,0.0,0.0,0.0,0.0,0.0,0.0,0.0,0.0,0.0,0.0,0.0,0.0,0.0,0.0,0.0,0.0,0.0,0.0,0.0,0.0,0.0,0.0,0.0,0.0,0.0,0.0,0.0,0.0,0.0,0.0,0.0,0.0,0.0,0.0,0.0,0.0,0.0,0.0,-6.4376,-6.8432,-7.0953,-7.2968,-7.4476,-7.4591,-7.4591,-7.4476,-7.2168,-7.0052,0.0,0.0,0.0,0.0,0.0,0.0,0.0,0.0,0.0,0.0,0.0,0.0,0.0,0.0,0.0,0.0,0.0,0.0,0.0,0.0,0.0,0.0,0.0,0.0,0.0,0.0,0.0,0.0,0.0,0.0,0.0,0.0,0.0,0.0,0.0,0.0,0.0,0.0,0.0,0.0,0.0,-6.4552,-6.6348,-6.9349,-7.1412,0.0,-7.2064,-7.224,-7.1352,-7.0435,-6.8988,-6.6487,0.0,0.0,0.0,0.0,0.0,0.0,0.0,0.0,0.0,0.0,0.0,0.0,0.0,0.0,0.0,0.0,0.0,0.0,0.0,0.0,0.0,0.0,0.0,0.0,0.0,0.0,0.0,0.0,0.0,0.0,0.0,0.0,0.0,0.0,0.0,0.0,0.0,0.0,0.0,0.0,0.0,0.0,0.0,0.0,0.0,0.0,0.0,0.0,0.0,0.0,0.0,0.0,0.0,-6.577,-6.9319,-7.184,-7.3933,-7.5438,-7.5515,-7.5515,-7.5515,-7.4053,-7.1975,0.0,0.0,0.0,0.0,0.0,0.0,0.0,0.0,0.0,0.0,0.0,0.0,0.0,0.0,0.0,0.0,0.0,0.0,0.0,0.0,0.0,0.0,0.0,0.0,0.0,0.0,0.0,0.0,-5.2587,-5.3625,-5.3709,0.0,0.0,0.0,0.0,0.0,0.0,0.0,0.0,0.0,0.0,-6.5873,-6.8637,-7.0551,0.0,0.0,-7.3449,-7.3452,-7.3031,-7.1831,-7.0571,-6.9469,-6.7016,0.0,0.0,0.0,0.0,0.0,0.0,0.0,0.0,0.0,0.0,0.0,0.0,0.0,0.0,0.0,0.0,0.0,0.0,0.0,0.0,0.0,0.0,0.0,0.0,0.0,0.0,0.0,0.0,0.0,0.0,0.0,0.0,0.0,0.0,0.0,0.0,0.0,0.0,0.0,0.0,0.0,0.0,0.0,0.0,0.0,0.0,0.0,0.0,0.0,0.0,0.0,0.0,-6.7154,-7.0566,-7.3151,-7.5077,-7.6361,-7.663,-7.6746,-7.6707,-7.5668,-7.3745,0.0,0.0,0.0,0.0,0.0,0.0,0.0,0.0,0.0,0.0,0.0,0.0,0.0,0.0,0.0,0.0,0.0,0.0,0.0,0.0,0.0,0.0,0.0,0.0,0.0,0.0,0.0,0.0,-5.541,-5.5658,-5.4252,0.0,0.0,0.0,0.0,0.0,0.0,0.0,0.0,0.0,0.0,-6.7592,-7.0514,-7.2043,-7.3282,-7.4421,-7.455,-7.4479,-7.4431,-7.319,-7.2134,-7.1792,0.0,0.0,0.0,0.0,0.0,0.0,0.0,0.0,0.0,0.0,0.0,0.0,0.0,0.0,0.0,0.0,0.0,0.0,0.0,0.0,0.0,0.0,0.0,0.0,0.0,0.0,0.0,-5.2665,0.0,0.0,-5.1453,0.0,0.0,0.0,0.0,0.0,0.0,0.0,0.0,0.0,0.0,0.0,0.0,0.0,0.0,0.0,0.0,0.0,0.0,0.0,0.0,0.0,0.0,-6.8354,-7.2302,-7.481,-7.6517,-7.726,-7.803,-7.8415,-7.84,-7.6861,-7.5168,-7.3399,0.0,0.0,0.0,0.0,0.0,0.0,0.0,0.0,0.0,0.0,0.0,0.0,0.0,0.0,0.0,0.0,0.0,0.0,0.0,0.0,0.0,0.0,0.0,0.0,0.0,0.0,-5.7286,-5.8291,-5.777,0.0,0.0,0.0,0.0,0.0,0.0,0.0,0.0,0.0,-6.4877,-6.7579,-6.9869,-7.1663,-7.4015,-7.554,-7.5619,-7.5487,-7.5387,-7.542,-7.4596,-7.3675,0.0,0.0,0.0,0.0,0.0,0.0,0.0,0.0,0.0,0.0,0.0,0.0,0.0,0.0,0.0,0.0,0.0,0.0,0.0,0.0,0.0,0.0,0.0,0.0,0.0,0.0,0.0,-5.6957,-5.6918,0.0,0.0,0.0,0.0,0.0,0.0,0.0,0.0,0.0,0.0,0.0,-6.4219,-6.4219,0.0,0.0,0.0,0.0,0.0,0.0,0.0,0.0,0.0,0.0,0.0,0.0,-6.9487,-7.2402,-7.4938,-7.6839,-7.8127,-7.8391,-7.8784,-7.9361,-7.8246,-7.6361,-7.3577,0.0,0.0,0.0,0.0,0.0,0.0,0.0,0.0,0.0,0.0,0.0,0.0,0.0,0.0,0.0,0.0,0.0,0.0,0.0,0.0,0.0,0.0,0.0,0.0,0.0,-5.7871,0.0,0.0,0.0,0.0,0.0,0.0,0.0,0.0,0.0,0.0,-6.1523,-6.4057,-6.7545,-6.9722,-7.1651,-7.3406,-7.4811,-7.6097,0.0,0.0,0.0,0.0,0.0,0.0,0.0,0.0,0.0,0.0,0.0,0.0,0.0,-6.9168,-6.6768,-6.3651,-6.3106,-6.3514,-6.4901,0.0,0.0,0.0,0.0,0.0,0.0,0.0,0.0,0.0,0.0,0.0,0.0,0.0,0.0,-6.1369,-6.1291,-6.0744,0.0,0.0,0.0,0.0,0.0,0.0,0.0,0.0,-6.7849,-6.8593,-6.8591,-6.863,-6.8318,-6.7849,-6.781,-6.6363,0.0,0.0,0.0,0.0,0.0,0.0,0.0,0.0,-7.1123,-7.379,-7.6019,-7.7767,-7.898,-7.9321,-7.97,-8.0208,-7.9131,-7.7207,-7.4476,-7.2206,-6.9321,0.0,0.0,0.0,0.0,0.0,0.0,0.0,0.0,0.0,0.0,0.0,0.0,0.0,0.0,0.0,0.0,0.0,0.0,0.0,0.0,0.0,0.0,0.0,-6.0789,0.0,0.0,0.0,0.0,0.0,0.0,0.0,0.0,0.0,-6.2852,-6.4632,-6.6975,-6.983,-7.1967,-7.3782,-7.5222,0.0,0.0,0.0,0.0,0.0,0.0,0.0,-7.7909,-7.815,-7.8222,-7.809,-7.7518,-7.6493,-7.5857,-7.6085,0.0,0.0,-6.9286,-6.8417,-6.8871,-7.0268,-7.0518,-7.072,-7.146,-7.1543,-7.1943,0.0,0.0,0.0,0.0,-6.4455,0.0,0.0,0.0,-6.578,-6.578,0.0,-6.5702,0.0,0.0,0.0,0.0,-6.5858,-6.7498,0.0,0.0,-7.1324,-7.2143,-7.2143,-7.2143,-7.2143,-7.2143,-7.2143,-7.2104,-7.1792,-6.7078,0.0,0.0,0.0,0.0,0.0,0.0,-7.3147,-7.6171,-7.8001,-7.9248,-7.988,-8.0713,-8.1146,-8.107,-7.9438,-7.7784,-7.613,-7.4437,-7.2399,-6.9898,-6.6551,0.0,0.0,0.0,0.0,0.0,0.0,0.0,0.0,0.0,0.0,0.0,0.0,0.0,0.0,0.0,0.0,0.0,0.0,0.0,0.0,-6.2689,0.0,0.0,0.0,0.0,0.0,0.0,0.0,0.0,0.0,-6.6432,-6.5816,-6.7876,-7.0103,-7.1858,0.0,0.0,0.0,0.0,-7.9721,-7.9704,-7.9676,-7.965,-7.9661,-7.9655,-7.9934,-8.0713,0.0,0.0,-8.0987,-8.1031,-8.0675,-7.9899,-7.9739,-7.8662,-7.5268,-7.4509,-7.4696,-7.5585,-7.5712,-7.5977,-7.6618,-7.6585,-7.7003,-7.0738,0.0,0.0,0.0,0.0,-6.7927,-6.8786,-7.0191,-7.0152,-7.0152,-7.0113,-6.9528,0.0,0.0,0.0,0.0,0.0,0.0,-7.226,-7.308,-7.4212,-7.5032,-7.5657,-7.5618,-7.5657,-7.5657,-7.5657,-7.5657,-7.5579,-7.4155,-7.2174,-6.9752,0.0,0.0,0.0,0.0,-7.5032,-7.6538,-7.8692,-7.9906,-8.01,-8.0881,-8.1258,-8.1184,-8.0046,-7.89,-7.7823,-7.6169,-7.4399,-7.2476,-6.9744,0.0,0.0,0.0,0.0,0.0,0.0,0.0,0.0,0.0,0.0,0.0,0.0,0.0,0.0,0.0,0.0,0.0,0.0,0.0,-6.3752,-6.5219,-6.534,0.0,0.0,0.0,0.0,0.0,0.0,0.0,0.0,0.0,-7.1569,-7.2446,-7.3583,0.0,0.0,-7.7954,-7.8852,-7.9896,-8.0782,-8.136,-8.146,0.0,-8.2255,-8.2367,-8.2455,-8.2664,-8.3259,-8.3658,-8.3662,-8.3688,-8.3601,-8.3367,-8.3328,-8.2928,-8.1967,-8.0246,-7.9411,-8.0033,-8.0208,-8.0245,-8.0348,-8.0339,-8.0552,-7.5149,-7.2885,-7.187,-7.1441,-7.1441,-7.1402,-7.2026,-7.3002,-7.3002,-7.3197,-7.3471,-7.2924,-7.2924,-7.3197,-7.269,0.0,0.0,0.0,-7.5579,-7.6086,-7.6945,-7.7648,-7.8116,-7.8116,-7.8155,-7.8116,-7.8155,-7.8155,-7.8116,-7.8107,-7.7071,-7.5044,0.0,-7.4243,-7.4958,-7.594,-7.7011,-7.8116,-7.9543,-8.0597,-8.127,-8.1955,-8.2154,-8.1759,-8.1146,-8.0292,-7.9099,-7.8068,-7.6592,-7.4553,-7.2426,-6.9861,0.0,0.0,0.0,0.0,0.0,0.0,0.0,0.0,0.0,0.0,0.0,-5.2258,-5.6019,0.0,0.0,0.0,-6.3141,-6.4969,-6.6822,-6.7497,0.0,0.0,0.0,0.0,0.0,0.0,0.0,-6.9511,-7.1393,-7.3436,-7.5669,-7.6843,-7.7536,-7.7589,-7.8952,-8.0146,-8.0654,0.0,-8.2628,-8.3135,-8.3245,-8.3432,-8.3939,-8.4017,-8.4255,-8.4931,-8.6066,-8.6804,-8.6843,-8.6874,-8.6866,-8.6866,-8.6866,-8.6866,-8.6866,-8.5543,-8.4083,-8.3309,-8.313,-8.3208,-8.3384,-8.3385,-8.364,-7.917,-7.8197,-7.5774,-7.4798,-7.4798,-7.4798,-7.4837,-7.4915,-7.4915,-7.5345,-7.6125,-7.6086,-7.6555,-7.7296,-7.7296,0.0,-7.7335,-7.8155,-7.8507,-7.8624,-7.9483,-7.9951,-8.0029,-8.0107,-8.0146,-8.0224,-8.0224,-8.0224,-8.0341,-8.0224,-8.0137,-8.0158,-7.8301,-7.7683,-7.82,-7.8232,-7.9018,-8.0563,-8.0619,-8.1409,-8.2968,-8.3605,-8.3512,-8.2733,-8.2507,-8.1691,-8.0213,-7.9922,-7.8723,-7.6429,-7.4714,-7.2713,-7.0285,0.0,0.0,0.0,0.0,0.0,0.0,0.0,0.0,0.0,0.0,0.0,0.0,0.0,0.0,-6.5679,-6.7391,0.0,-6.9522,-6.9639,0.0,0.0,0.0,-7.0117,-7.084,-7.1039,-7.2022,-7.4355,0.0,0.0,-7.8408,-8.0778,-8.146,-7.9114,-8.0946,-8.2489,-8.2489,-8.3855,-8.4909,-8.4984,-8.5062,-8.514,-8.5452,-8.5413,-8.5921,-8.7326,-8.893,-8.975,-8.9789,-8.9789,-8.9945,-8.9789,-8.9945,-8.9906,-8.9945,-8.9633,-8.8994,-8.5721,-8.5181,-8.5364,-8.5946,-8.6056,-8.6428,-7.9209,-7.8353,-7.7726,-7.7453,-7.7492,-7.7453,-7.7843,-7.8429,-7.8468,-7.8585,-7.878,-7.878,-7.8897,-7.9092,-7.9092,-7.9092,-7.9092,-7.9287,-7.9756,-8.042,-8.1278,-8.202,-8.2606,-8.3269,-8.3933,-8.4558,-8.4558,-8.4909,-8.5456,-8.4245,-8.3923,-8.4416,-8.2136,-8.0388,-7.9316,-7.9819,-8.0635,-8.1649,-8.2228,-8.298,-8.3851,-8.3952,-8.3863,-8.3656,-8.2954,-8.2381,-8.1957,-8.067,-7.9654,-7.9037,-7.6866,-7.4989,-7.3716,-7.0476,0.0,0.0,0.0,0.0,0.0,0.0,0.0,0.0,0.0,-6.0248,-6.3891,0.0,-6.7555,0.0,-7.0345,-7.1377,-7.2249,-7.2366,0.0,0.0,-7.3477,-7.4055,-7.3614,-7.4737,-7.5785,-7.637,-7.777,-7.9335,-8.1051,-8.24,-8.3198,-8.3233,-8.3802,-8.4206,-8.4245,-8.5104,-8.6041,-8.6705,-8.7329,-8.7993,-8.854,-8.8774,-8.8813,-8.932,-8.975,-8.9984,-9.0023,-8.9984,-8.9984,-8.9984,-8.9984,-8.9984,-9.0062,-8.9984,-8.9743,-8.8852,-8.8667,-8.8701,-8.8764,-8.8732,-8.8798,-8.1122,-8.0654,-8.0263,-8.0146,-8.0029,-7.8468,-7.8077,-7.8546,-7.8546,-7.9209,-8.0341,-8.1474,-8.1981,-8.1981,-8.1981,-8.1942,-8.1981,-8.1981,-8.2215,-8.2723,-8.3191,-8.366,-8.4089,-8.4558,-8.5065,-8.5495,-8.5534,-8.5768,-8.6158,-8.526,-8.5019,-8.5481,-8.4076,-8.2893,-8.1971,-8.1961,-8.2194,-8.2611,-8.3781,-8.457,-8.488,-8.5164,-8.5083,-8.461,-8.3734,-8.3034,-8.2659,-8.1305,-8.0418,-8.0034,-7.8361,-7.6854,-7.5642,-7.3141,-7.075,0.0,0.0,0.0,0.0,0.0,0.0,0.0,0.0,0.0,0.0,0.0,-7.0664,-7.2743,-7.3729,-7.4438,-7.4951,-7.4993,-7.5146,-7.5488,-7.6379,-7.7032,-7.7298,-7.8222,-7.9075,-7.9856,-8.0762,-8.1859,-8.3185,-8.4451,-8.5403,-8.591,-8.662,-8.6822,-8.6236,-8.7017,-8.8032,-8.8501,-8.8969,-8.9437,-8.9945,-9.0335,-9.057,-9.0609,-9.0882,-9.1116,-9.1116,-9.1116,-9.1116,-9.1116,-9.1116,-9.1116,-9.1116,-9.1116,-9.1074,-9.1062,-9.1076,-9.0863,-9.0407,-9.0314,-9.0265,-8.3543,-8.3308,-8.2606,-8.2176,-8.1747,-7.8819,-7.7726,-7.7921,-7.7921,-7.9248,-8.163,-8.3816,-8.4831,-8.4831,-8.4831,-8.4831,-8.4831,-8.4831,-8.4831,-8.4831,-8.4909,-8.4987,-8.4948,-8.5101,-8.5182,-8.5299,-8.5299,-8.5377,-8.5456,-8.526,-8.5182,-8.5299,-8.4987,-8.487,-8.4945,-8.4152,-8.3722,-8.3755,-8.5299,-8.6024,-8.5894,-8.6574,-8.6493,-8.5599,-8.47,-8.3786,-8.2922,-8.2005,-8.1142,-8.0332,-7.9543,-7.8468,-7.7052,-7.5358,-7.3684,0.0,-7.1219,0.0,0.0,0.0,0.0,0.0,0.0,0.0,0.0,-7.2427,-7.3732,-7.6086,-7.6984,-7.7453,-7.7414,-7.7531,-7.7882,-7.8624,-7.8923,-7.9615,-8.102,-8.1317,-8.1971,-8.3493,-8.3861,-8.4298,-8.5079,-8.6655,-8.7755,-8.7833,-8.9008,-8.9398,-8.8344,-8.9047,-8.9867,-9.014,-9.0257,-9.0452,-9.0531,-9.0999,-9.1467,-9.1546,-9.1936,-9.2482,-9.2404,-9.2404,-9.2443,-9.2443,-9.2365,-9.2404,-9.2482,-9.2443,-9.2443,-9.2365,-9.2451,-9.2273,-9.1442,-9.1178,-9.1306,-8.3777,-8.2528,-8.2371,-8.1474,-8.0185,-8.0224,-8.1044,-8.2293,-8.2293,-8.2957,-8.4089,-8.4597,-8.4831,-8.4831,-8.4831,-8.4831,-8.4831,-8.4831,-8.4831,-8.4831,-8.5534,-8.5846,-8.5924,-8.6588,-8.729,-8.7954,-8.7954,-8.8305,-8.9008,-8.7603,-8.7251,-8.7876,-8.5846,-8.5182,-8.5807,0.0,0.0,0.0,-8.6524,-8.6968,-8.6849,-8.6929,-8.6856,-8.6591,-8.5707,0.0,-8.3933,-8.3107,-8.2282,-8.1414,-8.0616,0.0,0.0,0.0,0.0,0.0,0.0,0.0,0.0,0.0,0.0,0.0,-7.5443,-7.4995,-7.2349,-7.5176,-7.7684,-7.8819,-7.9131,-7.9209,-7.9209,-7.9873,-8.0341,-8.0537,-8.1705,-8.2681,-8.2993,-8.3611,-8.4196,-8.4508,-8.58,-8.6737,-8.6971,-8.8419,-8.9477,-8.9516,-9.0413,-9.0882,-9.057,-9.0257,-9.0296,-9.0921,-9.1507,-9.1975,-9.2014,-9.2131,-9.2209,-9.2326,-9.2365,-9.2522,-9.26,-9.2561,-9.2522,-9.2561,-9.2482,-9.2561,-9.2561,-9.2482,-9.26,-9.2522,-9.3036,-9.322,-9.2315,-9.2028,-9.1995,-8.4948,-8.4167,-8.3699,-8.3035,0.0,-8.2684,-8.3582,-8.4714,-8.3426,-8.3621,-8.487,-8.5686,-8.608,-8.608,-8.608,-8.608,-8.608,-8.608,-8.608,-8.6119,-8.6549,-8.6978,-8.7407,-8.7837,-8.8501,-8.932,-8.9359,-8.9359,-8.932,-8.8461,-8.8032,-8.8032,-8.6744,-8.6314,-8.6744,-8.6744,-8.673,-8.6697,-8.7117,-8.7309,-8.7142,-8.7145,-8.7042,-8.6904,-8.6048,0.0,0.0,0.0,0.0,0.0,0.0,0.0,0.0,-8.0366,0.0,-7.7493,-7.7011,-7.666,-7.6255,-7.6693,-7.7009,-7.7043,-7.8675,-7.8572,-7.5996,-7.8582,-8.0498,-8.0966,-8.1708,-8.2215,-8.2254,-8.2606,-8.2879,-8.2918,-8.3621,-8.4441,-8.5299,-8.5807,-8.6431,-8.729,-8.811,-8.8696,-8.8696,-8.9789,-9.057,-9.0687,-9.135,-9.1897,-9.1858,-9.1546,-9.1428,-9.1819,-9.2209,-9.2482,-9.2482,-9.2482,-9.2717,-9.299,-9.3146,-9.3341,-9.3732,-9.381,-9.381,-9.3771,-9.3771,-9.3771,-9.3771,-9.3771,-9.381,-9.381,-9.4099,-9.4261,-9.3755,-9.3577,-9.3444,-8.6236,-8.6041,-8.5338,-8.4948,-8.4831,-8.4987,-8.5534,-8.6197,-8.4089,0.0,0.0,-8.6779,-8.7404,-8.7404,-8.7404,-8.7404,-8.7404,-8.7404,-8.7404,-8.7404,-8.7404,-8.7837,-8.8657,-8.8696,-8.9164,-8.9984,-8.9984,-8.9555,-8.8696,-8.8696,-8.8266,-8.7482,-8.7404,-8.7404,-8.7404,-8.7404,-8.7397,-8.7425,-8.7421,-8.7355,-8.7241,-8.7222,-8.7174,-8.7055,-8.634,-8.5865,-8.5631,-8.4932,-8.4524,-8.4446,-8.4501,-8.3874,-8.2552,-8.2481,-8.1788,-8.0277,-8.0149,-8.0182,-8.0213,-8.0246,-8.0085,-7.9576,-8.0843,-8.1278,-8.0459,-8.1825,-8.2723,-8.2723,-8.4011,-8.4792,-8.4831,-8.5104,-8.526,-8.526,-8.5534,-8.6314,-8.7603,-8.7876,-8.8383,-8.9711,-9.0023,-9.0218,-9.0218,-9.096,-9.1507,-9.1585,-9.2053,-9.26,-9.2678,-9.2522,-9.2365,-9.2404,-9.2639,-9.2795,-9.2756,-9.299,-9.3224,-9.3888,-9.4044,-9.4278,-9.4864,-9.5098,-9.5098,-9.4942,-9.5098,-9.502,-9.5059,-9.4981,-9.5098,-9.5098,-9.5239,-9.5295,-9.5265,-9.5282,-9.5114,-8.6783,-8.608,-8.5963,-8.5495,-8.487,-8.5612,-8.6431,-8.7173,-8.6819,-8.6819,-8.7056,-8.729,-8.7404,-8.7404,-8.7404,-8.7404,-8.7404,-8.7404,-8.7404,-8.7404,-8.7404,-8.7876,-8.8657,-8.8696,-8.9164,-8.9945,-8.9984,-8.9555,-8.8774,-8.8696,-8.8266,-8.7482,-8.7404,-8.7404,-8.7404,-8.7404,-8.7404,-8.7404,-8.7401,-8.739,-8.7365,-8.732,-8.7234,-8.7188,-8.6997,-8.6527,-8.5819,-8.5663,-8.5274,-8.4621,-8.4583,-8.4458,-8.427,-8.426,-8.3858,-8.2914,-8.2842,-8.2858,-8.2923,-8.2947,-8.3245,-8.3848,-8.4125,-8.3894,-8.3074,-8.3855,-8.4441,-8.448,-8.4714,-8.4831,-8.4909,-8.6197,-8.7014,-8.7134,-8.8344,-8.9398,-8.9555,-8.9594,-8.9711,-9.0062,-9.0687,-9.1116,-9.1194,-9.178,-9.2287,-9.2326,-9.26,-9.2834,-9.3341,-9.2951,-9.2561,-9.26,-9.3146,-9.3537,-9.3654,-9.4278,-9.463,-9.4903,-9.4903,-9.502,-9.5254,-9.5332,-9.5293,-9.5176,-9.5293,-9.5215,-9.5215,-9.5098,-9.5254,-9.5332,-9.5785,-9.6158,-9.6188,-9.6583,-9.6515,-8.7173,-8.6822,-8.6822,-8.6588,-8.6236,-8.6627,-8.7017,-8.7404,-8.7404,-8.7404,-8.7404,-8.7404,-8.7404,-8.7404,-8.7404,-8.7404,-8.7404,-8.7404,-8.7404,-8.7404,-8.7404,-8.7837,-8.8696,-8.9203,-8.9867,-9.0687,-9.0687,-9.0257,-8.9437,-8.893,-8.8266,-8.7443,-8.7404,-8.7404,-8.7404,-8.7404,-8.7404,-8.7404,-8.7404,-8.7397,-8.7417,-8.7355,-8.7331,-8.7264,-8.7215,-8.7032,-8.6643,-8.6604,-8.6448,-8.6059,-8.6059,-8.5837,-8.5415,-8.5387,-8.5047,-8.4244,-8.4166,-8.4176,-8.42,-8.4224,-8.4587,-8.5416,-8.5495,-8.5768,-8.6275,-8.5807,-8.5495,-8.5573,-8.6314,-8.69,-8.6939,-8.8071,-8.8813,-8.8813,-8.9555,-9.0179,-9.0609,-9.0726,-9.0882,-9.1272,-9.1702,-9.1936,-9.1936,-9.2287,-9.2717,-9.3107,-9.3537,-9.4044,-9.4434,-9.42,-9.3888,-9.3927,-9.4278,-9.4473,-9.4552,-9.4825,-9.5293,-9.5684,-9.5801,-9.5996,-9.6347,-9.6503,-9.6503,-9.6503,-9.6503,-9.6503,-9.6464,-9.6503,-9.6503,-9.6542,-9.6773,-9.7073,-9.7129,-9.7298,-9.7107,-8.7404,-8.7404,-8.7599,-8.7798,-8.7954,-8.7759,-8.7677,-8.7677,-8.7482,-8.7404,-8.7404,-8.7404,-8.7482,-8.7677,-8.7677,-8.7798,-8.7954,-8.7993,-8.7993,-8.7993,-8.7993,-8.8344,-8.9008,-8.9711,-9.0374,-9.096,-9.0999,-9.057,-8.9711,-8.9008,-8.8266,-8.7482,-8.7404,-8.7404,-8.7404,-8.7404,-8.7404,-8.7404,-8.7404,-8.7401,-8.7386,-8.7421,-8.7369,-8.7312,-8.7325,-8.7309,-8.7309,-8.7504,-8.7582,-8.7621,-8.7799,-8.7575,-8.6922,-8.6882,-8.6614,-8.6072,-8.5955,-8.5964,-8.5981,-8.5956,-8.6236,-8.69,-8.6978,-8.7525,-8.8657,-8.7759,-8.6978,-8.7134,-8.8188,-8.893,-8.9008,-8.975,-9.0296,-9.0296,-9.0452,-9.0882,-9.1467,-9.1585,-9.178,-9.2404,-9.2482,-9.2561,-9.2717,-9.2795,-9.3146,-9.4005,-9.4669,-9.5098,-9.5332,-9.541,-9.5449,-9.5606,-9.5567,-9.541,-9.541,-9.5645,-9.6035,-9.6621,-9.6699,-9.6933,-9.7401,-9.7636,-9.7675,-9.7558,-9.7597,-9.7518,-9.7636,-9.7636,-9.7558,-9.7518,-9.7558,-9.7628,-9.7524,-9.7499,-9.7426,-8.7404,-8.7521,-8.8227,-8.9047,-8.9594,-8.8891,-8.8579,-8.8461,-8.7755,-8.7404,-8.7443,-8.7404,-8.7876,-8.8501,-8.8579,-8.8969,-8.9633,-8.975,-8.9711,-8.9672,-8.975,-8.9789,-8.9828,-8.9945,-9.0062,-9.014,-9.014,-8.9672,-8.893,-8.8735,-8.8266,-8.7482,-8.7404,-8.7404,-8.7404,-8.7404,-8.7404,-8.7404,-8.7404,-8.7404,-8.7404,-8.739,-8.7417,-8.7412,-8.7312,-8.7297,-8.7302,-8.8038,-8.8472,-8.855,-8.9174,-8.9579,-8.9481,-8.9524,-8.9493,-8.943,-8.9434,-8.9512,-8.9477,-8.9555,-8.9398,-8.9636,-8.9516,-8.9594,-8.9867,-8.9711,-8.9633,-8.9672,-8.9753,-8.9867,-8.9945,-9.0687,-9.1155,-9.1194,-9.1741,-9.2326,-9.2287,-9.2404,-9.2443,-9.2482,-9.2639,-9.2795,-9.3537,-9.3732,-9.4083,-9.4864,-9.5254,-9.5606,-9.6152,-9.6269,-9.6503,-9.7011,-9.6816,-9.6347,-9.6347,-9.6972,-9.7245,-9.7479,-9.7558,-9.7597,-9.7675,-9.7675,-9.7675,-9.7675,-9.7675,-9.7675,-9.7675,-9.7675,-9.7675,-9.7675,-9.7675,-9.7667,-9.7602,-9.7556,-9.7464,-8.7716,-8.8188,-8.854,-8.9203,-8.9867,-8.9594,-8.9164,-8.8657,-8.8305,-8.8149,-8.8188,-8.8149,-8.8383,-8.8735,-8.9242,-8.9672,-8.9984,-8.9984,-8.9984,-8.9984,-8.9984,-8.9984,-8.9984,-8.9984,-8.9984,-8.9945,-8.9477,-8.9047,-8.8657,-8.8188,-8.7755,-8.7443,-8.7404,-8.7404,-8.7404,-8.7404,-8.7404,-8.7404,-8.7404,-8.7404,-8.7404,-8.7401,-8.7393,-8.7393,-8.7386,-8.7343,-8.7421,-8.8201,-8.8674,-8.8713,-8.9493,-8.9966,-8.9934,-8.9934,-8.9977,-8.9984,-8.9984,-8.9984,-8.9984,-8.9984,-8.9984,-8.9984,-8.9984,-9.0179,-9.0726,-9.0765,-9.096,-9.135,-9.1038,-9.0765,-9.0843,-9.1507,-9.2014,-9.2053,-9.2326,-9.2522,-9.2522,-9.299,-9.3263,-9.3302,-9.3732,-9.4122,-9.4552,-9.502,-9.5449,-9.5918,-9.623,-9.6738,-9.7089,-9.7167,-9.7323,-9.7558,-9.7362,-9.7206,-9.7206,-9.744,-9.7675,-9.7675,-9.7675,-9.7675,-9.7753,-9.7714,-9.7675,-9.7714,-9.7714,-9.7714,-9.7675,-9.7675,-9.7675,-9.7675,-9.7675,-9.7667,-9.7607,-9.7572,-9.7552,-8.811,-8.8735,-8.9164,-8.9906,-9.0648,-9.0452,-8.9984,-8.9359,-8.893,-8.8813,-8.9047,-8.9047,-8.9203,-8.9477,-9.0101,-9.0452,-9.0687,-9.0687,-9.0687,-9.0687,-9.0687,-9.057,-9.0335,-9.0101,-8.9867,-8.9516,-8.8774,-8.8344,-8.8266,-8.7755,-8.7404,-8.7404,-8.7404,-8.7404,-8.7404,-8.7404,-8.7404,-8.7404,-8.7404,-8.7404,-8.7404,-8.7404,-8.7404,-8.7404,-8.7404,-8.7482,-8.7798,-8.8618,-8.9164,-8.9437,-9.0257,-9.0687,-9.0687,-9.0687,-9.0687,-9.0687,-9.0687,-9.0687,-9.0687,-9.0687,-9.0687,-9.069,-9.0687,-9.0921,-9.1467,-9.1624,-9.1897,-9.2326,-9.217,-9.1936,-9.1702,-9.2131,-9.2561,-9.2795,-9.2873,-9.2912,-9.3263,-9.381,-9.4161,-9.4239,-9.4591,-9.5215,-9.5488,-9.6152,-9.6699,-9.6816,-9.7284,-9.7675,-9.7675,-9.7675,-9.7675,-9.7675,-9.7675,-9.7675,-9.7675,-9.7675,-9.7714,-9.8026,-9.8143,-9.8221,-9.826,-9.8299,-9.8065,-9.8299,-9.7948,-9.7714,-9.7675,-9.7675,-9.7675,-9.7675,-9.7675,-9.7671,-9.7659,-9.7632,-9.7595,-8.8657,-8.8969,-9.0492,-9.1585,-9.2326,-9.1546,-9.1194,-9.0882,-8.9477,-8.9203,-8.9906,-8.9945,-9.0374,-9.1116,-9.1194,-9.1663,-9.2287,-9.2248,-9.2248,-9.2248,-9.2287,-9.1936,-9.1194,-9.0413,-8.9594,-8.893,-8.8032,-8.756,-8.7521,-8.7443,-8.7404,-8.7404,-8.7404,-8.7404,-8.7404,-8.7404,-8.7404,-8.7404,-8.7404,-8.7404,-8.7443,-8.7443,-8.7482,-8.756,-8.7404,-8.7759,-8.8579,-8.9477,-9.0296,-9.1116,-9.1858,-9.2326,-9.2326,-9.2326,-9.2287,-9.2287,-9.2326,-9.2326,-9.2287,-9.2248,-9.2248,-9.2287,-9.217,-9.2365,-9.2443,-9.2482,-9.2561,-9.2561,-9.3263,-9.3302,-9.2678,-9.2756,-9.3029,-9.3654,-9.3771,-9.4083,-9.4786,-9.4903,-9.502,-9.5059,-9.5215,-9.5645,-9.6308,-9.7089,-9.744,-9.7518,-9.7636,-9.7675,-9.7675,-9.7675,-9.7675,-9.7714,-9.7714,-9.7714,-9.7714,-9.7909,-9.8221,-9.8651,-9.9002,-9.9158,-9.947,-9.9627,-9.9197,-9.869,-9.8104,-9.7792,-9.7714,-9.7675,-9.7675,-9.7675,-9.7675,-9.7671,-9.7667,-9.765,-9.7622,-8.9359,-9.0452,-9.1585,-9.2248,-9.2443,-9.217,-9.178,-9.1233,-9.0648,-9.0531,-9.0765,-9.0804,-9.1311,-9.2053,-9.2053,-9.2248,-9.2482,-9.2482,-9.2482,-9.2482,-9.2482,-9.2326,-9.1975,-9.0687,-8.9867,-8.9359,-8.8071,-8.7404,-8.7404,-8.7404,-8.7404,-8.7404,-8.7404,-8.7404,-8.7404,-8.7404,-8.7404,-8.7404,-8.7404,-8.7638,-8.8188,-8.8227,-8.8501,-8.8969,-8.7954,-8.7798,-8.8657,-8.9555,-9.0413,-9.1272,-9.2053,-9.2482,-9.2482,-9.2482,-9.2482,-9.2482,-9.2482,-9.2482,-9.2482,-9.2482,-9.2482,-9.2482,-9.2482,-9.2795,-9.3185,-9.3341,-9.3537,-9.4044,-9.4395,-9.4434,-9.4278,-9.4161,-9.4278,-9.4552,-9.463,-9.4747,-9.5098,-9.5567,-9.5918,-9.5996,-9.6386,-9.6933,-9.7089,-9.7518,-9.7675,-9.7675,-9.7675,-9.7675,-9.7675,-9.7675,-9.7714,-9.7792,-9.8182,-9.8533,-9.8533,-9.8572,-9.8807,-9.947,-9.99,-9.9939,-10.0134,-9.9627,-9.9158,-9.9002,-9.8377,-9.7792,-9.7675,-9.7675,-9.7675,-9.7675,-9.7675,-9.7675,-9.7675,-9.7659,-9.7636,-8.9984,-9.1311,-9.217,-9.2482,-9.2482,-9.2482,-9.2209,-9.1663,-9.1428,-9.1428,-9.1585,-9.1428,-9.1741,-9.2404,-9.2482,-9.2482,-9.2482,-9.2482,-9.2482,-9.2482,-9.2482,-9.2482,-9.2209,-9.0804,-8.9984,-8.9711,-8.8227,-8.7404,-8.7404,-8.7404,-8.7404,-8.7404,-8.7677,-8.7837,-8.7837,-8.8071,-8.8266,-8.8266,-8.8266,-8.854,-8.9047,-8.9125,-8.9398,-8.9711,-8.8852,-8.8657,-8.9516,-9.0101,-9.0804,-9.1624,-9.2209,-9.2482,-9.2482,-9.2482,-9.2482,-9.2482,-9.2482,-9.2482,-9.2561,-9.2756,-9.2951,-9.2951,-9.3224,-9.3615,-9.4161,-9.42,-9.4512,-9.4981,-9.541,-9.5527,-9.5567,-9.5762,-9.5801,-9.5606,-9.5527,-9.5645,-9.5918,-9.6464,-9.6777,-9.6894,-9.7245,-9.7597,-9.7675,-9.7675,-9.7675,-9.7675,-9.7675,-9.7675,-9.7675,-9.7714,-9.787,-9.8104,-9.8612,-9.9236,-9.9666,-9.9939,-9.9939,-10.0485,-10.0681,-10.0759,-10.0642,-9.9939,-9.9353,-9.9197,-9.869,-9.7987,-9.7675,-9.7675,-9.7675,-9.7675,-9.7675,-9.7675,-9.7671,-9.7667,-9.7724,-9.0492,-9.135,-9.217,-9.2482,-9.2482,-9.2482,-9.2482,-9.2287,-9.1702,-9.178,-9.2209,-9.1702,-9.1858,-9.2365,-9.2482,-9.2482,-9.2482,-9.2482,-9.2482,-9.2482,-9.2482,-9.2482,-9.2404,-9.0882,-8.9984,-8.9789,-8.8266,-8.7482,-8.7521,-8.7638,-8.7677,-8.7677,-8.8383,-8.8735,-8.8735,-8.9359,-8.9828,-8.9789,-8.975,-8.9867,-8.9984,-9.0023,-9.0101,-9.0179,-9.0062,-9.0374,-9.1194,-9.1233,-9.1546,-9.2287,-9.2443,-9.2482,-9.2482,-9.2482,-9.2522,-9.26,-9.2561,-9.2561,-9.2717,-9.338,-9.381,-9.3888,-9.4512,-9.4903,-9.5059,-9.5098,-9.5176,-9.5488,-9.5996,-9.6386,-9.6542,-9.7011,-9.7167,-9.6582,-9.6386,-9.6699,-9.7323,-9.7597,-9.7675,-9.7597,-9.7675,-9.7675,-9.7675,-9.7675,-9.7675,-9.7675,-9.7675,-9.7675,-9.7714,-9.7792,-9.8143,-9.869,-9.9314,-9.9939,-10.0759,-10.1461,-10.1461,-10.15,-10.1539,-10.1578,-10.1539,-10.1071,-10.0134,-9.9705,-9.8494,-9.7831,-9.7675,-9.7675,-9.7675,-9.7675,-9.7675,-9.7831,-9.7983,-9.8096,-9.8049,-9.1077,-9.1389,-9.217,-9.2482,-9.2482,-9.2482,-9.2482,-9.2482,-9.2209,-9.2248,-9.2443,-9.2248,-9.2287,-9.2443,-9.2482,-9.2482,-9.2482,-9.2482,-9.2482,-9.2482,-9.2482,-9.2482,-9.2287,-9.1389,-9.0257,-8.9203,-8.8579,-8.8305,-8.8383,-8.8891,-8.9203,-8.9281,-8.9437,-8.9594,-8.9633,-8.9867,-8.9984,-8.9984,-8.9984,-9.0257,-9.0804,-9.0882,-9.1116,-9.1663,-9.1702,-9.1897,-9.2092,-9.1624,-9.1702,-9.2443,-9.2482,-9.2482,-9.2522,-9.2482,-9.2795,-9.3302,-9.338,-9.3693,-9.4239,-9.4512,-9.4708,-9.4747,-9.4981,-9.541,-9.5918,-9.5996,-9.6269,-9.6738,-9.7167,-9.7284,-9.7323,-9.7518,-9.7558,-9.7323,-9.7284,-9.7323,-9.7597,-9.7675,-9.7675,-9.7675,-9.7675,-9.7675,-9.7675,-9.7675,-9.7675,-9.7675,-9.7675,-9.7675,-9.7792,-9.8221,-9.8612,-9.9002,-9.9822,-10.0681,-10.1383,-10.193,-10.2125,-10.2086,-10.2125,-10.2164,-10.2164,-10.1735,-10.0837,-9.9744,-9.8572,-9.787,-9.7753,-9.7792,-9.787,-9.7831,-9.787,-9.8143,-9.8494,-9.8647,-9.8717,-9.1311,-9.1389,-9.217,-9.2482,-9.2482,-9.2482,-9.2482,-9.2482,-9.2482,-9.2482,-9.2482,-9.2482,-9.2482,-9.2482,-9.2482,-9.2482,-9.2482,-9.2482,-9.2482,-9.2482,-9.2482,-9.2482,-9.2404,-9.1663,-9.0609,-8.9437,-8.9164,-8.9164,-8.9203,-8.9711,-8.9984,-8.9984,-9.0296,-9.0492,-9.0531,-9.0765,-9.0921,-9.0921,-9.096,-9.1194,-9.1624,-9.1741,-9.1975,-9.2404,-9.2482,-9.2482,-9.2443,-9.2014,-9.1975,-9.2482,-9.2756,-9.3107,-9.338,-9.3497,-9.3732,-9.4122,-9.4317,-9.4512,-9.5059,-9.5371,-9.5567,-9.5606,-9.5879,-9.6269,-9.6777,-9.6894,-9.7206,-9.7558,-9.7675,-9.7675,-9.7675,-9.7675,-9.7675,-9.7675,-9.7675,-9.7675,-9.7675,-9.7675,-9.7675,-9.7675,-9.7675,-9.7675,-9.7675,-9.7675,-9.7675,-9.7675,-9.7675,-9.7909,-9.8143,-9.8651,-9.908,-9.9705,-10.0642,-10.1383,-10.1891,-10.232,-10.2711,-10.2672,-10.2633,-10.2593,-10.2593,-10.1774,-10.0876,-9.9627,-9.8416,-9.787,-9.7714,-9.8143,-9.8338,-9.826,-9.8338,-9.8963,-9.9509,-9.9509,-9.9541,-9.135,-9.1428,-9.217,-9.2482,-9.2482,-9.2482,-9.2482,-9.2482,-9.2482,-9.2482,-9.2482,-9.2482,-9.2482,-9.2482,-9.2482,-9.2482,-9.2482,-9.2482,-9.2482,-9.2482,-9.2482,-9.2482,-9.2404,-9.1663,-9.0843,-9.0179,-9.0062,-9.0062,-9.0101,-9.0296,-9.014,-9.0413,-9.0921,-9.1272,-9.1272,-9.2014,-9.2131,-9.2053,-9.2248,-9.2365,-9.2404,-9.2443,-9.2443,-9.2482,-9.2482,-9.2482,-9.2482,-9.2522,-9.2561,-9.2717,-9.3458,-9.4161,-9.4864,-9.5059,-9.4942,-9.5137,-9.5176,-9.5293,-9.5449,-9.6074,-9.6464,-9.6503,-9.705,-9.7675,-9.7558,-9.7518,-9.7558,-9.7675,-9.7675,-9.7753,-9.7792,-9.787,-9.787,-9.7792,-9.7792,-9.7714,-9.7675,-9.7675,-9.7675,-9.7675,-9.7675,-9.7675,-9.7675,-9.7675,-9.7675,-9.7675,-9.7714,-9.8026,-9.8651,-9.9197,-9.99,-10.0642,-10.1422,-10.1891,-10.2398,-10.2476,-10.2789,-10.2789,-10.2789,-10.2789,-10.2672,-10.1852,-10.0993,-9.9744,-9.8807,-9.8221,-9.8143,-9.8768,-9.908,-9.908,-9.947,-10.0134,-10.0368,-10.0368,-10.0524,-9.1819,-9.1428,-9.217,-9.2482,-9.2482,-9.2482,-9.2482,-9.2482,-9.2522,-9.2561,-9.2522,-9.2482,-9.26,-9.2522,-9.2561,-9.2482,-9.26,-9.2561,-9.2482,-9.2482,-9.2482,-9.2482,-9.2326,-9.1702,-9.1194,-9.096,-9.096,-9.096,-9.0999,-9.1467,-9.1741,-9.1819,-9.135,-9.1311,-9.1389,-9.1507,-9.1624,-9.1702,-9.2248,-9.2482,-9.2482,-9.2482,-9.2482,-9.2482,-9.2482,-9.2522,-9.26,-9.3146,-9.3458,-9.3537,-9.4278,-9.4825,-9.5176,-9.5215,-9.5488,-9.5957,-9.6074,-9.6386,-9.6894,-9.7167,-9.7323,-9.7362,-9.7518,-9.7675,-9.7675,-9.7675,-9.7675,-9.7675,-9.7714,-9.7987,-9.8494,-9.8651,-9.8651,-9.8572,-9.8143,-9.7753,-9.7675,-9.7675,-9.7675,-9.7675,-9.7675,-9.7675,-9.7675,-9.7675,-9.7675,-9.7675,-9.7831,-9.8104,-9.8963,-9.9744,-10.0446,-10.1227,-10.193,-10.2398,-10.2711,-10.275,-10.2789,-10.2789,-10.2789,-10.2789,-10.2554,-10.2008,-10.1149,-10.0173,-9.9744,-9.9197,-9.9431,-9.99,-9.9939,-9.9939,-10.0251,-10.072,-10.1071,-10.1188,-10.1578,-9.2248,-9.1858,-9.2326,-9.2482,-9.2482,-9.2482,-9.2482,-9.26,-9.2912,-9.3068,-9.3107,-9.3458,-9.3576,-9.3576,-9.3615,-9.3615,-9.3576,-9.3576,-9.3419,-9.299,-9.2678,-9.2522,-9.2365,-9.1975,-9.1819,-9.1819,-9.178,-9.178,-9.1858,-9.2287,-9.2326,-9.1897,-9.1546,-9.1116,-9.0765,-9.1155,-9.1311,-9.1467,-9.2053,-9.2482,-9.2482,-9.2482,-9.2482,-9.2482,-9.2522,-9.26,-9.3068,-9.3888,-9.4473,-9.4903,-9.5371,-9.5801,-9.6152,-9.6191,-9.6425,-9.6933,-9.6933,-9.7206,-9.7558,-9.7675,-9.7675,-9.7675,-9.7675,-9.7675,-9.7675,-9.7675,-9.7675,-9.7675,-9.7987,-9.8455,-9.8924,-9.9314,-9.9548,-9.9431,-9.8768,-9.8104,-9.7753,-9.7675,-9.7675,-9.7675,-9.7675,-9.7675,-9.7675,-9.7675,-9.7675,-9.7792,-9.8104,-9.869,-9.947,-10.0251,-10.1032,-10.1813,-10.2242,-10.2593,-10.275,-10.2789,-10.2789,-10.2789,-10.2789,-10.2789,-10.2554,-10.2164,-10.1539,-10.0915,-10.0563,-10.0368,-10.0524,-10.0681,-10.0798,-10.0876,-10.1071,-10.1383,-10.1774,-10.1852,-10.2242,-9.2482,-9.2482,-9.2482,-9.2482,-9.2482,-9.2482,-9.26,-9.2795,-9.3419,-9.381,-9.4044,-9.4747,-9.4825,-9.5098,-9.4747,-9.502,-9.502,-9.4825,-9.4356,-9.3654,-9.2951,-9.2482,-9.2482,-9.2209,-9.2092,-9.2092,-9.2287,-9.2053,-9.1858,-9.2053,-9.1819,-9.1233,-9.0999,-9.057,-9.0179,-9.0648,-9.1116,-9.1233,-9.2014,-9.2482,-9.2482,-9.2482,-9.2482,-9.2482,-9.2482,-9.3068,-9.3849,-9.4669,-9.5449,-9.6503,-9.6542,-9.6855,-9.7518,-9.7636,-9.7636,-9.7597,-9.7558,-9.7597,-9.7675,-9.7675,-9.7675,-9.7675,-9.7675,-9.7675,-9.7675,-9.7675,-9.7753,-9.7987,-9.8572,-9.9002,-9.9588,-10.0095,-10.0446,-10.0368,-9.9627,-9.8807,-9.8065,-9.7753,-9.7675,-9.7675,-9.7675,-9.7675,-9.7675,-9.7675,-9.7675,-9.7753,-9.826,-9.9041,-9.9861,-10.0642,-10.1539,-10.2437,-10.2672,-10.2711,-10.2789,-10.2789,-10.2789,-10.2789,-10.2789,-10.2789,-10.2672,-10.232,-10.193,-10.1539,-10.1461,-10.1227,-10.1032,-10.1227,-10.15,-10.1735,-10.1891,-10.2281,-10.2672,-10.2476,-10.2633,-9.2482,-9.2482,-9.2482,-9.2482,-9.2482,-9.2522,-9.2912,-9.3537,-9.3732,-9.4278,-9.4786,-9.5059,-9.5176,-9.5176,-9.5254,-9.5098,-9.5215,-9.5176,-9.463,-9.3771,-9.2912,-9.2522,-9.2365,-9.1936,-9.1624,-9.1467,-9.0843,-9.0609,-9.0609,-9.0726,-9.0492,-9.0296,-8.975,-8.9203,-8.9164,-8.9867,-9.0296,-9.0531,-9.1741,-9.2482,-9.2482,-9.2482,-9.2482,-9.2482,-9.2482,-9.3341,-9.4512,-9.4981,-9.584,-9.6972,-9.7401,-9.744,-9.7636,-9.7675,-9.7675,-9.7675,-9.7675,-9.7675,-9.7675,-9.7675,-9.7675,-9.7675,-9.7675,-9.7675,-9.7675,-9.7753,-9.8065,-9.8533,-9.8924,-9.9666,-10.0759,-10.1696,-10.1735,-10.1266,-10.0524,-9.9666,-9.8846,-9.8104,-9.7714,-9.7675,-9.7675,-9.7675,-9.7675,-9.7675,-9.7714,-9.7831,-9.8494,-9.9353,-10.0212,-10.111,-10.1891,-10.275,-10.2789,-10.2789,-10.2789,-10.2789,-10.2789,-10.2789,-10.2789,-10.2789,-10.2711,-10.2672,-10.232,-10.232,-10.2476,-10.2164,-10.1735,-10.2008,-10.2281,-10.2515,-10.2593,-10.2711,-10.2789,-10.2789,-10.2789,-9.2482,-9.2482,-9.2482,-9.2482,-9.2561,-9.2912,-9.338,-9.3927,-9.4708,-9.5254,-9.5723,-9.6074,-9.6308,-9.6347,-9.6308,-9.6347,-9.6191,-9.584,-9.5254,-9.4395,-9.3537,-9.2912,-9.2326,-9.1741,-9.1311,-9.1194,-9.0882,-9.0452,-9.0101,-8.9906,-8.9867,-8.9437,-8.8891,-8.854,-8.8383,-8.9359,-8.9984,-9.0374,-9.1624,-9.2482,-9.2482,-9.2482,-9.2482,-9.2482,-9.2561,-9.3302,-9.4903,-9.5098,-9.6035,-9.7206,-9.7675,-9.7675,-9.7675,-9.7675,-9.7675,-9.7675,-9.7675,-9.7675,-9.7675,-9.7675,-9.7675,-9.7714,-9.7714,-9.7948,-9.8182,-9.8299,-9.8729,-9.947,-10.0056,-10.0759,-10.193,-10.2398,-10.2476,-10.2125,-10.1344,-10.0524,-9.9627,-9.8494,-9.7675,-9.7675,-9.7675,-9.7675,-9.7675,-9.7753,-9.8104,-9.8299,-9.9197,-10.0056,-10.0876,-10.1696,-10.2164,-10.275,-10.2789,-10.2789,-10.2789,-10.2789,-10.2789,-10.2789,-10.2789,-10.2789,-10.275,-10.275,-10.275,-10.275,-10.2711,-10.275,-10.2476,-10.2789,-10.2789,-10.275,-10.2711,-10.2789,-10.2789,-10.2789,-10.2789,-9.2482,-9.2482,-9.2482,-9.2482,-9.2639,-9.3419,-9.3849,-9.4278,-9.5684,-9.6347,-9.6699,-9.7401,-9.744,-9.7597,-9.7558,-9.7636,-9.7401,-9.6699,-9.5762,-9.4903,-9.4044,-9.3107,-9.2287,-9.1624,-9.1038,-9.0999,-9.0609,-9.0218,-8.9633,-8.9555,-8.9008,-8.8579,-8.8501,-8.811,-8.7954,-8.9086,-8.9984,-9.0218,-9.1624,-9.2482,-9.2482,-9.2482,-9.2482,-9.2482,-9.2795,-9.3537,-9.4825,-9.5371,-9.6074,-9.7558,-9.7675,-9.7675,-9.7675,-9.7675,-9.7675,-9.7675,-9.7675,-9.7675,-9.7753,-9.787,-9.7987,-9.7909,-9.8104,-9.8455,-9.9002,-9.9236,-9.9666,-10.0368,-10.111,-10.1852,-10.2672,-10.2789,-10.2789,-10.2593,-10.2008,-10.1266,-10.0407,-9.9041,-9.8338,-9.7675,-9.7675,-9.7675,-9.7792,-9.7948,-9.8377,-9.8963,-9.9861,-10.072,-10.15,-10.2125,-10.2515,-10.2711,-10.2789,-10.2789,-10.2789,-10.2789,-10.2789,-10.2789,-10.2789,-10.2789,-10.2789,-10.2789,-10.2789,-10.2789,-10.2789,-10.2789,-10.2789,-10.2789,-10.2789,-10.2789,-10.2789,-10.2789,-10.2789,-10.2789,-10.2789,-9.2482,-9.2482,-9.2482,-9.2482,-9.2639,-9.3458,-9.4239,-9.4981,-9.5996,-9.6816,-9.744,-9.7636,-9.7675,-9.7675,-9.7675,-9.7675,-9.7479,-9.6894,-9.5996,-9.5059,-9.4161,-9.3107,-9.178,-9.1428,-9.0609,-8.9437,-8.9359,-8.9125,-8.8305,-8.7798,-8.8305,-8.7837,-8.7837,-8.7677,-8.8227,-8.9086,-9.0296,-9.0687,-9.1975,-9.2717,-9.2795,-9.2756,-9.2756,-9.2834,-9.3302,-9.4122,-9.502,-9.584,-9.666,-9.7558,-9.7675,-9.7675,-9.7714,-9.7714,-9.7792,-9.7792,-9.7831,-9.787,-9.8026,-9.8455,-9.8729,-9.8924,-9.9275,-9.9744,-10.0017,-10.0095,-10.0485,-10.1227,-10.1969,-10.2633,-10.275,-10.2789,-10.2789,-10.2593,-10.2164,-10.15,-10.111,-10.0368,-9.9197,-9.8299,-9.7987,-9.7909,-9.826,-9.8612,-9.908,-9.9666,-10.0407,-10.1071,-10.1735,-10.2242,-10.2672,-10.2789,-10.2789,-10.2789,-10.2789,-10.2789,-10.2789,-10.2789,-10.2789,-10.2789,-10.2789,-10.2789,-10.2789,-10.2789,-10.2789,-10.2789,-10.2789,-10.2789,-10.2789,-10.2789,-10.2789,-10.2789,-10.2789,-10.2789,-10.2789,-9.2482,-9.2482,-9.2482,-9.2482,-9.2717,-9.3927,-9.4708,-9.5254,-9.6464,-9.7323,-9.7597,-9.7675,-9.7675,-9.7675,-9.7675,-9.7675,-9.7558,-9.7323,-9.6308,-9.5176,-9.4161,-9.2912,-9.1428,-9.1311,-9.057,-8.9867,-8.975,-8.9281,-8.8266,-8.8657,-8.8618,-8.8774,-8.8735,-8.8969,-8.9594,-9.0726,-9.1428,-9.2053,-9.3068,-9.3771,-9.381,-9.381,-9.381,-9.3966,-9.42,-9.4903,-9.5684,-9.6074,-9.6816,-9.7518,-9.7675,-9.7675,-9.7831,-9.8104,-9.8377,-9.8377,-9.8377,-9.8612,-9.8924,-9.9509,-9.9666,-9.9705,-10.0134,-10.0524,-10.0798,-10.0993,-10.1305,-10.2008,-10.2398,-10.2789,-10.2789,-10.2789,-10.2789,-10.275,-10.2398,-10.1969,-10.1539,-10.1149,-10.0251,-9.9275,-9.9275,-9.9314,-9.9236,-9.9588,-9.9861,-10.0407,-10.1032,-10.1539,-10.2008,-10.2398,-10.2789,-10.2789,-10.2789,-10.2789,-10.2789,-10.2789,-10.2789,-10.2789,-10.2828,-10.2828,-10.2906,-10.2945,-10.2867,-10.2789,-10.2789,-10.3101,-10.2789,-10.2789,-10.2789,-10.2789,-10.2867,-10.2867,-10.2828,-10.2789,-10.2984,-9.2482,-9.2482,-9.2482,-9.2482,-9.2795,-9.4356,-9.5098,-9.5449,-9.6933,-9.7675,-9.7675,-9.7675,-9.7675,-9.7675,-9.7675,-9.7675,-9.7675,-9.7518,-9.6425,-9.5176,-9.42,-9.2912,-9.1702,-9.1194,-9.0804,-9.0101,-9.0687,-9.0452,-8.932,-8.9477,-8.9867,-8.9867,-9.0023,-9.0531,-9.1194,-9.2053,-9.3107,-9.381,-9.463,-9.5059,-9.5098,-9.5098,-9.5098,-9.5176,-9.5254,-9.5684,-9.623,-9.6621,-9.705,-9.7518,-9.7675,-9.7675,-9.7831,-9.8533,-9.908,-9.9236,-9.9236,-9.9666,-10.0056,-10.0485,-10.0524,-10.0524,-10.072,-10.1188,-10.1539,-10.1813,-10.2047,-10.2633,-10.2789,-10.2789,-10.2789,-10.2789,-10.2789,-10.2789,-10.275,-10.2593,-10.2125,-10.1774,-10.1618,-10.0993,-10.0876,-10.0485,-10.0173,-10.0407,-10.0642,-10.0954,-10.1578,-10.2008,-10.2437,-10.2515,-10.2789,-10.2789,-10.2789,-10.2789,-10.2789,-10.2789,-10.2789,-10.2789,-10.2867,-10.2906,-10.3062,-10.3218,-10.3218,-10.3413,-10.3648,-10.3843,-10.3335,-10.2828,-10.2789,-10.2828,-10.2945,-10.3101,-10.3296,-10.3608,-10.3921,-9.2482,-9.2482,-9.2482,-9.2482,-9.2756,-9.4356,-9.5098,-9.5332,-9.6933,-9.7675,-9.7675,-9.7675,-9.7675,-9.7675,-9.7675,-9.7675,-9.7479,-9.6933,-9.6152,-9.5098,-9.4083,-9.2834,-9.1507,-9.1311,-9.0882,-9.0452,-9.0999,-9.0726,-9.0335,-9.0296,-9.0218,-9.0413,-9.1116,-9.135,-9.2131,-9.3263,-9.3654,-9.4005,-9.4786,-9.5215,-9.5254,-9.5254,-9.5254,-9.541,-9.584,-9.6347,-9.6621,-9.705,-9.7558,-9.7597,-9.7675,-9.7675,-9.7831,-9.8533,-9.9392,-9.99,-10.0173,-10.0212,-10.0563,-10.1032,-10.1344,-10.15,-10.1891,-10.2437,-10.2476,-10.2476,-10.2554,-10.2711,-10.2789,-10.2789,-10.2789,-10.2789,-10.2789,-10.2789,-10.2789,-10.2789,-10.2515,-10.2281,-10.2125,-10.2164,-10.1813,-10.1227,-10.0759,-10.1071,-10.1422,-10.1735,-10.2086,-10.2476,-10.2711,-10.275,-10.2789,-10.2789,-10.2789,-10.2789,-10.2789,-10.2789,-10.2789,-10.2789,-10.2867,-10.3023,-10.3374,-10.3687,-10.4272,-10.4467,-10.4663,-10.4428,-10.3804,-10.3335,-10.2945,-10.3179,-10.3687,-10.3882,-10.396,-10.435,-10.4702,-9.2482,-9.2482,-9.2482,-9.2482,-9.2717,-9.4356,-9.5098,-9.5449,-9.6933,-9.7675,-9.7675,-9.7675,-9.7675,-9.7675,-9.7675,-9.7675,-9.7479,-9.6738,-9.5918,-9.4864,-9.3732,-9.2482,-9.1585,-9.1311,-9.0999,-9.1155,-9.1546,-9.2287,-9.1975,-9.2092,-9.2131,-9.2209,-9.299,-9.3849,-9.3771,-9.4825,-9.5527,-9.5996,-9.6425,-9.6582,-9.6582,-9.6542,-9.6542,-9.6542,-9.6933,-9.705,-9.7206,-9.744,-9.7675,-9.7675,-9.7675,-9.7675,-9.8065,-9.8885,-9.9978,-10.0251,-10.1266,-10.1696,-10.1813,-10.2047,-10.2125,-10.2242,-10.2554,-10.2711,-10.2789,-10.2789,-10.2789,-10.2789,-10.2789,-10.2789,-10.2789,-10.2789,-10.2789,-10.2789,-10.2789,-10.2789,-10.2789,-10.2789,-10.2672,-10.275,-10.275,-10.2047,-10.1539,-10.1813,-10.2047,-10.2203,-10.2398,-10.2593,-10.275,-10.2789,-10.2789,-10.2789,-10.2789,-10.2789,-10.2789,-10.2789,-10.2789,-10.2789,-10.2867,-10.314,-10.3765,-10.4233,-10.4897,-10.517,-10.517,-10.4819,-10.4272,-10.4194,-10.4155,-10.435,-10.4584,-10.4702,-10.4819,-10.4936,-10.5248,-9.2535,-9.2535,-9.2489,-9.2482,-9.2639,-9.4122,-9.4903,-9.5293,-9.6699,-9.7479,-9.7675,-9.7675,-9.7675,-9.7675,-9.7675,-9.7558,-9.7284,-9.6464,-9.5606,-9.4473,-9.3341,-9.2287,-9.1858,-9.1663,-9.178,-9.1936,-9.2522,-9.3185,-9.3888,-9.42,-9.4278,-9.42,-9.4747,-9.5488,-9.6152,-9.6503,-9.6855,-9.7284,-9.744,-9.7518,-9.7558,-9.7558,-9.7597,-9.7636,-9.7675,-9.7675,-9.7675,-9.7675,-9.7675,-9.7675,-9.7675,-9.7675,-9.7909,-9.9197,-10.0095,-10.0603,-10.1618,-10.2515,-10.2554,-10.2633,-10.2789,-10.2789,-10.2789,-10.2789,-10.2789,-10.2789,-10.2789,-10.2789,-10.2789,-10.2789,-10.2789,-10.2789,-10.2789,-10.2789,-10.2789,-10.2789,-10.2789,-10.2789,-10.2789,-10.2789,-10.2789,-10.2789,-10.2476,-10.2593,-10.2711,-10.275,-10.2789,-10.2789,-10.2789,-10.2789,-10.2789,-10.2789,-10.2789,-10.2789,-10.2789,-10.2789,-10.2789,-10.2906,-10.2984,-10.3491,-10.4311,-10.4975,-10.5599,-10.5717,-10.5834,-10.6068,-10.6068,-10.5717,-10.5404,-10.5248,-10.5209,-10.556,-10.5756,-10.5795,-10.599,-9.2601,-9.2599,-9.2538,-9.2486,-9.2564,-9.3458,-9.4356,-9.5144,-9.6117,-9.7015,-9.7643,-9.7678,-9.7682,-9.7639,-9.7522,-9.7171,-9.6503,-9.5606,-9.4786,-9.3927,-9.299,-9.2482,-9.2248,-9.2365,-9.2717,-9.3341,-9.3497,-9.4005,-9.4942,-9.5567,-9.5449,-9.5254,-9.5918,-9.623,-9.6582,-9.7011,-9.7206,-9.7479,-9.7479,-9.7636,-9.7675,-9.7675,-9.7675,-9.7675,-9.7675,-9.7675,-9.7675,-9.7675,-9.7675,-9.7675,-9.7675,-9.7675,-9.7987,-9.9392,-10.0212,-10.0642,-10.1852,-10.2672,-10.2789,-10.2789,-10.2789,-10.2789,-10.2789,-10.2789,-10.2789,-10.2789,-10.2789,-10.2789,-10.2789,-10.2789,-10.2789,-10.2789,-10.2789,-10.2789,-10.2789,-10.2789,-10.2789,-10.2789,-10.2789,-10.2789,-10.2789,-10.2789,-10.2789,-10.2789,-10.2789,-10.2789,-10.2789,-10.2789,-10.2789,-10.2789,-10.2789,-10.2789,-10.2789,-10.2789,-10.2789,-10.2828,-10.2867,-10.3218,-10.3452,-10.4233,-10.517,-10.5756,-10.6185,-10.6849,-10.7122,-10.7473,-10.7551,-10.681,-10.6185,-10.5834,-10.5834,-10.638,-10.6732,-10.6888,-10.7161,-9.2603,-9.2603,-9.2595,-9.2551,-9.2629,-9.3488,-9.4345,-9.5168,-9.6027,-9.6886,-9.7706,-9.7706,-9.7706,-9.7547,-9.707,-9.6755,-9.6205,-9.4867,-9.4204,-9.3654,-9.299,-9.2561,-9.2482,-9.2639,-9.2951,-9.3654,-9.3849,-9.463,-9.584,-9.623,-9.623,-9.623,-9.6582,-9.7089,-9.7323,-9.6894,-9.6855,-9.6894,-9.6972,-9.7089,-9.7675,-9.7675,-9.7675,-9.7675,-9.7675,-9.7675,-9.7675,-9.7675,-9.7675,-9.7675,-9.7636,-9.7675,-9.7987,-9.947,-10.0212,-10.0524,-10.1969,-10.2633,-10.2789,-10.2789,-10.2789,-10.2789,-10.2789,-10.2789,-10.2789,-10.2789,-10.2789,-10.2789,-10.2789,-10.2789,-10.2789,-10.2789,-10.2789,-10.2789,-10.2789,-10.2789,-10.2789,-10.2789,-10.2789,-10.2789,-10.2789,-10.2789,-10.2789,-10.2789,-10.2789,-10.2789,-10.2789,-10.2789,-10.2789,-10.2789,-10.2789,-10.2789,-10.2789,-10.2789,-10.2789,-10.2867,-10.3023,-10.3452,-10.3921,-10.4858,-10.5795,-10.6185,-10.6693,-10.7512,-10.802,-10.7903,-10.7708,-10.7395,-10.7044,-10.681,-10.6966,-10.7395,-10.7669,-10.7786,-10.7864,-9.2337,-9.2571,-9.2298,-9.2373,-9.2681,-9.3267,-9.4126,-9.5102,-9.5726,-9.6665,-9.768,-9.768,-9.7524,-9.721,-9.6735,-9.5949,-9.5399,-9.4418,-9.3823,-9.3273,-9.2844,-9.2528,-9.2525,-9.2639,-9.2951,-9.3654,-9.42,-9.4981,-9.5801,-9.623,-9.6113,-9.6152,-9.6582,-9.6699,-9.6621,-9.6386,-9.6035,-9.5996,-9.6074,-9.623,-9.6855,-9.6855,-9.6816,-9.6777,-9.6738,-9.6738,-9.6699,-9.6699,-9.6933,-9.7089,-9.7284,-9.7597,-9.8377,-9.9314,-10.0251,-10.1032,-10.1813,-10.275,-10.2789,-10.2789,-10.2789,-10.2789,-10.2789,-10.2789,-10.2789,-10.2789,-10.2789,-10.2789,-10.2789,-10.2789,-10.2789,-10.2789,-10.2789,-10.2789,-10.2789,-10.2789,-10.2789,-10.2789,-10.2789,-10.2789,-10.2789,-10.2789,-10.2789,-10.2789,-10.2789,-10.2789,-10.2789,-10.2789,-10.2789,-10.2789,-10.2789,-10.2789,-10.2789,-10.2789,-10.2789,-10.3179,-10.3569,-10.3999,-10.4545,-10.5443,-10.6224,-10.6653,-10.7083,-10.7708,-10.802,-10.802,-10.7864,-10.7669,-10.7747,-10.7864,-10.7903,-10.7825,-10.7864,-10.7903,-10.7942,-9.1836,-9.2461,-9.1719,-9.1833,-9.2567,-9.2603,-9.3581,-9.5065,-9.5417,-9.6276,-9.7606,-9.7643,-9.7174,-9.6627,-9.6237,-9.5376,-9.4437,-9.3927,-9.3454,-9.2822,-9.27,-9.2538,-9.2528,-9.2603,-9.2951,-9.381,-9.4317,-9.4786,-9.5254,-9.584,-9.5801,-9.5254,-9.5176,-9.5254,-9.5137,-9.5176,-9.5137,-9.5137,-9.5137,-9.5254,-9.5449,-9.5567,-9.5567,-9.5606,-9.5606,-9.5684,-9.5684,-9.5879,-9.6269,-9.6855,-9.7089,-9.7714,-9.8963,-9.9861,-10.0681,-10.1383,-10.2242,-10.275,-10.2789,-10.2789,-10.2789,-10.2789,-10.2789,-10.2789,-10.2789,-10.2789,-10.2789,-10.2789,-10.2789,-10.2789,-10.2789,-10.2789,-10.2789,-10.2789,-10.2789,-10.2789,-10.2789,-10.2789,-10.2789,-10.2789,-10.2789,-10.2789,-10.2789,-10.2789,-10.2789,-10.2789,-10.2789,-10.2789,-10.2789,-10.2789,-10.2789,-10.2789,-10.2789,-10.3023,-10.3179,-10.3687,-10.4116,-10.4545,-10.517,-10.6068,-10.6771,-10.7278,-10.7669,-10.7981,-10.802,-10.802,-10.802,-10.7981,-10.802,-10.802,-10.802,-10.7981,-10.802,-10.802,-10.802,-9.1836,-9.25,-9.164,-9.1796,-9.2537,-9.2577,-9.3554,-9.5194,-9.6287,-9.7148,-9.7459,-9.7186,-9.6795,-9.6248,-9.5269,-9.4485,-9.3938,-9.3151,-9.2716,-9.2638,-9.2593,-9.2585,-9.2577,-9.2606,-9.2954,-9.3654,-9.42,-9.463,-9.5137,-9.5449,-9.4981,-9.4395,-9.3888,-9.3732,-9.4083,-9.4239,-9.4239,-9.4239,-9.4278,-9.4473,-9.4981,-9.502,-9.502,-9.502,-9.5059,-9.5137,-9.5254,-9.5606,-9.6386,-9.7206,-9.7558,-9.8572,-9.9705,-10.0642,-10.1188,-10.1657,-10.232,-10.2789,-10.2789,-10.2789,-10.2789,-10.2789,-10.2789,-10.2789,-10.2789,-10.2789,-10.2789,-10.2789,-10.2789,-10.2789,-10.2789,-10.2789,-10.2789,-10.2789,-10.2789,-10.2789,-10.2789,-10.2789,-10.2789,-10.2789,-10.2789,-10.2789,-10.2789,-10.2789,-10.2789,-10.2789,-10.2789,-10.2789,-10.2789,-10.2789,-10.2789,-10.2789,-10.2867,-10.3218,-10.3569,-10.4194,-10.4975,-10.556,-10.6068,-10.6693,-10.7317,-10.7786,-10.7903,-10.802,-10.802,-10.802,-10.802,-10.802,-10.802,-10.802,-10.802,-10.802,-10.802,-10.802,-10.802,-9.1172,-9.1601,-9.1094,-9.1367,-9.2109,-9.2461,-9.3594,-9.5312,-9.6914,-9.7695,-9.7539,-9.6875,-9.6289,-9.5703,-9.4648,-9.3592,-9.3435,-9.2926,-9.2609,-9.2608,-9.2603,-9.2597,-9.259,-9.258,-9.2808,-9.3348,-9.3693,-9.4044,-9.4044,-9.4473,-9.4122,-9.3419,-9.2834,-9.299,-9.3263,-9.3341,-9.3341,-9.3341,-9.338,-9.3537,-9.3927,-9.4122,-9.4278,-9.4591,-9.4903,-9.5254,-9.5684,-9.6386,-9.7245,-9.8065,-9.8768,-9.9588,-10.0524,-10.1149,-10.1657,-10.2047,-10.2398,-10.2789,-10.2789,-10.2789,-10.2789,-10.2789,-10.2789,-10.2789,-10.2789,-10.2789,-10.2789,-10.2789,-10.2789,-10.2789,-10.2789,-10.2789,-10.2789,-10.2789,-10.2789,-10.2789,-10.2789,-10.2789,-10.2789,-10.2789,-10.2789,-10.2789,-10.2789,-10.2789,-10.2789,-10.2789,-10.2789,-10.2828,-10.2828,-10.2789,-10.2867,-10.2945,-10.314,-10.3608,-10.4155,-10.4897,-10.5678,-10.6536,-10.6966,-10.7317,-10.7551,-10.7942,-10.7981,-10.802,-10.802,-10.802,-10.802,-10.802,-10.8016,-10.802,-10.802,-10.802,-10.802,-10.8016,-10.7977,-9.0,-9.0,-9.0,-9.0547,-9.1406,-9.2461,-9.375,-9.5351,-9.6992,-9.7656,-9.7578,-9.6719,-9.5898,-9.5078,-9.4179,-9.3398,-9.2851,-9.2656,-9.2616,-9.2575,-9.2611,-9.2609,-9.2603,-9.2593,-9.2702,-9.2931,-9.3198,-9.3267,-9.2759,-9.338,-9.3302,-9.2873,-9.2795,-9.2873,-9.2951,-9.3146,-9.3107,-9.3146,-9.3068,-9.3302,-9.3654,-9.3458,-9.4083,-9.463,-9.5215,-9.5879,-9.6503,-9.7284,-9.8143,-9.8768,-9.9236,-10.0212,-10.0993,-10.1539,-10.2086,-10.2515,-10.2789,-10.2789,-10.2789,-10.2789,-10.2789,-10.2789,-10.2789,-10.2789,-10.2789,-10.2789,-10.2789,-10.2789,-10.2789,-10.2789,-10.2789,-10.2789,-10.2789,-10.2789,-10.2789,-10.2789,-10.2789,-10.2789,-10.2789,-10.2789,-10.2789,-10.2789,-10.2789,-10.2789,-10.2789,-10.2789,-10.2828,-10.3023,-10.3023,-10.2828,-10.2945,-10.3257,-10.353,-10.4077,-10.4741,-10.556,-10.6224,-10.7083,-10.7434,-10.7786,-10.7981,-10.802,-10.802,-10.802,-10.802,-10.802,-10.802,-10.8016,-10.8016,-10.8016,-10.7972,-10.7972,-10.7968,-10.7968,-10.7968,-8.9453,-9.0,-9.0,-9.0508,-9.1562,-9.3554,-9.4765,-9.539,-9.6953,-9.7422,-9.6797,-9.5937,-9.5117,-9.4219,-9.3359,-9.289,-9.2695,-9.2578,-9.2578,-9.2577,-9.2576,-9.2574,-9.261,-9.2605,-9.2595,-9.2666,-9.2814,-9.2883,-9.2681,-9.2912,-9.2951,-9.26,-9.3185,-9.3341,-9.3615,-9.4044,-9.3849,-9.3693,-9.3615,-9.381,-9.4356,-9.4747,-9.5215,-9.5762,-9.6503,-9.7167,-9.7636,-9.8377,-9.9197,-9.9822,-10.0485,-10.1383,-10.2242,-10.2437,-10.2672,-10.2711,-10.2789,-10.2789,-10.2789,-10.2789,-10.2789,-10.2789,-10.2789,-10.2789,-10.2789,-10.2789,-10.2789,-10.2789,-10.2789,-10.2789,-10.2789,-10.2789,-10.2789,-10.2789,-10.2789,-10.2789,-10.2789,-10.2789,-10.2789,-10.2789,-10.2789,-10.2789,-10.2789,-10.2789,-10.2789,-10.2789,-10.2906,-10.3179,-10.3296,-10.314,-10.3335,-10.3687,-10.4194,-10.478,-10.556,-10.638,-10.6966,-10.7512,-10.7825,-10.802,-10.802,-10.802,-10.802,-10.802,-10.802,-10.802,-10.802,-10.8016,-10.7972,-10.792,-10.7915,-10.7915,-10.7915,-10.791,-10.79,-8.8828,-8.914,-9.0117,-9.1406,-9.3047,-9.4883,-9.5703,-9.5937,-9.6797,-9.6914,-9.6367,-9.5234,-9.4375,-9.3867,-9.3086,-9.2617,-9.2617,-9.2578,-9.2578,-9.2578,-9.2578,-9.2577,-9.2576,-9.2611,-9.2605,-9.2597,-9.2588,-9.2616,-9.2645,-9.2951,-9.3068,-9.3146,-9.3888,-9.42,-9.4552,-9.5059,-9.5527,-9.5332,-9.5176,-9.5215,-9.5801,-9.6542,-9.6972,-9.7558,-9.826,-9.8729,-9.9197,-9.9939,-10.0681,-10.1227,-10.1852,-10.2164,-10.275,-10.2789,-10.2789,-10.2789,-10.2789,-10.2789,-10.2789,-10.2789,-10.2789,-10.2789,-10.275,-10.2789,-10.2789,-10.2789,-10.2789,-10.2789,-10.2789,-10.2789,-10.2789,-10.2789,-10.2789,-10.2789,-10.2789,-10.2789,-10.2789,-10.2789,-10.2789,-10.2789,-10.2789,-10.2789,-10.2789,-10.2789,-10.2828,-10.2906,-10.3179,-10.3608,-10.3726,-10.3648,-10.4038,-10.4506,-10.5053,-10.5638,-10.638,-10.7005,-10.7395,-10.7747,-10.7864,-10.802,-10.802,-10.802,-10.802,-10.802,-10.802,-10.8016,-10.7977,-10.7968,-10.7959,-10.7905,-10.7838,-10.7821,-10.7814,-10.7853,-10.784,-8.8359,-8.8047,-9.0429,-9.2969,-9.5195,-9.6094,-9.6445,-9.6484,-9.6406,-9.6406,-9.6015,-9.4648,-9.3906,-9.3515,-9.289,-9.2617,-9.2578,-9.2578,-9.2578,-9.2578,-9.2578,-9.2578,-9.2578,-9.2577,-9.2611,-9.2605,-9.2634,-9.27,-9.2919,-9.338,-9.3927,-9.3966,-9.4747,-9.5254,-9.5645,-9.6386,-9.705,-9.7558,-9.7362,-9.7284,-9.7206,-9.7675,-9.8377,-9.9158,-10.0017,-10.0759,-10.1461,-10.2164,-10.2789,-10.2789,-10.275,-10.275,-10.275,-10.2789,-10.2789,-10.2593,-10.2476,-10.232,-10.2242,-10.2164,-10.2281,-10.2398,-10.2633,-10.2515,-10.2437,-10.2711,-10.2789,-10.2789,-10.2789,-10.2789,-10.2789,-10.2789,-10.2789,-10.2789,-10.2789,-10.2789,-10.2789,-10.2789,-10.2789,-10.2789,-10.2789,-10.2789,-10.2789,-10.2789,-10.3062,-10.3101,-10.3413,-10.3921,-10.4506,-10.4467,-10.4819,-10.5404,-10.5756,-10.6263,-10.6888,-10.7395,-10.7747,-10.7981,-10.802,-10.802,-10.802,-10.802,-10.802,-10.8016,-10.7977,-10.7972,-10.7968,-10.7954,-10.7894,-10.7827,-10.7795,-10.7752,-10.7737,-10.773,-10.7722,-8.8984,-8.9648,-9.2187,-9.4414,-9.6094,-9.6406,-9.6523,-9.6406,-9.5781,-9.5547,-9.5273,-9.4375,-9.3515,-9.2969,-9.2773,-9.2578,-9.2578,-9.2578,-9.2578,-9.2578,-9.2578,-9.2578,-9.2578,-9.2578,-9.2617,-9.2611,-9.2681,-9.3054,-9.3582,-9.4278,-9.4825,-9.4903,-9.5723,-9.6425,-9.7011,-9.7831,-9.8768,-9.9431,-9.9783,-9.9548,-9.9392,-10.0017,-10.0798,-10.111,-10.1657,-10.2008,-10.2476,-10.2593,-10.2789,-10.2789,-10.2789,-10.2789,-10.2789,-10.2789,-10.2437,-10.2008,-10.1852,-10.1578,-10.1305,-10.1188,-10.1227,-10.1305,-10.1422,-10.1696,-10.1969,-10.2476,-10.275,-10.275,-10.2789,-10.2789,-10.2789,-10.2789,-10.2789,-10.2789,-10.2789,-10.2789,-10.2789,-10.2789,-10.2789,-10.2789,-10.2789,-10.2789,-10.2789,-10.2945,-10.3218,-10.3491,-10.3765,-10.4389,-10.556,-10.5951,-10.5951,-10.6341,-10.6341,-10.681,-10.7395,-10.7669,-10.7903,-10.802,-10.802,-10.802,-10.802,-10.802,-10.802,-10.7972,-10.7968,-10.7963,-10.7949,-10.7922,-10.786,-10.7781,-10.773,-10.7672,-10.7607,-10.7588,-10.7627,-8.9765,-9.0859,-9.3398,-9.5469,-9.6836,-9.7031,-9.6836,-9.6367,-9.5586,-9.4961,-9.4531,-9.375,-9.3047,-9.2617,-9.2617,-9.2578,-9.2578,-9.2578,-9.2578,-9.2578,-9.2578,-9.2578,-9.2578,-9.2656,-9.2969,-9.3043,-9.3579,-9.4069,-9.448,-9.5176,-9.5723,-9.5918,-9.6777,-9.7753,-9.8455,-9.9392,-10.0251,-10.0837,-10.1657,-10.1696,-10.1305,-10.1774,-10.2047,-10.232,-10.2476,-10.2789,-10.2789,-10.2789,-10.2789,-10.2789,-10.2789,-10.2789,-10.2672,-10.2359,-10.2008,-10.1578,-10.1227,-10.0759,-10.0407,-10.0212,-10.0173,-10.0368,-10.0563,-10.0954,-10.1578,-10.2086,-10.2437,-10.2515,-10.275,-10.2789,-10.2789,-10.2789,-10.2789,-10.2789,-10.2789,-10.2789,-10.2789,-10.2789,-10.2789,-10.2789,-10.2789,-10.2789,-10.2789,-10.2789,-10.3179,-10.3882,-10.4194,-10.4975,-10.6107,-10.7005,-10.7122,-10.7161,-10.7122,-10.7239,-10.7708,-10.7864,-10.7942,-10.802,-10.802,-10.802,-10.802,-10.802,-10.8016,-10.7968,-10.791,-10.7894,-10.7877,-10.784,-10.7799,-10.7744,-10.7645,-10.7578,-10.7544,-10.7476,-10.7452,-9.082,-9.207,-9.4492,-9.6328,-9.7578,-9.7695,-9.7148,-9.6289,-9.5508,-9.4609,-9.375,-9.2969,-9.2617,-9.2578,-9.2578,-9.2578,-9.2578,-9.2578,-9.2578,-9.2578,-9.2578,-9.2578,-9.2656,-9.2812,-9.3359,-9.4097,-9.4749,-9.5009,-9.53,-9.6078,-9.6699,-9.7011,-9.7948,-9.9119,-9.9705,-10.0524,-10.1422,-10.1735,-10.2242,-10.2633,-10.275,-10.2789,-10.2711,-10.275,-10.2789,-10.2789,-10.2789,-10.2789,-10.2789,-10.2789,-10.275,-10.2593,-10.2359,-10.193,-10.1344,-10.0915,-10.0368,-10.0017,-9.9744,-9.9627,-9.9705,-9.9861,-10.0056,-10.0485,-10.1071,-10.1657,-10.2008,-10.2437,-10.2711,-10.2789,-10.2789,-10.2789,-10.2789,-10.2789,-10.2789,-10.2789,-10.2789,-10.2789,-10.2789,-10.2789,-10.2789,-10.2789,-10.2789,-10.2789,-10.3257,-10.4038,-10.4819,-10.5717,-10.6536,-10.7161,-10.759,-10.7629,-10.7629,-10.7825,-10.802,-10.802,-10.802,-10.802,-10.802,-10.802,-10.8016,-10.7972,-10.7963,-10.791,-10.7894,-10.7814,-10.7774,-10.7769,-10.7719,-10.7656,-10.7597,-10.7471,-10.7377,-10.734,-10.7259,-9.2383,-9.4609,-9.6484,-9.7422,-9.7695,-9.7695,-9.6875,-9.5547,-9.5312,-9.4336,-9.3203,-9.2812,-9.2578,-9.2578,-9.2578,-9.2578,-9.2578,-9.2578,-9.2578,-9.2578,-9.2734,-9.2695,-9.2929,-9.3594,-9.4179,-9.4956,-9.569,-9.6071,-9.6286,-9.7018,-9.7792,-9.8377,-9.8572,-9.9705,-10.0954,-10.1618,-10.1891,-10.2281,-10.2515,-10.2789,-10.2789,-10.2789,-10.2789,-10.2789,-10.2789,-10.2789,-10.2789,-10.2789,-10.2789,-10.2789,-10.275,-10.2437,-10.1969,-10.15,-10.0837,-9.9978,-9.947,-9.9041,-9.8807,-9.8651,-9.8651,-9.8651,-9.8963,-9.9783,-10.0524,-10.1305,-10.1852,-10.2593,-10.2789,-10.2789,-10.2789,-10.2789,-10.2789,-10.2789,-10.2789,-10.2789,-10.2789,-10.2789,-10.2789,-10.2789,-10.2789,-10.2789,-10.2789,-10.2906,-10.3218,-10.396,-10.4702,-10.556,-10.6575,-10.7278,-10.7942,-10.7981,-10.7981,-10.802,-10.802,-10.802,-10.802,-10.802,-10.8016,-10.7977,-10.7972,-10.792,-10.7905,-10.7877,-10.7795,-10.7745,-10.7697,-10.7636,-10.7558,-10.7522,-10.7449,-10.7404,-10.7286,-10.7188,-10.7099]},{"header":{"parameterUnit":"m.s-1","parameterCategory":1,"la1":31.0,"la2":29.5877,"lo1":-88.7671,"lo2":-86.6584,"dx":0.0162,"dy":0.0185,"nx":115,"ny":88,"refTime":"2023-01-15T06:00:00:Z","depth":0,"parameterNumber":3,"parameterNumberName":"V-component_of_WINDS"},"data":[0.0,0.0,0.0,0.0,0.0,0.0,0.0,0.0,0.0,0.0,0.0,0.0,0.0,0.0,0.0,0.0,0.0,0.0,0.0,0.0,0.0,0.0,0.0,0.0,0.0,0.0,0.0,0.0,0.0,0.0,0.0,0.0,0.0,0.0,0.0,0.0,0.0,0.0,0.0,0.0,0.0,0.0,0.0,0.0,0.0,0.0,0.0,0.0,0.0,0.0,0.0,0.0,0.0,0.0,0.0,0.0,0.0,0.0,0.0,0.0,0.0,0.0,0.0,0.0,0.0,0.0,0.0,0.0,0.0,0.0,0.0,0.0,0.0,0.0,0.0,0.0,0.0,0.0,0.0,0.0,0.0,0.0,0.0,0.0,0.0,0.0,0.0,0.0,0.0,0.0,0.0,0.0,0.0,0.0,0.0,0.0,0.0,0.0,0.0,0.0,0.0,0.0,0.0,0.0,0.0,0.0,0.0,0.0,0.0,0.0,0.0,0.0,0.0,0.0,0.0,0.0,0.0,0.0,0.0,0.0,0.0,0.0,0.0,0.0,0.0,0.0,0.0,0.0,0.0,0.0,0.0,0.0,0.0,0.0,0.0,0.0,0.0,0.0,0.0,0.0,0.0,0.0,0.0,0.0,0.0,0.0,0.0,0.0,0.0,0.0,0.0,0.0,0.0,0.0,0.0,0.0,0.0,0.0,0.0,0.0,0.0,0.0,0.0,0.0,0.0,0.0,0.0,0.0,0.0,0.0,0.0,0.0,0.0,0.0,0.0,0.0,0.0,0.0,0.0,0.0,0.0,0.0,0.0,0.0,0.0,0.0,0.0,0.0,0.0,0.0,0.0,0.0,0.0,0.0,0.0,0.0,0.0,0.0,0.0,0.0,0.0,0.0,0.0,0.0,0.0,0.0,0.0,0.0,0.0,0.0,0.0,0.0,0.0,0.0,0.0,0.0,0.0,0.0,0.0,0.0,0.0,0.0,0.0,0.0,0.0,0.0,0.0,0.0,0.0,0.0,0.0,0.0,0.0,0.0,0.0,0.0,0.0,0.0,0.0,0.0,0.0,0.0,0.0,0.0,0.0,0.0,0.0,0.0,0.0,0.0,0.0,0.0,0.0,0.0,0.0,0.0,0.0,0.0,0.0,0.0,0.0,0.0,0.0,0.0,0.0,0.0,0.0,0.0,0.0,0.0,0.0,0.0,0.0,0.0,0.0,0.0,0.0,0.0,0.0,0.0,0.0,0.0,0.0,0.0,0.0,0.0,0.0,0.0,0.0,0.0,0.0,0.0,0.0,0.0,0.0,0.0,0.0,0.0,0.0,0.0,0.0,0.0,0.0,0.0,0.0,0.0,0.0,0.0,0.0,0.0,0.0,0.0,0.0,0.0,0.0,0.0,0.0,0.0,0.0,0.0,0.0,0.0,0.0,0.0,0.0,0.0,0.0,0.0,0.0,0.0,0.0,0.0,0.0,0.0,0.0,0.0,0.0,0.0,0.0,0.0,0.0,0.0,0.0,0.0,0.0,0.0,0.0,0.0,0.0,0.0,0.0,0.0,0.0,0.0,0.0,0.0,0.0,0.0,0.0,0.0,0.0,0.0,0.0,0.0,0.0,0.0,0.0,0.0,0.0,0.0,0.0,0.0,0.0,0.0,0.0,0.0,0.0,0.0,0.0,0.0,0.0,0.0,0.0,0.0,0.0,0.0,0.0,0.0,0.0,0.0,0.0,0.0,0.0,0.0,0.0,0.0,0.0,0.0,0.0,0.0,0.0,0.0,0.0,0.0,0.0,0.0,0.0,0.0,0.0,0.0,0.0,0.0,0.0,0.0,0.0,0.0,0.0,0.0,0.0,0.0,0.0,0.0,0.0,0.0,0.0,0.0,0.0,0.0,0.0,0.0,0.0,0.0,0.0,0.0,0.0,0.0,0.0,0.0,0.0,0.0,0.0,0.0,0.0,0.0,0.0,0.0,0.0,0.0,0.0,0.0,0.0,0.0,0.0,0.0,0.0,0.0,0.0,0.0,0.0,0.0,0.0,0.0,0.0,0.0,0.0,0.0,0.0,0.0,0.0,0.0,0.0,0.0,0.0,0.0,0.0,0.0,0.0,0.0,0.0,0.0,0.0,0.0,0.0,0.0,0.0,0.0,0.0,0.0,0.0,0.0,0.0,0.0,0.0,0.0,0.0,0.0,0.0,0.0,0.0,0.0,0.0,0.0,0.0,0.0,0.0,0.0,0.0,0.0,0.0,0.0,0.0,0.0,0.0,0.0,0.0,0.0,0.0,0.0,0.0,0.0,0.0,0.0,0.0,0.0,0.0,0.0,0.0,0.0,0.0,0.0,0.0,0.0,0.0,0.0,0.0,0.0,0.0,0.0,0.0,0.0,0.0,0.0,0.0,0.0,0.0,0.0,0.0,0.0,0.0,0.0,0.0,0.0,0.0,0.0,0.0,0.0,0.0,0.0,0.0,0.0,0.0,0.0,0.0,0.0,0.0,0.0,0.0,0.0,0.0,0.0,0.0,0.0,0.0,0.0,0.0,0.0,0.0,0.0,0.0,0.0,0.0,0.0,0.0,0.0,0.0,0.0,0.0,0.0,0.0,0.0,0.0,0.0,0.0,0.0,0.0,0.0,0.0,0.0,0.0,0.0,0.0,0.0,0.0,0.0,0.0,0.0,0.0,0.0,0.0,0.0,0.0,0.0,0.0,0.0,0.0,0.0,0.0,0.0,0.0,0.0,0.0,0.0,0.0,0.0,0.0,0.0,0.0,0.0,0.0,0.0,0.0,0.0,0.0,0.0,0.0,0.0,0.0,0.0,0.0,0.0,0.0,0.0,0.0,0.0,0.0,0.0,0.0,0.0,0.0,0.0,0.0,0.0,0.0,0.0,0.0,0.0,0.0,0.0,0.0,0.0,0.0,0.0,0.0,0.0,0.0,0.0,0.0,0.0,0.0,0.0,0.0,0.0,0.0,0.0,0.0,0.0,0.0,0.0,0.0,0.0,0.0,0.0,0.0,0.0,0.0,0.0,0.0,0.0,0.0,0.0,0.0,0.0,0.0,0.0,0.0,0.0,0.0,0.0,0.0,0.0,0.0,0.0,0.0,0.0,0.0,0.0,0.0,0.0,0.0,0.0,0.0,0.0,0.0,0.0,0.0,0.0,0.0,0.0,0.0,0.0,0.0,0.0,0.0,0.0,0.0,0.0,0.0,0.0,0.0,0.0,0.0,0.0,0.0,0.0,0.0,0.0,0.0,0.0,0.0,0.0,0.0,0.0,0.0,0.0,0.0,0.0,0.0,0.0,0.0,0.0,0.0,0.0,0.0,0.0,0.0,0.0,0.0,0.0,0.0,0.0,0.0,0.0,0.0,0.0,0.0,0.0,0.0,0.0,0.0,0.0,0.0,0.0,0.0,0.0,0.0,0.0,0.0,0.0,0.0,0.0,0.0,0.0,0.0,0.0,0.0,0.0,0.0,0.0,0.0,0.0,0.0,0.0,0.0,0.0,0.0,0.0,0.0,0.0,0.0,0.0,0.0,0.0,0.0,0.0,0.0,0.0,0.0,0.0,0.0,0.0,0.0,0.0,0.0,0.0,0.0,0.0,0.0,0.0,0.0,0.0,0.0,0.0,0.0,0.0,0.0,0.0,0.0,0.0,0.0,0.0,0.0,0.0,0.0,0.0,0.0,0.0,0.0,0.0,0.0,0.0,0.0,0.0,0.0,0.0,0.0,0.0,0.0,0.0,0.0,0.0,0.0,0.0,0.0,0.0,0.0,0.0,0.0,0.0,0.0,0.0,0.0,0.0,0.0,0.0,0.0,0.0,0.0,0.0,0.0,0.0,0.0,0.0,0.0,0.0,0.0,0.0,0.0,0.0,0.0,0.0,0.0,0.0,0.0,0.0,0.0,0.0,0.0,0.0,0.0,0.0,0.0,0.0,0.0,0.0,0.0,0.0,0.0,0.0,0.0,0.0,0.0,0.0,0.0,0.0,0.0,0.0,0.0,0.0,0.0,0.0,0.0,0.0,0.0,0.0,0.0,0.0,0.0,0.0,0.0,0.0,0.0,0.0,0.0,0.0,0.0,0.0,0.0,0.0,0.0,0.0,0.0,0.0,0.0,0.0,0.0,0.0,0.0,0.0,0.0,0.0,0.0,0.0,0.0,0.0,0.0,0.0,0.0,0.0,0.0,0.0,0.0,0.0,0.0,0.0,0.0,0.0,0.0,0.0,0.0,0.0,0.0,0.0,0.6692,0.0,0.0,0.0,0.6484,0.0,0.0,0.0,0.0,0.0,0.0,0.0,0.0,0.0,0.0,0.0,0.0,0.0,0.0,0.0,0.0,0.0,0.0,0.0,0.0,0.0,0.0,0.0,0.0,0.0,0.0,0.0,0.0,0.0,0.0,0.0,0.0,0.0,0.0,0.0,0.0,0.0,0.0,0.0,0.0,0.0,0.0,0.0,0.0,0.0,0.0,0.0,0.0,0.0,0.0,0.0,0.0,0.0,0.0,0.0,0.0,0.0,0.0,0.0,0.0,0.0,0.0,0.0,0.0,0.0,0.0,0.0,0.0,0.0,0.0,0.0,0.0,0.0,0.0,0.0,0.0,0.0,0.0,0.0,0.0,0.0,0.0,0.0,0.0,0.0,0.0,0.0,0.0,0.0,0.0,0.0,0.0,0.0,0.0,0.0,0.0,0.0,0.0,0.0,0.0,0.0,0.0,0.0,0.0,0.0,0.0,0.0,0.0,0.0,0.0,0.661,0.6883,0.6715,0.66,0.6511,0.0,0.0,0.0,0.0,0.0,0.0,0.0,0.0,0.0,0.0,0.0,0.0,0.0,0.0,0.0,0.0,0.0,0.0,0.0,0.0,0.0,0.0,0.0,0.0,0.0,0.0,0.0,0.0,0.0,0.0,0.0,0.0,0.0,0.0,0.0,0.0,0.0,0.0,0.0,0.0,0.0,0.0,0.0,0.0,0.0,0.0,0.0,0.0,0.0,0.0,0.0,0.0,0.0,0.0,0.0,0.0,0.0,0.0,0.0,0.0,0.0,0.0,0.0,0.0,0.0,0.0,0.0,0.0,0.0,0.0,0.0,0.0,0.0,0.0,0.0,0.0,0.0,0.0,0.0,0.0,0.0,0.0,0.0,0.0,0.0,0.0,0.0,0.0,0.0,0.0,0.0,0.0,0.0,0.0,0.0,0.0,0.0,0.0,0.0,0.0,0.0,0.0,0.0,0.0,0.0,0.0,0.0,0.0,0.0,0.0,0.0,0.0,0.6831,0.6661,0.6518,0.0,0.0,0.0,0.0,0.0,0.0,0.0,0.0,0.0,0.0,0.0,0.0,0.0,0.0,0.0,0.0,0.0,0.0,0.0,0.0,0.0,0.0,0.0,0.0,0.0,0.0,0.0,0.0,0.0,0.0,0.0,0.0,0.0,0.0,0.0,0.0,0.0,0.0,0.0,0.0,0.0,0.0,0.0,0.0,0.0,0.0,0.0,0.0,0.0,0.0,0.0,0.0,0.0,0.0,0.0,0.0,0.0,0.0,0.0,0.0,0.0,0.0,0.0,0.0,0.0,0.0,0.0,0.0,0.0,0.0,0.0,0.0,0.0,0.0,0.0,0.0,0.0,0.0,0.0,0.0,0.0,0.0,0.0,0.0,0.0,0.0,0.0,0.0,0.0,0.0,0.0,0.0,0.0,0.0,0.0,0.0,0.0,0.0,0.0,0.0,0.0,0.0,0.0,0.0,0.0,0.0,0.0,0.0,0.0,0.0,0.6643,0.7071,0.6937,0.0,0.6532,0.0,0.0,0.0,0.0,0.0,0.0,0.0,0.0,0.0,0.0,0.0,0.0,0.0,0.0,0.0,0.0,0.0,0.0,0.0,0.0,0.0,0.0,0.0,0.0,0.0,0.0,0.0,0.0,0.0,0.0,0.0,0.0,0.0,0.0,0.0,0.0,0.0,0.0,0.0,0.0,0.0,0.0,0.0,0.0,0.0,0.0,0.0,0.0,0.0,0.0,0.0,0.0,0.0,0.0,0.0,0.0,0.0,0.0,0.0,0.0,0.0,0.0,0.0,0.0,0.0,0.0,0.0,0.0,0.0,0.0,0.0,0.0,0.0,0.0,0.0,0.0,0.0,0.0,0.0,0.0,0.0,0.0,0.0,0.0,0.0,0.0,0.0,0.0,0.0,0.0,0.0,0.0,0.0,0.0,0.0,0.0,0.0,0.0,0.0,0.0,0.0,0.0,0.0,0.0,0.0,0.0,0.0,0.0,0.0,0.0,0.6776,0.7278,0.7054,0.6831,0.0,0.0,0.0,0.0,0.0,0.0,0.0,0.0,0.0,0.0,0.0,0.0,0.0,0.0,0.0,0.0,0.0,0.0,0.0,0.0,0.0,0.0,0.0,0.0,0.0,0.0,0.0,0.0,0.0,0.0,0.0,0.0,0.0,0.0,0.0,0.0,0.0,0.0,0.0,0.0,0.0,0.0,0.0,0.0,0.0,0.0,0.0,0.0,0.0,0.0,0.0,0.0,0.0,0.0,0.0,0.0,0.0,0.0,0.0,0.0,0.0,0.0,0.0,0.0,0.0,0.0,0.0,0.0,0.0,0.0,0.0,0.0,0.0,0.0,0.0,0.0,0.0,0.0,0.0,0.0,0.0,0.0,0.0,0.0,0.0,0.0,0.0,0.0,0.0,0.0,0.0,0.0,0.0,0.0,0.0,0.0,0.0,0.0,0.0,0.0,0.0,0.0,0.0,0.0,0.0,0.0,0.0,0.0,0.0,0.0,0.6624,0.6968,0.7421,0.7183,0.6959,0.677,0.0,0.0,0.0,0.0,0.0,0.0,0.0,0.0,0.0,0.0,0.0,0.0,0.0,0.0,0.0,0.0,0.0,0.0,0.0,0.0,0.0,0.0,0.0,0.0,0.0,0.0,0.0,0.0,0.0,0.0,0.0,0.0,0.0,0.0,0.0,0.0,0.0,0.0,0.0,0.0,0.0,0.0,0.0,0.0,0.0,0.0,0.0,0.0,0.0,0.0,0.0,0.0,0.0,0.0,0.0,0.0,0.0,0.0,0.0,0.0,0.0,0.0,0.0,0.0,0.0,0.0,0.0,0.0,0.0,0.0,0.0,0.0,0.0,0.0,0.0,0.0,0.0,0.0,0.0,0.0,0.0,0.0,0.0,0.0,0.0,0.0,0.0,0.0,0.0,0.0,0.0,0.0,0.0,0.0,0.0,0.0,0.0,0.0,0.0,0.0,0.0,0.0,0.0,0.0,0.0,0.0,0.0,0.0,0.663,0.6758,0.7073,0.7543,0.7434,0.7217,0.0,0.0,0.0,0.0,0.0,0.0,0.0,0.0,0.0,0.0,0.0,0.0,0.0,0.0,0.0,0.0,0.0,0.0,0.0,0.0,0.0,0.0,0.0,0.0,0.0,0.0,0.0,0.0,0.0,0.0,0.0,0.0,0.0,0.0,0.0,0.0,0.0,0.0,0.0,0.0,0.0,0.0,0.0,0.0,0.0,0.0,0.0,0.0,0.0,0.0,0.0,0.0,0.0,0.0,0.0,0.0,0.0,0.0,0.0,0.0,0.0,0.0,0.0,0.0,0.0,0.0,0.0,0.0,0.0,0.0,0.0,0.0,0.0,0.0,0.0,0.0,0.0,0.0,0.0,0.0,0.0,0.0,0.0,0.0,0.0,0.0,0.0,0.0,0.0,0.0,0.0,0.0,0.0,0.0,0.0,0.0,0.0,0.0,0.0,0.0,0.0,0.0,0.0,0.0,0.0,0.0,0.0,0.0,0.0,0.6724,0.7231,0.7588,0.7868,0.7645,0.7373,0.0,0.0,0.0,0.0,0.0,0.0,0.0,0.0,0.0,0.0,0.0,0.0,0.0,0.0,0.0,0.0,0.0,0.0,0.0,0.0,0.0,0.0,0.0,0.0,0.0,0.0,0.0,0.0,0.0,0.0,0.0,0.0,0.0,0.0,0.0,0.0,0.0,0.0,0.0,0.0,0.0,0.0,0.0,0.0,0.0,0.0,0.0,0.0,0.0,0.0,0.0,0.0,0.0,0.0,0.0,0.0,0.0,0.0,0.0,0.0,0.0,0.0,0.0,0.0,0.0,0.0,0.0,0.0,0.0,0.0,0.0,0.0,0.0,0.0,0.0,0.0,0.0,0.0,0.0,0.0,0.0,0.0,0.0,0.0,0.0,0.0,0.0,0.0,0.0,0.0,0.0,0.0,0.0,0.0,0.0,0.0,0.0,0.0,0.0,0.0,0.0,0.0,0.0,0.0,0.0,0.0,0.0,0.0,0.0,0.713,0.0,0.8058,0.8106,0.7923,0.7651,0.0,0.0,0.0,0.0,0.0,0.0,0.0,0.0,0.0,0.0,0.0,0.0,0.0,0.0,0.0,0.0,0.0,0.0,0.0,0.0,0.0,0.0,0.0,0.0,0.0,0.0,0.0,0.0,0.0,0.0,0.0,0.0,0.0,0.0,0.0,0.0,0.0,0.0,0.0,0.0,0.0,0.0,0.0,0.0,0.0,0.0,0.0,0.0,0.0,0.0,0.0,0.0,0.0,0.0,0.0,0.0,0.0,0.0,0.0,0.0,0.0,0.0,0.0,0.0,0.0,0.0,0.0,0.0,0.0,0.0,0.0,0.0,0.0,0.0,0.0,0.0,0.0,0.0,0.0,0.0,0.0,0.0,0.0,0.0,0.0,0.0,0.0,0.0,0.0,0.0,0.0,0.0,0.0,0.0,0.0,0.0,0.0,0.0,0.0,0.0,0.0,0.0,0.0,0.0,0.0,0.0,0.0,0.0,0.6586,0.784,0.8294,0.8404,0.8333,0.832,0.8058,0.0,0.0,0.0,0.0,0.0,0.0,0.0,0.0,0.0,0.0,0.0,0.0,0.0,0.0,0.0,0.0,0.0,0.0,0.0,0.0,0.0,0.0,0.0,0.0,0.0,0.0,0.0,0.0,0.0,0.0,0.0,0.0,0.0,0.0,0.0,0.0,0.0,0.0,0.0,0.0,0.0,0.0,0.0,0.0,0.0,0.0,0.0,0.0,0.0,0.0,0.0,0.0,0.0,0.0,0.0,0.0,0.0,0.0,0.0,0.0,0.0,0.0,0.0,0.0,0.0,0.0,0.0,0.0,0.0,0.0,0.0,0.0,0.0,0.0,0.0,0.0,0.0,0.0,0.0,0.0,0.0,0.0,0.0,0.0,0.0,0.0,0.0,0.0,0.0,0.0,0.0,0.0,0.0,0.0,0.0,0.0,0.0,0.0,0.0,0.0,0.0,0.0,0.0,0.0,0.0,0.0,0.0,0.0,0.0,0.8415,0.8561,0.8615,0.8574,0.8574,0.8309,0.0,0.0,0.0,0.0,0.0,0.0,0.0,0.0,0.0,0.0,0.0,0.0,0.0,0.0,0.0,0.0,0.0,0.0,0.0,0.0,0.0,0.0,0.0,0.0,0.0,0.0,0.0,0.0,0.0,0.0,0.0,0.0,0.0,0.0,0.0,0.0,0.0,0.0,0.0,0.0,0.0,0.0,0.0,0.0,0.0,0.0,0.0,0.0,0.0,0.0,0.0,0.0,0.0,0.0,0.0,0.0,0.0,0.0,0.0,0.0,0.0,0.0,0.0,0.0,0.0,0.0,0.0,0.0,0.0,0.0,0.0,0.0,0.0,0.0,0.0,0.0,0.0,0.0,0.0,0.0,0.0,0.0,0.0,0.0,0.0,0.0,0.0,0.0,0.0,0.0,0.0,0.0,0.0,0.0,0.0,0.0,0.0,0.0,0.0,0.0,0.0,0.0,0.0,0.0,0.0,0.0,0.0,0.0,0.0,0.9067,0.9123,0.9042,0.8879,0.8825,0.854,0.8004,0.0,0.0,0.0,0.0,0.0,0.0,0.0,0.0,0.0,0.0,0.0,0.0,0.0,0.0,0.0,0.0,0.0,0.0,0.0,0.0,0.0,0.0,0.0,0.0,0.0,0.0,0.0,0.0,0.0,0.0,0.0,0.0,0.0,0.0,0.0,0.0,0.0,0.0,0.0,0.0,0.0,0.0,0.0,0.0,0.0,0.0,0.0,0.0,0.0,0.0,0.0,0.0,0.0,0.0,0.0,0.0,0.0,0.0,0.0,0.0,0.0,0.0,0.0,0.0,0.0,0.0,0.0,0.0,0.0,0.0,0.0,0.0,0.0,0.0,0.0,0.0,0.0,0.0,0.0,0.0,0.0,0.0,0.0,0.0,0.0,0.0,0.0,0.0,0.0,0.0,0.0,0.0,0.0,0.0,0.0,0.0,0.0,0.0,0.0,0.0,0.0,0.0,0.0,0.0,0.0,0.0,0.0,0.0,0.9863,0.989,0.9673,0.9282,0.9069,0.8777,0.0,0.0,0.0,0.0,0.0,0.0,0.0,0.0,0.0,0.0,0.0,0.0,0.0,0.0,0.0,0.0,0.0,0.0,0.0,0.0,0.0,0.0,0.0,0.0,0.0,0.0,0.0,0.0,0.0,0.0,0.0,0.0,0.0,0.0,0.0,0.0,0.0,0.0,0.0,0.0,0.0,0.0,0.0,0.0,0.0,0.0,0.0,0.0,0.0,0.0,0.0,0.0,0.0,0.0,0.0,0.0,0.0,0.0,0.0,0.0,0.0,0.0,0.0,0.0,0.0,0.0,0.0,0.0,0.0,0.0,0.0,0.0,0.0,0.0,0.0,0.0,0.0,0.0,0.0,0.0,0.0,0.0,0.0,0.0,0.0,0.0,0.0,0.0,0.0,0.0,0.0,0.0,0.0,0.0,0.0,0.0,0.0,0.0,0.0,0.0,0.0,0.0,0.0,0.0,0.0,0.0,0.0,0.0,0.0,1.0408,1.0697,1.0493,0.9842,0.9666,0.9381,0.0,0.0,0.0,0.0,0.0,0.0,0.0,0.0,0.0,0.0,0.0,0.0,0.0,0.0,0.0,0.0,0.0,0.0,0.0,0.0,0.0,0.0,0.0,0.0,0.0,0.0,0.0,0.0,0.0,0.0,0.0,0.0,0.0,0.0,0.0,0.0,0.0,0.0,0.0,0.0,0.0,0.0,0.0,0.0,0.0,0.0,0.0,0.0,0.0,0.0,0.0,0.0,0.0,0.0,0.0,0.0,0.0,0.0,0.0,0.0,0.0,0.0,0.0,0.0,0.0,0.0,0.0,0.0,0.0,0.0,0.0,0.0,0.0,0.0,0.0,0.0,0.0,0.0,0.0,0.0,0.0,0.0,0.0,0.0,0.0,0.0,0.0,0.0,0.0,0.0,0.0,0.0,0.0,0.0,0.0,0.0,0.0,0.0,0.0,0.0,0.0,0.0,0.0,0.0,0.0,0.0,0.0,0.0,1.0259,1.0745,1.1043,1.0955,1.0527,1.0188,0.968,0.0,0.0,0.0,0.0,0.0,0.0,0.0,0.0,0.0,0.0,0.0,0.0,0.0,0.0,0.0,0.0,0.0,0.0,0.0,0.0,0.0,0.0,0.0,0.0,0.0,0.0,0.0,0.0,0.0,0.0,0.0,0.0,0.0,0.0,0.0,0.0,0.0,0.0,0.0,0.0,0.0,0.0,0.0,0.0,0.0,0.0,0.0,0.0,0.0,0.0,0.0,0.0,0.0,0.0,0.0,0.0,0.0,0.0,0.0,0.0,0.0,0.0,0.0,0.0,0.0,0.0,0.0,0.0,0.0,0.0,0.0,0.0,0.0,0.0,0.0,0.0,0.0,0.0,0.0,0.0,0.0,0.0,0.0,0.0,0.0,0.0,0.0,0.0,0.0,0.0,0.0,0.0,0.0,0.0,0.0,0.0,0.0,0.0,0.0,0.0,0.0,0.0,0.0,0.0,0.0,0.0,0.0,0.0,1.0568,1.0941,1.1158,1.1282,1.1241,1.0616,0.9856,0.0,0.0,0.0,0.0,0.0,0.0,0.0,0.0,0.0,0.0,0.0,0.0,0.0,0.0,0.0,0.0,0.0,0.0,0.0,0.0,0.0,0.0,0.0,0.0,0.0,0.0,0.0,0.0,0.0,0.0,0.0,0.0,0.0,0.0,0.0,0.0,0.0,0.0,0.0,0.0,0.0,0.0,0.0,0.0,0.0,0.0,0.0,0.0,0.0,0.0,0.0,0.0,0.0,0.0,0.0,0.0,0.0,0.0,0.0,0.0,0.0,0.0,0.0,0.0,0.0,0.0,0.0,0.0,0.0,0.0,0.0,0.0,0.0,0.0,0.0,0.0,0.0,0.0,0.0,0.0,0.0,0.0,0.0,0.0,0.0,0.0,0.0,0.0,0.0,0.0,0.0,0.0,0.0,0.0,0.0,0.0,0.0,0.0,0.0,0.0,0.0,0.0,0.0,0.0,0.0,0.0,0.0,0.0,1.0954,1.1463,1.1613,1.1579,1.1341,1.0758,1.029,0.0,0.0,0.0,0.0,0.0,0.0,0.0,0.0,0.0,0.0,0.0,0.0,0.0,0.0,0.0,0.0,0.0,0.0,0.0,0.0,0.0,0.0,0.0,0.0,0.0,0.0,0.0,0.0,0.0,0.0,0.0,0.0,0.0,0.0,0.0,0.0,0.0,0.0,0.0,0.0,0.0,0.0,0.0,0.0,0.0,0.0,0.0,0.0,0.8147,0.0,0.0,0.0,0.0,0.0,0.0,0.0,0.0,0.0,0.0,0.0,0.0,0.0,0.0,0.0,0.0,0.0,0.0,0.0,0.0,0.0,0.0,0.0,0.0,0.0,0.0,0.0,0.0,0.0,0.0,0.0,0.0,0.0,0.0,0.0,0.0,0.0,0.0,0.0,0.0,0.0,0.0,0.0,0.0,0.0,0.0,0.0,0.0,0.0,0.0,0.0,0.0,0.0,0.0,0.0,0.0,0.0,0.0,0.0,1.1267,1.1701,1.1864,1.183,1.1592,1.1016,1.05,0.0,0.0,0.0,0.0,0.0,0.0,0.0,0.0,0.0,0.0,0.0,0.0,0.0,0.0,0.0,0.0,0.0,0.0,0.0,0.0,0.0,0.0,0.0,0.0,0.0,0.0,0.0,0.0,0.0,0.0,0.0,0.0,0.0,0.0,0.0,0.0,0.0,0.0,0.0,0.0,0.0,0.0,0.0,0.0,0.0,0.0,0.0,0.0,0.0,0.0,0.0,0.0,0.0,0.0,0.0,0.0,0.0,0.0,0.0,0.0,0.0,0.0,0.0,0.0,0.0,0.0,0.0,0.0,0.0,0.0,0.0,0.0,0.0,0.0,0.0,0.0,0.0,0.0,0.0,0.0,0.0,0.0,0.0,0.0,0.0,0.0,0.0,0.0,0.0,0.0,0.0,0.0,0.0,0.0,0.0,0.0,0.0,0.0,0.0,0.0,0.0,0.0,0.0,0.0,0.0,0.0,0.0,1.0723,1.145,1.1884,1.2026,1.2033,1.1898,1.1298,1.0678,1.0025,0.0,0.0,0.0,0.0,0.0,0.0,0.0,0.0,0.0,0.0,0.0,0.0,0.0,0.0,0.0,0.0,0.0,0.0,0.0,0.0,0.0,0.0,0.0,0.0,0.0,0.0,0.0,0.0,0.0,0.0,0.0,0.0,0.0,0.0,0.0,0.0,0.0,0.0,0.7805,0.8105,0.0,0.0,0.0,0.0,0.0,0.0,0.0,0.0,0.9141,0.0,0.0,0.0,0.0,0.0,0.0,0.0,0.0,0.0,0.0,0.0,0.0,0.0,0.0,0.0,0.0,0.0,0.0,0.0,0.0,0.0,0.0,0.0,0.0,0.0,0.0,0.0,0.0,0.0,0.0,0.0,0.0,0.0,0.0,0.0,0.0,0.0,0.0,0.0,0.0,0.0,0.0,0.0,0.0,0.0,0.0,0.0,0.0,0.0,0.0,0.0,0.0,0.0,0.0,0.0,0.0,0.9745,1.0898,1.1762,1.2203,1.2237,1.2237,1.2203,1.187,1.1396,1.0698,0.0,0.0,0.0,0.0,0.0,0.0,0.0,0.0,0.0,0.0,0.0,0.0,0.0,0.0,0.0,0.0,0.0,0.0,0.0,0.0,0.0,0.0,0.0,0.0,0.0,0.0,0.0,0.0,0.0,0.0,0.0,0.0,0.0,0.0,0.0,0.0,0.0,0.0,0.0,0.8289,0.829,0.0,0.0,0.0,0.0,0.0,0.0,0.0,0.0,0.9693,0.0,0.0,0.0,0.0,0.0,0.0,0.0,0.0,0.0,0.0,0.0,0.0,0.0,0.0,0.0,0.0,0.0,0.0,0.0,0.0,0.0,0.0,0.0,0.0,0.0,0.0,0.0,0.0,0.0,0.0,0.0,0.0,0.0,0.0,0.0,0.0,0.0,0.0,0.0,0.0,0.0,0.0,0.0,0.0,0.0,0.0,0.0,0.0,0.0,0.0,0.0,0.0,0.0,0.0,0.0,0.998,1.1109,1.1911,1.2277,1.2359,1.2366,1.2284,1.1918,1.1443,0.0,0.0,0.0,0.0,0.0,0.0,0.0,0.0,0.0,0.0,0.0,0.0,0.0,0.0,0.0,0.0,0.0,0.0,0.0,0.0,0.0,0.0,0.0,0.0,0.0,0.0,0.0,0.0,0.0,0.0,0.0,0.0,0.0,0.0,0.0,0.0,0.0,0.0,0.0,0.0,0.7925,0.8044,0.7671,0.0,0.0,0.0,0.0,0.0,0.0,1.0078,1.0082,0.0,0.0,0.0,0.0,0.0,0.0,0.0,0.0,0.0,0.0,0.0,0.0,0.0,0.0,0.0,0.0,0.0,0.0,0.0,0.0,0.0,0.0,0.0,0.0,0.0,0.0,0.0,0.0,0.0,0.0,0.0,0.0,0.0,0.0,0.0,0.0,0.0,0.0,0.0,0.0,0.0,0.0,0.0,0.0,0.0,0.0,0.0,0.0,0.0,0.0,0.0,0.0,0.0,0.0,0.0,1.0152,1.1319,1.2074,1.2366,1.2488,1.2494,1.2372,1.1945,1.1443,0.0,0.0,0.0,0.0,0.0,0.0,0.0,0.0,0.0,0.0,0.0,0.0,0.0,0.0,0.0,0.0,0.0,0.0,0.0,0.0,0.0,0.0,0.0,0.0,0.0,0.0,0.0,0.0,0.0,0.0,0.0,0.0,0.0,0.0,0.0,0.0,0.0,0.0,0.0,0.0,0.0,0.765,0.7243,0.734,0.0,0.0,0.0,0.0,1.0222,1.0421,0.0,0.0,0.0,0.0,0.0,0.0,0.0,0.0,0.0,0.0,0.0,0.0,0.0,0.0,0.0,0.0,0.0,0.0,0.0,0.0,0.0,0.0,0.0,0.0,0.0,0.0,0.0,0.0,0.0,0.0,0.0,0.0,0.0,0.0,0.0,0.0,0.0,0.0,0.0,0.0,0.0,0.0,0.0,0.0,0.0,0.0,0.0,0.0,0.0,0.0,0.0,0.0,0.0,0.0,0.0,0.0,1.0376,1.1569,1.2379,1.2664,1.2698,1.2698,1.2671,1.2244,1.1789,0.0,0.0,0.0,0.0,0.0,0.0,0.0,0.0,0.0,0.0,0.0,0.0,0.0,0.0,0.0,0.0,0.0,0.0,0.0,0.0,0.0,0.0,0.0,0.0,0.0,0.0,0.0,0.0,0.0,0.0,0.0,0.0,0.0,0.0,0.0,0.0,0.0,0.0,0.0,0.0,0.0,0.7346,0.6965,0.727,0.7612,0.0,0.0,0.9418,1.0094,1.0498,0.0,0.0,0.0,0.0,0.0,0.0,0.0,0.0,0.0,0.0,0.0,0.0,0.0,0.0,0.0,0.0,0.0,0.0,0.0,0.0,0.0,0.0,0.0,0.0,0.0,0.0,0.0,0.0,0.0,0.0,0.0,0.0,0.0,0.0,0.0,0.0,0.0,0.0,0.0,0.0,0.0,0.0,0.0,0.0,0.0,0.0,0.0,0.0,0.0,0.0,0.0,0.0,0.0,0.0,0.0,0.9461,1.0552,1.1547,1.2283,1.2725,1.282,1.282,1.2732,1.2461,1.202,0.0,0.0,0.0,0.0,0.0,0.0,0.0,0.0,0.0,0.0,0.0,0.0,0.0,0.0,0.0,0.0,0.0,0.0,0.0,0.0,0.0,0.0,0.0,0.0,0.0,0.0,0.0,0.0,0.0,0.0,0.0,0.0,0.0,0.0,0.0,0.0,0.0,0.0,0.0,0.0,0.0,0.0,0.6659,0.6789,0.0,0.0,0.0,0.9139,1.0195,0.0,0.0,0.0,0.0,0.0,0.0,0.0,0.0,0.0,0.0,0.0,0.0,0.0,0.0,0.0,0.0,0.0,0.0,0.0,0.0,0.0,0.0,0.0,0.0,0.0,0.0,0.0,0.0,0.0,0.0,0.0,0.0,0.0,0.0,0.0,0.0,0.0,0.0,0.0,0.0,0.0,0.0,0.0,0.0,0.0,0.0,0.0,0.0,0.0,0.0,0.0,0.0,0.0,0.0,0.0,0.0,0.0,1.078,1.1568,1.2259,1.2834,1.2956,1.2956,1.284,1.2623,0.0,0.0,0.0,0.0,0.0,0.0,0.0,0.0,0.0,0.0,0.0,0.0,0.0,0.0,0.0,0.0,0.0,0.0,0.0,0.0,0.0,0.0,0.0,0.0,0.0,0.0,0.0,0.4083,0.0,0.0,0.0,0.0,0.0,0.0,0.0,0.0,0.0,0.0,0.0,0.0,0.0,0.0,0.6222,0.6228,0.6459,0.7018,0.0,0.0,0.8979,1.0179,1.0237,1.0331,0.0,0.0,0.0,0.0,0.0,0.0,0.0,0.0,0.0,0.0,0.0,0.0,0.0,0.0,0.0,0.0,0.0,0.0,0.0,0.0,0.0,0.0,0.0,0.0,0.0,0.0,0.0,0.0,0.0,0.0,0.0,0.0,0.0,0.0,0.0,0.0,0.0,0.0,0.0,0.0,0.0,0.0,0.0,0.0,0.0,0.0,0.0,0.0,0.0,0.0,0.0,0.0,0.0,0.0,0.9262,1.0915,1.1714,1.2456,1.3132,1.3152,1.3152,1.3132,1.2725,1.2352,0.0,0.0,0.0,0.0,0.0,0.0,0.0,0.0,0.0,0.0,0.0,0.0,0.0,0.0,0.0,0.0,0.0,0.0,0.0,0.0,0.0,0.0,0.0,0.0,0.0,0.0,0.0,0.0,0.0,0.0,0.0,0.0,0.0,0.0,0.0,0.0,0.0,0.0,0.0,0.0,0.0,0.5719,0.5805,0.6449,0.7033,0.0,0.829,0.911,0.9869,1.0213,1.0387,1.0456,0.0,0.0,0.0,0.0,0.0,0.0,0.0,0.0,0.0,0.0,0.0,0.0,0.0,0.0,0.0,0.0,0.0,0.0,0.0,0.0,0.0,0.0,0.0,0.0,0.0,0.0,0.0,0.0,0.0,0.0,0.0,0.0,0.0,0.0,0.0,0.0,0.0,0.0,0.0,0.0,0.0,0.0,0.0,0.0,0.0,0.0,0.0,0.0,0.0,0.0,0.0,0.0,0.0,0.917,1.1057,1.1619,1.2372,1.3302,1.3315,1.3315,1.3315,1.3057,1.2691,0.0,0.0,0.0,0.0,0.0,0.0,0.0,0.0,0.0,0.0,0.0,0.0,0.0,0.0,0.0,0.0,0.0,0.0,0.0,0.0,0.0,0.0,0.0,0.0,0.0,0.0,0.0,0.0,0.4427,0.5104,0.5823,0.0,0.0,0.0,0.0,0.0,0.0,0.0,0.0,0.0,0.0,0.5401,0.5628,0.6172,0.0,0.0,0.8206,0.8856,0.9696,0.9536,0.9526,1.0072,0.9568,0.0,0.0,0.0,0.0,0.0,0.0,0.0,0.0,0.0,0.0,0.0,0.0,0.0,0.0,0.0,0.0,0.0,0.0,0.0,0.0,0.0,0.0,0.0,0.0,0.0,0.0,0.0,0.0,0.0,0.0,0.0,0.0,0.0,0.0,0.0,0.0,0.0,0.0,0.0,0.0,0.0,0.0,0.0,0.0,0.0,0.0,0.0,0.0,0.0,0.0,0.0,0.0,0.9139,1.1176,1.1586,1.2395,1.3464,1.3512,1.3532,1.3526,1.3342,1.3003,0.0,0.0,0.0,0.0,0.0,0.0,0.0,0.0,0.0,0.0,0.0,0.0,0.0,0.0,0.0,0.0,0.0,0.0,0.0,0.0,0.0,0.0,0.0,0.0,0.0,0.0,0.0,0.0,0.4422,0.5176,0.5882,0.0,0.0,0.0,0.0,0.0,0.0,0.0,0.0,0.0,0.0,0.4949,0.5163,0.567,0.6331,0.7166,0.7836,0.8486,0.9221,0.9068,0.9017,0.9531,0.0,0.0,0.0,0.0,0.0,0.0,0.0,0.0,0.0,0.0,0.0,0.0,0.0,0.0,0.0,0.0,0.0,0.0,0.0,0.0,0.0,0.0,0.0,0.0,0.0,0.0,0.0,0.1782,0.0,0.0,0.1797,0.0,0.0,0.0,0.0,0.0,0.0,0.0,0.0,0.0,0.0,0.0,0.0,0.0,0.0,0.0,0.0,0.0,0.0,0.0,0.0,0.0,0.0,0.9303,1.1451,1.1849,1.2547,1.3536,1.3671,1.3738,1.3824,1.3553,1.3254,1.2942,0.0,0.0,0.0,0.0,0.0,0.0,0.0,0.0,0.0,0.0,0.0,0.0,0.0,0.0,0.0,0.0,0.0,0.0,0.0,0.0,0.0,0.0,0.0,0.0,0.0,0.0,0.3943,0.4652,0.5245,0.0,0.0,0.0,0.0,0.0,0.0,0.0,0.0,0.0,0.5106,0.4577,0.4273,0.4383,0.4932,0.5531,0.6034,0.7102,0.809,0.851,0.8829,0.8965,0.0,0.0,0.0,0.0,0.0,0.0,0.0,0.0,0.0,0.0,0.0,0.0,0.0,0.0,0.0,0.0,0.0,0.0,0.0,0.0,0.0,0.0,0.0,0.0,0.0,0.0,0.0,0.1989,0.1988,0.0,0.0,0.0,0.0,0.0,0.0,0.0,0.0,0.0,0.0,0.0,0.2243,0.2243,0.0,0.0,0.0,0.0,0.0,0.0,0.0,0.0,0.0,0.0,0.0,0.0,0.938,1.1063,1.1785,1.2514,1.3337,1.3646,1.3892,1.3994,1.3797,1.3464,1.3056,0.0,0.0,0.0,0.0,0.0,0.0,0.0,0.0,0.0,0.0,0.0,0.0,0.0,0.0,0.0,0.0,0.0,0.0,0.0,0.0,0.0,0.0,0.0,0.0,0.0,0.3983,0.0,0.0,0.0,0.0,0.0,0.0,0.0,0.0,0.0,0.0,0.491,0.455,0.4501,0.4112,0.3912,0.4008,0.4739,0.5405,0.0,0.0,0.0,0.0,0.0,0.0,0.0,0.0,0.0,0.0,0.0,0.0,0.0,0.628,0.6356,0.6129,0.6076,0.6326,0.6965,0.0,0.0,0.0,0.0,0.0,0.0,0.0,0.0,0.0,0.0,0.0,0.0,0.0,0.0,0.2143,0.214,0.2121,0.0,0.0,0.0,0.0,0.0,0.0,0.0,0.0,0.2369,0.232,0.2395,0.2397,0.2386,0.2369,0.2368,0.239,0.0,0.0,0.0,0.0,0.0,0.0,0.0,0.0,0.9521,1.1028,1.17,1.2404,1.3217,1.3541,1.3874,1.4143,1.3953,1.3614,1.3132,1.2732,1.2223,0.0,0.0,0.0,0.0,0.0,0.0,0.0,0.0,0.0,0.0,0.0,0.0,0.0,0.0,0.0,0.0,0.0,0.0,0.0,0.0,0.0,0.0,0.0,0.4251,0.0,0.0,0.0,0.0,0.0,0.0,0.0,0.0,0.0,0.543,0.4732,0.4243,0.4271,0.385,0.3544,0.3695,0.0,0.0,0.0,0.0,0.0,0.0,0.0,0.6303,0.6236,0.5813,0.5461,0.5251,0.5349,0.5471,0.5571,0.0,0.0,0.5833,0.5911,0.6101,0.6689,0.6945,0.7277,0.8063,0.9022,0.9871,0.0,0.0,0.0,0.0,0.218,0.0,0.0,0.0,0.2297,0.2297,0.0,0.2294,0.0,0.0,0.0,0.0,0.23,0.2357,0.0,0.0,0.2491,0.2519,0.2519,0.2519,0.2519,0.2519,0.2519,0.2518,0.2507,0.3075,0.0,0.0,0.0,0.0,0.0,0.0,0.9711,1.1214,1.1657,1.2286,1.3278,1.3507,1.3761,1.4204,1.4007,1.3715,1.3424,1.3125,1.2766,1.2325,1.1735,0.0,0.0,0.0,0.0,0.0,0.0,0.0,0.0,0.0,0.0,0.0,0.0,0.0,0.0,0.0,0.0,0.0,0.0,0.0,0.0,0.4521,0.0,0.0,0.0,0.0,0.0,0.0,0.0,0.0,0.0,0.5739,0.5613,0.4821,0.4288,0.4395,0.0,0.0,0.0,0.0,0.3655,0.4003,0.4524,0.4959,0.5396,0.5483,0.5414,0.5467,0.0,0.0,0.4156,0.4069,0.414,0.4013,0.4092,0.4467,0.6006,0.6191,0.6289,0.6447,0.679,0.7316,0.7968,0.898,1.0052,0.247,0.0,0.0,0.0,0.0,0.2372,0.2402,0.2451,0.245,0.245,0.2448,0.2428,0.0,0.0,0.0,0.0,0.0,0.0,0.2523,0.2552,0.2592,0.262,0.2642,0.2641,0.2642,0.2642,0.2642,0.2642,0.2639,0.3076,0.3625,0.4266,0.0,0.0,0.0,0.0,0.913,0.9991,1.0972,1.1586,1.1882,1.272,1.3325,1.3768,1.3934,1.3912,1.3722,1.3431,1.3119,1.2779,1.2298,0.0,0.0,0.0,0.0,0.0,0.0,0.0,0.0,0.0,0.0,0.0,0.0,0.0,0.0,0.0,0.0,0.0,0.0,0.0,0.3829,0.3489,0.3424,0.0,0.0,0.0,0.0,0.0,0.0,0.0,0.0,0.0,0.5711,0.4986,0.4339,0.0,0.0,0.2893,0.2926,0.3226,0.3527,0.373,0.4091,0.0,0.4581,0.4677,0.4502,0.4242,0.409,0.3927,0.3836,0.4111,0.429,0.4278,0.4276,0.4437,0.4834,0.482,0.5031,0.5684,0.5961,0.6492,0.756,0.8444,0.9356,0.2624,0.2545,0.251,0.2495,0.2495,0.2493,0.2515,0.2549,0.2549,0.2556,0.2566,0.2547,0.2547,0.2556,0.2538,0.0,0.0,0.0,0.2639,0.2657,0.2687,0.2712,0.2728,0.2728,0.2729,0.2728,0.2729,0.2729,0.2728,0.2983,0.3449,0.4097,0.0,0.6088,0.73,0.8065,0.8689,0.9332,1.0207,1.0879,1.1151,1.2157,1.292,1.3407,1.3761,1.3887,1.3681,1.3678,1.3505,1.3146,1.2608,1.2083,0.0,0.0,0.0,0.0,0.0,0.0,0.0,0.0,0.0,0.0,0.0,0.5032,0.5086,0.0,0.0,0.0,0.4208,0.376,0.3502,0.3316,0.0,0.0,0.0,0.0,0.0,0.0,0.0,0.5471,0.5462,0.5377,0.5374,0.4784,0.4318,0.4066,0.3361,0.2799,0.2816,0.0,0.3337,0.3357,0.3544,0.3734,0.3757,0.376,0.3679,0.343,0.3382,0.3505,0.3507,0.3698,0.3888,0.3888,0.3888,0.3888,0.3888,0.3735,0.4039,0.5278,0.5631,0.6183,0.7387,0.8213,0.916,0.2765,0.2645,0.2646,0.2612,0.2612,0.2612,0.2613,0.2616,0.2616,0.2631,0.2658,0.2657,0.2673,0.2699,0.2699,0.0,0.2701,0.2729,0.2742,0.2746,0.2776,0.2792,0.2795,0.2797,0.2799,0.2801,0.2801,0.2801,0.2806,0.2801,0.3061,0.35,0.4618,0.5688,0.6584,0.7533,0.8305,0.8912,0.9453,1.0086,1.0831,1.1936,1.2574,1.3011,1.3437,1.3579,1.3423,1.3733,1.3792,1.3305,1.2671,1.2086,1.1683,0.0,0.0,0.0,0.0,0.0,0.0,0.0,0.0,0.0,0.0,0.0,0.0,0.0,0.0,0.4305,0.3827,0.0,0.3491,0.3497,0.0,0.0,0.0,0.4058,0.3713,0.4345,0.4878,0.5118,0.0,0.0,0.4796,0.441,0.4091,0.406,0.3357,0.2881,0.2881,0.2928,0.2965,0.3061,0.3063,0.3066,0.3077,0.3076,0.3094,0.3145,0.3106,0.3134,0.3135,0.3135,0.3141,0.3135,0.3141,0.314,0.3141,0.313,0.3497,0.4868,0.5396,0.6156,0.7236,0.8192,0.9179,0.2766,0.2651,0.2714,0.2705,0.2706,0.2705,0.2718,0.2739,0.274,0.2744,0.2751,0.2751,0.2755,0.2762,0.2762,0.2762,0.2762,0.2769,0.2785,0.2808,0.2838,0.2864,0.2885,0.2908,0.2931,0.2953,0.2953,0.2965,0.2984,0.2942,0.3206,0.3593,0.3855,0.4389,0.5286,0.5932,0.6523,0.7054,0.8008,0.9088,1.0388,1.1425,1.2066,1.213,1.2861,1.3232,1.3164,1.3048,1.2972,1.2872,1.2346,1.1961,1.1758,1.1241,0.0,0.0,0.0,0.0,0.0,0.0,0.0,0.0,0.0,0.4676,0.4678,0.0,0.3688,0.0,0.3456,0.3116,0.2839,0.2843,0.0,0.0,0.3369,0.3557,0.3777,0.3999,0.4138,0.4169,0.4331,0.4331,0.4425,0.4048,0.3723,0.3816,0.3293,0.2941,0.2942,0.2972,0.3005,0.3028,0.305,0.3073,0.3092,0.31,0.3101,0.3119,0.3134,0.3142,0.3144,0.3142,0.3142,0.3142,0.3142,0.3142,0.3145,0.3142,0.333,0.4074,0.4647,0.5425,0.6791,0.7666,0.8648,0.2833,0.2816,0.2803,0.2799,0.2795,0.274,0.2727,0.2743,0.2743,0.2766,0.2806,0.2845,0.2863,0.2863,0.2863,0.2861,0.2863,0.2863,0.2871,0.2889,0.2905,0.2921,0.2936,0.2953,0.2971,0.2986,0.2987,0.2995,0.3009,0.2977,0.3155,0.3359,0.3303,0.3529,0.4027,0.4923,0.5567,0.5777,0.687,0.8143,0.9671,1.0268,1.0918,1.1515,1.2141,1.2595,1.2722,1.2787,1.2647,1.2318,1.1886,1.14,1.1052,1.0605,0.9943,0.0,0.0,0.0,0.0,0.0,0.0,0.0,0.0,0.0,0.0,0.0,0.3317,0.3176,0.2977,0.2843,0.2699,0.2619,0.2706,0.2966,0.3168,0.3447,0.3628,0.3928,0.4058,0.4098,0.3968,0.3932,0.3996,0.3687,0.3355,0.3375,0.3214,0.3032,0.3011,0.3039,0.3074,0.3091,0.3107,0.3123,0.3141,0.3155,0.3163,0.3164,0.3174,0.3182,0.3182,0.3182,0.3182,0.3182,0.3182,0.3182,0.3182,0.3182,0.328,0.3578,0.4176,0.5259,0.6818,0.7504,0.8493,0.2917,0.2909,0.2885,0.287,0.2855,0.2752,0.2714,0.2721,0.2721,0.2767,0.2851,0.2927,0.2962,0.2962,0.2962,0.2962,0.2962,0.2962,0.2962,0.2962,0.2965,0.2968,0.2966,0.3065,0.2975,0.2979,0.2979,0.2981,0.2984,0.2977,0.2975,0.2979,0.2968,0.2964,0.3059,0.4226,0.4937,0.5031,0.5965,0.7243,0.8649,0.8908,0.9664,1.089,1.1433,1.1775,1.2023,1.2347,1.2308,1.1648,1.1091,1.0592,0.9973,0.967,0.9211,0.0,0.8114,0.0,0.0,0.0,0.0,0.0,0.0,0.0,0.0,0.3241,0.2897,0.2657,0.2688,0.2705,0.2703,0.2707,0.272,0.2746,0.3101,0.3389,0.3449,0.3817,0.4027,0.4102,0.3753,0.3588,0.3622,0.331,0.316,0.3163,0.3108,0.3122,0.3085,0.311,0.3138,0.3148,0.3152,0.3159,0.3161,0.3178,0.3194,0.3197,0.321,0.323,0.3227,0.3227,0.3228,0.3228,0.3225,0.3227,0.323,0.3228,0.3228,0.3225,0.4036,0.524,0.6595,0.7476,0.8691,0.2926,0.2882,0.2876,0.2845,0.28,0.2801,0.283,0.2874,0.2874,0.2897,0.2936,0.2954,0.2962,0.2962,0.2962,0.2962,0.2962,0.2962,0.2962,0.2962,0.2987,0.2998,0.3001,0.3024,0.3048,0.3071,0.3071,0.3084,0.3108,0.3059,0.3047,0.3069,0.2998,0.2975,0.2996,0.0,0.0,0.0,0.5197,0.6177,0.7217,0.8083,0.8842,0.9483,1.0334,0.0,1.0678,1.0665,1.065,1.0357,0.9809,0.0,0.0,0.0,0.0,0.0,0.0,0.0,0.0,0.0,0.0,0.0,0.3954,0.352,0.3238,0.2954,0.2798,0.2752,0.2763,0.2766,0.2766,0.2789,0.2806,0.2812,0.2942,0.2978,0.2989,0.3194,0.3216,0.3228,0.3184,0.3218,0.3227,0.3184,0.3125,0.3126,0.3157,0.3174,0.3163,0.3152,0.3153,0.3175,0.3195,0.3212,0.3213,0.3217,0.322,0.3224,0.3225,0.3231,0.3234,0.3232,0.3231,0.3232,0.323,0.3232,0.3232,0.323,0.3234,0.3231,0.4062,0.5089,0.5848,0.7142,0.8453,0.2966,0.2939,0.2923,0.29,0.0,0.2887,0.2919,0.2958,0.2913,0.292,0.2964,0.3086,0.3006,0.3006,0.3006,0.3006,0.3006,0.3006,0.3006,0.3007,0.3022,0.3037,0.3052,0.3067,0.3091,0.3119,0.312,0.312,0.3119,0.3089,0.3074,0.3074,0.3029,0.3014,0.3029,0.3029,0.3408,0.4164,0.4375,0.5149,0.6476,0.6954,0.7711,0.8751,0.9424,0.0,0.0,0.0,0.0,0.0,0.0,0.0,0.0,0.8181,0.0,0.7462,0.7161,0.6707,0.5918,0.5279,0.4626,0.4038,0.3435,0.3087,0.2986,0.283,0.2811,0.2827,0.2853,0.2871,0.2872,0.2885,0.2894,0.2896,0.292,0.2949,0.2979,0.2996,0.3018,0.3048,0.3077,0.3097,0.3097,0.3135,0.3163,0.3167,0.319,0.3209,0.3208,0.3197,0.3193,0.3206,0.322,0.323,0.323,0.323,0.3238,0.3247,0.3253,0.326,0.3273,0.3276,0.3276,0.3275,0.3275,0.3275,0.3275,0.3275,0.3276,0.3276,0.3903,0.4631,0.5324,0.6851,0.8483,0.3011,0.3005,0.298,0.2966,0.2962,0.2968,0.2987,0.301,0.2936,0.0,0.0,0.3125,0.3148,0.3148,0.3148,0.3148,0.3148,0.3148,0.3148,0.3148,0.3148,0.3067,0.3096,0.3097,0.3114,0.3142,0.3142,0.3127,0.3097,0.3097,0.3082,0.315,0.3148,0.3148,0.3148,0.3148,0.3338,0.3626,0.3721,0.4291,0.5622,0.5908,0.6574,0.7999,0.8504,0.893,0.9284,0.9208,0.8977,0.8596,0.8043,0.7615,0.7041,0.6944,0.6796,0.6582,0.622,0.5783,0.5345,0.482,0.4197,0.3387,0.3,0.2838,0.281,0.2857,0.2889,0.2889,0.2934,0.2961,0.2962,0.2972,0.2977,0.2977,0.2987,0.3014,0.3059,0.3069,0.3086,0.3133,0.3144,0.315,0.315,0.3176,0.3195,0.3198,0.3215,0.3234,0.3236,0.3231,0.3225,0.3227,0.3235,0.324,0.3239,0.3247,0.3255,0.3279,0.3284,0.3292,0.3313,0.3321,0.3321,0.3315,0.3321,0.3318,0.332,0.3317,0.3321,0.3321,0.3742,0.4265,0.4888,0.6558,0.8217,0.3031,0.3006,0.3002,0.2986,0.2964,0.299,0.3018,0.3044,0.3127,0.3127,0.304,0.3048,0.3148,0.3148,0.3148,0.3148,0.3148,0.3148,0.3148,0.3148,0.3148,0.3069,0.3096,0.3097,0.3114,0.3141,0.3142,0.3127,0.31,0.3097,0.3082,0.315,0.3148,0.3148,0.3148,0.3148,0.3148,0.3148,0.3243,0.3529,0.4101,0.4958,0.5718,0.6384,0.7324,0.776,0.7791,0.7777,0.7742,0.7589,0.7121,0.674,0.6632,0.6262,0.5864,0.5344,0.5248,0.4977,0.4527,0.4075,0.3544,0.3111,0.303,0.293,0.2901,0.2928,0.2949,0.295,0.2958,0.2962,0.2965,0.301,0.3134,0.3043,0.3085,0.3122,0.3127,0.3129,0.3133,0.3145,0.3167,0.3182,0.3185,0.3205,0.3223,0.3224,0.3234,0.3242,0.326,0.3246,0.3232,0.3234,0.3253,0.3266,0.327,0.3292,0.3305,0.3314,0.3314,0.3318,0.3326,0.3329,0.3328,0.3324,0.3328,0.3325,0.3325,0.3321,0.3326,0.3329,0.3763,0.4198,0.441,0.5802,0.7384,0.3044,0.3032,0.3032,0.3024,0.3011,0.3025,0.3039,0.3148,0.3148,0.3148,0.3148,0.3148,0.3148,0.3148,0.3148,0.3148,0.3148,0.3148,0.3148,0.3148,0.3148,0.3067,0.3097,0.3115,0.3138,0.3167,0.3167,0.3152,0.3123,0.3106,0.3082,0.3149,0.3148,0.3148,0.3148,0.3148,0.3148,0.3148,0.3148,0.3338,0.3817,0.4291,0.4768,0.5242,0.6003,0.6372,0.6344,0.6341,0.6329,0.6301,0.5735,0.5532,0.5411,0.5223,0.5016,0.4692,0.4687,0.4504,0.4044,0.3493,0.3231,0.2983,0.2986,0.2995,0.3013,0.2996,0.2986,0.2988,0.3014,0.3035,0.3036,0.3076,0.3101,0.3101,0.3127,0.3149,0.3164,0.3168,0.3174,0.3187,0.3202,0.321,0.321,0.3223,0.3238,0.3251,0.3266,0.3284,0.3298,0.329,0.3279,0.328,0.3292,0.3299,0.3302,0.3311,0.3328,0.3341,0.3345,0.3352,0.3365,0.337,0.337,0.337,0.337,0.337,0.3369,0.337,0.337,0.3371,0.3485,0.3814,0.4347,0.5631,0.7323,0.3148,0.3148,0.3155,0.3066,0.3071,0.3065,0.3158,0.3158,0.315,0.3148,0.3148,0.3148,0.315,0.3158,0.3158,0.3066,0.3071,0.3073,0.3073,0.3073,0.3073,0.3085,0.3108,0.3133,0.3156,0.3176,0.3178,0.3163,0.3133,0.3108,0.3082,0.315,0.3148,0.3148,0.3148,0.3148,0.3148,0.3148,0.3148,0.3243,0.3624,0.3721,0.4006,0.4385,0.4863,0.5149,0.5149,0.516,0.5165,0.5167,0.4793,0.459,0.4365,0.4363,0.4255,0.4134,0.4129,0.3941,0.3566,0.3189,0.3011,0.3035,0.3037,0.3056,0.3096,0.3065,0.3037,0.3043,0.308,0.3106,0.3108,0.3134,0.3153,0.3153,0.3159,0.3174,0.3194,0.3198,0.3205,0.3227,0.323,0.3232,0.3238,0.324,0.3253,0.3283,0.3306,0.3321,0.3329,0.3332,0.3333,0.3339,0.3337,0.3332,0.3332,0.334,0.3354,0.3374,0.3377,0.3385,0.3401,0.341,0.3411,0.3407,0.3408,0.3405,0.341,0.341,0.3407,0.3405,0.3407,0.3623,0.4258,0.5536,0.724,0.3148,0.3152,0.3081,0.311,0.3129,0.3104,0.3093,0.3089,0.316,0.3148,0.3149,0.3148,0.3069,0.3091,0.3093,0.3107,0.313,0.3134,0.3133,0.3131,0.3134,0.3135,0.3137,0.3141,0.3145,0.3148,0.3148,0.3131,0.3106,0.3099,0.3082,0.315,0.3148,0.3148,0.3148,0.3148,0.3148,0.3148,0.3148,0.3148,0.3148,0.3529,0.3817,0.3912,0.4385,0.4671,0.4575,0.471,0.4637,0.4641,0.4673,0.4401,0.4005,0.3909,0.3712,0.3318,0.3221,0.3224,0.3125,0.3127,0.3122,0.3032,0.3126,0.3129,0.3138,0.3133,0.313,0.3131,0.3036,0.3138,0.3141,0.3167,0.3183,0.3185,0.3204,0.3224,0.3223,0.3227,0.3228,0.323,0.3235,0.324,0.3266,0.3273,0.3285,0.3313,0.3326,0.3339,0.3358,0.3362,0.337,0.3388,0.3381,0.3365,0.3365,0.3386,0.3396,0.3404,0.3407,0.3408,0.3411,0.3411,0.3411,0.3411,0.3411,0.3411,0.3411,0.3411,0.3411,0.3411,0.3411,0.3624,0.4261,0.5219,0.6709,0.3159,0.308,0.3092,0.3115,0.3138,0.3129,0.3114,0.3096,0.3084,0.3078,0.308,0.3078,0.3086,0.3099,0.3116,0.3131,0.3142,0.3142,0.3142,0.3142,0.3142,0.3142,0.3142,0.3142,0.3142,0.3141,0.3125,0.311,0.3096,0.308,0.316,0.3149,0.3148,0.3148,0.3148,0.3148,0.3148,0.3148,0.3148,0.3148,0.3148,0.3243,0.3434,0.3434,0.3624,0.3718,0.3721,0.3755,0.3678,0.3679,0.3712,0.3633,0.3435,0.3435,0.3339,0.3142,0.3142,0.3142,0.3142,0.3142,0.3142,0.3142,0.3142,0.3149,0.3168,0.317,0.3176,0.319,0.3179,0.317,0.3172,0.3195,0.3213,0.3215,0.3224,0.3231,0.3231,0.3247,0.3257,0.3258,0.3273,0.3287,0.3302,0.3318,0.3333,0.335,0.336,0.3378,0.339,0.3393,0.3399,0.3407,0.34,0.3395,0.3395,0.3403,0.3411,0.3411,0.3411,0.3411,0.3414,0.3412,0.3411,0.3412,0.3412,0.3412,0.3411,0.3411,0.3411,0.3411,0.3411,0.3624,0.4155,0.49,0.5967,0.3077,0.3099,0.3114,0.314,0.3165,0.3159,0.3142,0.312,0.3106,0.3101,0.311,0.311,0.3115,0.3125,0.3146,0.3159,0.3167,0.3167,0.3167,0.3167,0.3167,0.3163,0.3155,0.3146,0.3138,0.3126,0.31,0.3085,0.3082,0.316,0.3148,0.3148,0.3148,0.3148,0.3148,0.3148,0.3148,0.3148,0.3148,0.3148,0.3148,0.3148,0.3148,0.3148,0.3148,0.315,0.3066,0.3095,0.3114,0.3123,0.3152,0.3167,0.3167,0.3167,0.3167,0.3167,0.3167,0.3167,0.3167,0.3167,0.3167,0.3068,0.3167,0.3175,0.3194,0.32,0.3209,0.3224,0.3219,0.321,0.3202,0.3217,0.3232,0.324,0.3243,0.3245,0.3257,0.3276,0.3288,0.3291,0.3303,0.3325,0.3335,0.3358,0.3377,0.3381,0.3397,0.3411,0.3411,0.3411,0.3411,0.3411,0.3411,0.3411,0.3411,0.3411,0.3412,0.3423,0.3427,0.343,0.3431,0.3433,0.3425,0.3433,0.342,0.3412,0.3411,0.3411,0.3411,0.3411,0.3411,0.3517,0.3837,0.4476,0.5221,0.3096,0.3107,0.316,0.3198,0.3224,0.3197,0.3185,0.3174,0.3125,0.3115,0.314,0.3141,0.3156,0.3182,0.3185,0.3201,0.3223,0.3221,0.3221,0.3221,0.3223,0.321,0.3185,0.3157,0.3129,0.3106,0.3074,0.3153,0.3152,0.3149,0.3148,0.3148,0.3148,0.3148,0.3148,0.3148,0.3148,0.3148,0.3148,0.3148,0.3149,0.3149,0.315,0.3153,0.3148,0.3065,0.3093,0.3125,0.3153,0.3182,0.3208,0.3224,0.3224,0.3224,0.3223,0.3223,0.3224,0.3224,0.3223,0.3221,0.3221,0.3223,0.3219,0.3225,0.3228,0.323,0.3232,0.3232,0.3257,0.3258,0.3236,0.3239,0.3249,0.327,0.3275,0.3285,0.331,0.3314,0.3318,0.332,0.3325,0.334,0.3363,0.339,0.3403,0.3405,0.341,0.3411,0.3411,0.3411,0.3411,0.3412,0.3412,0.3412,0.3412,0.3419,0.343,0.3445,0.3457,0.3463,0.3474,0.3479,0.3464,0.3446,0.3426,0.3415,0.3412,0.3411,0.3411,0.3411,0.3411,0.3517,0.3624,0.405,0.4689,0.312,0.3159,0.3198,0.3221,0.3228,0.3219,0.3205,0.3186,0.3165,0.3161,0.317,0.3171,0.3189,0.3215,0.3215,0.3221,0.323,0.323,0.323,0.323,0.323,0.3224,0.3212,0.3167,0.3138,0.312,0.3076,0.3148,0.3148,0.3148,0.3148,0.3148,0.3148,0.3148,0.3148,0.3148,0.3148,0.3148,0.3148,0.3156,0.308,0.3081,0.3091,0.3107,0.3071,0.3066,0.3096,0.3127,0.3157,0.3187,0.3215,0.323,0.323,0.323,0.323,0.323,0.323,0.323,0.323,0.323,0.323,0.323,0.323,0.324,0.3254,0.326,0.3266,0.3284,0.3296,0.3298,0.3292,0.3288,0.3292,0.3302,0.3305,0.3309,0.3321,0.3337,0.335,0.3352,0.3366,0.3385,0.339,0.3405,0.3411,0.3411,0.3411,0.3411,0.3411,0.3411,0.3412,0.3415,0.3429,0.3441,0.3441,0.3442,0.345,0.3474,0.3489,0.349,0.3497,0.3479,0.3463,0.3457,0.3435,0.3415,0.3411,0.3411,0.3411,0.3411,0.3411,0.3411,0.3411,0.3837,0.437,0.3142,0.3189,0.3219,0.323,0.323,0.323,0.322,0.3201,0.3193,0.3193,0.3198,0.3193,0.3204,0.3227,0.323,0.323,0.323,0.323,0.323,0.323,0.323,0.323,0.322,0.3171,0.3142,0.3133,0.3081,0.3148,0.3148,0.3148,0.3148,0.3148,0.3158,0.3067,0.3067,0.3076,0.3082,0.3082,0.3082,0.3092,0.311,0.3112,0.3122,0.3133,0.3103,0.3096,0.3126,0.3146,0.3171,0.32,0.322,0.323,0.323,0.323,0.323,0.323,0.323,0.323,0.3232,0.3239,0.3246,0.3246,0.3255,0.3269,0.3288,0.329,0.33,0.3317,0.3332,0.3336,0.3337,0.3344,0.3345,0.3339,0.3336,0.334,0.335,0.3369,0.338,0.3384,0.3396,0.3408,0.3411,0.3411,0.3411,0.3411,0.3411,0.3411,0.3411,0.3412,0.3418,0.3426,0.3444,0.3465,0.348,0.349,0.349,0.3509,0.3516,0.3519,0.3514,0.349,0.3469,0.3464,0.3446,0.3422,0.3411,0.3411,0.3411,0.3411,0.3411,0.3411,0.3517,0.3624,0.416,0.316,0.319,0.3219,0.323,0.323,0.323,0.323,0.3223,0.3202,0.3205,0.322,0.3202,0.3208,0.3225,0.323,0.323,0.323,0.323,0.323,0.323,0.323,0.323,0.3227,0.3174,0.3142,0.3135,0.3082,0.315,0.3152,0.3156,0.3158,0.3158,0.3086,0.3099,0.3099,0.312,0.3137,0.3135,0.3134,0.3138,0.3142,0.3144,0.3146,0.3149,0.3145,0.3156,0.3185,0.3186,0.3197,0.3223,0.3228,0.323,0.323,0.323,0.3231,0.3234,0.3232,0.3232,0.3238,0.3261,0.3276,0.3279,0.33,0.3314,0.332,0.3321,0.3324,0.3335,0.3352,0.3366,0.3371,0.3388,0.3393,0.3373,0.3366,0.3377,0.3399,0.3408,0.3411,0.3408,0.3411,0.3411,0.3411,0.3411,0.3411,0.3411,0.3411,0.3411,0.3412,0.3415,0.3427,0.3446,0.3468,0.349,0.3519,0.3543,0.3543,0.3544,0.3546,0.3547,0.3546,0.3529,0.3497,0.3482,0.344,0.3416,0.3411,0.3411,0.3411,0.3411,0.3411,0.3416,0.3529,0.364,0.3852,0.318,0.3191,0.3219,0.323,0.323,0.323,0.323,0.323,0.322,0.3221,0.3228,0.3221,0.3223,0.3228,0.323,0.323,0.323,0.323,0.323,0.323,0.323,0.323,0.3223,0.3191,0.3152,0.3115,0.3093,0.3084,0.3086,0.3104,0.3115,0.3118,0.3123,0.3129,0.313,0.3138,0.3142,0.3142,0.3142,0.3152,0.3171,0.3174,0.3182,0.3201,0.3202,0.3209,0.3216,0.32,0.3202,0.3228,0.323,0.323,0.3231,0.323,0.324,0.3258,0.3261,0.3272,0.3291,0.33,0.3307,0.3309,0.3317,0.3332,0.335,0.3352,0.3362,0.3378,0.3393,0.3397,0.3399,0.3405,0.3407,0.3399,0.3397,0.3399,0.3408,0.3411,0.3411,0.3411,0.3411,0.3411,0.3411,0.3411,0.3411,0.3411,0.3411,0.3411,0.3415,0.343,0.3444,0.3457,0.3486,0.3516,0.354,0.3559,0.3566,0.3565,0.3566,0.3568,0.3568,0.3553,0.3521,0.3483,0.3442,0.3418,0.3414,0.3415,0.3418,0.3416,0.3418,0.3427,0.344,0.3553,0.3771,0.3189,0.3191,0.3219,0.323,0.323,0.323,0.323,0.323,0.323,0.323,0.323,0.323,0.323,0.323,0.323,0.323,0.323,0.323,0.323,0.323,0.323,0.323,0.3227,0.3201,0.3164,0.3123,0.3114,0.3114,0.3115,0.3133,0.3142,0.3142,0.3153,0.316,0.3161,0.317,0.3175,0.3175,0.3176,0.3185,0.32,0.3204,0.3212,0.3227,0.323,0.323,0.3228,0.3213,0.3212,0.323,0.3239,0.3251,0.3261,0.3265,0.3273,0.3287,0.3294,0.33,0.332,0.333,0.3337,0.3339,0.3348,0.3362,0.338,0.3384,0.3395,0.3407,0.3411,0.3411,0.3411,0.3411,0.3411,0.3411,0.3411,0.3411,0.3411,0.3411,0.3411,0.3411,0.3411,0.3411,0.3411,0.3411,0.3411,0.3411,0.3411,0.3419,0.3427,0.3445,0.346,0.3482,0.3514,0.354,0.3558,0.3573,0.3587,0.3585,0.3584,0.3583,0.3583,0.3554,0.3523,0.3479,0.3437,0.3418,0.3412,0.3427,0.3434,0.3431,0.3434,0.3456,0.3475,0.3475,0.3693,0.319,0.3193,0.3219,0.323,0.323,0.323,0.323,0.323,0.323,0.323,0.323,0.323,0.323,0.323,0.323,0.323,0.323,0.323,0.323,0.323,0.323,0.323,0.3227,0.3201,0.3172,0.3149,0.3145,0.3145,0.3146,0.3153,0.3148,0.3157,0.3175,0.3187,0.3187,0.3213,0.3217,0.3215,0.3221,0.3225,0.3227,0.3228,0.3228,0.323,0.323,0.323,0.323,0.3231,0.3232,0.3238,0.3264,0.3288,0.3313,0.332,0.3315,0.3322,0.3324,0.3328,0.3333,0.3355,0.3369,0.337,0.3389,0.3411,0.3407,0.3405,0.3407,0.3411,0.3411,0.3414,0.3415,0.3418,0.3418,0.3415,0.3415,0.3412,0.3411,0.3411,0.3411,0.3411,0.3411,0.3411,0.3411,0.3411,0.3411,0.3411,0.3412,0.3423,0.3445,0.3464,0.3489,0.3514,0.3542,0.3558,0.3576,0.3579,0.3589,0.3589,0.3589,0.3589,0.3585,0.3557,0.3527,0.3483,0.345,0.343,0.3427,0.3449,0.346,0.346,0.3474,0.3497,0.3505,0.3505,0.351,0.3206,0.3193,0.3219,0.323,0.323,0.323,0.323,0.323,0.3231,0.3232,0.3231,0.323,0.3234,0.3231,0.3232,0.323,0.3234,0.3232,0.323,0.323,0.323,0.323,0.3224,0.3202,0.3185,0.3176,0.3176,0.3176,0.3178,0.3194,0.3204,0.3206,0.319,0.3189,0.3191,0.3195,0.32,0.3202,0.3221,0.323,0.323,0.323,0.323,0.323,0.323,0.3231,0.3234,0.3253,0.3264,0.3266,0.3292,0.3311,0.3324,0.3325,0.3335,0.3351,0.3355,0.3366,0.3384,0.3393,0.3399,0.34,0.3405,0.3411,0.3411,0.3411,0.3411,0.3411,0.3412,0.3422,0.344,0.3445,0.3445,0.3442,0.3427,0.3414,0.3411,0.3411,0.3411,0.3411,0.3411,0.3411,0.3411,0.3411,0.3411,0.3411,0.3416,0.3426,0.3456,0.3483,0.3508,0.3535,0.3559,0.3576,0.3587,0.3588,0.3589,0.3589,0.3589,0.3589,0.3581,0.3562,0.3532,0.3498,0.3483,0.3464,0.3472,0.3489,0.349,0.349,0.3501,0.3517,0.3529,0.3534,0.3547,0.3221,0.3208,0.3224,0.323,0.323,0.323,0.323,0.3234,0.3245,0.325,0.3251,0.3264,0.3268,0.3268,0.3269,0.3269,0.3268,0.3268,0.3262,0.3247,0.3236,0.3231,0.3225,0.3212,0.3206,0.3206,0.3205,0.3205,0.3208,0.3223,0.3224,0.3209,0.3197,0.3182,0.317,0.3183,0.3189,0.3194,0.3215,0.323,0.323,0.323,0.323,0.323,0.3231,0.3234,0.325,0.3279,0.3299,0.3314,0.333,0.3345,0.3358,0.3359,0.3367,0.3385,0.3385,0.3395,0.3407,0.3411,0.3411,0.3411,0.3411,0.3411,0.3411,0.3411,0.3411,0.3411,0.3422,0.3438,0.3454,0.3468,0.3476,0.3472,0.3449,0.3426,0.3414,0.3411,0.3411,0.3411,0.3411,0.3411,0.3411,0.3411,0.3411,0.3415,0.3426,0.3446,0.3474,0.3501,0.3528,0.3555,0.357,0.3583,0.3588,0.3589,0.3589,0.3589,0.3589,0.3589,0.3581,0.3568,0.3546,0.3524,0.3512,0.3505,0.351,0.3516,0.352,0.3523,0.3529,0.354,0.3554,0.3557,0.357,0.323,0.323,0.323,0.323,0.323,0.323,0.3234,0.324,0.3262,0.3276,0.3284,0.3309,0.3311,0.3321,0.3309,0.3318,0.3318,0.3311,0.3295,0.327,0.3246,0.323,0.323,0.322,0.3216,0.3216,0.3223,0.3215,0.3208,0.3215,0.3206,0.3186,0.3178,0.3163,0.3149,0.3165,0.3182,0.3186,0.3213,0.323,0.323,0.323,0.323,0.323,0.323,0.325,0.3277,0.3306,0.3333,0.337,0.3371,0.3382,0.3405,0.341,0.341,0.3408,0.3407,0.3408,0.3411,0.3411,0.3411,0.3411,0.3411,0.3411,0.3411,0.3411,0.3414,0.3422,0.3442,0.3457,0.3478,0.3495,0.3508,0.3505,0.3479,0.345,0.3425,0.3414,0.3411,0.3411,0.3411,0.3411,0.3411,0.3411,0.3411,0.3414,0.3431,0.3459,0.3487,0.3514,0.3546,0.3577,0.3585,0.3587,0.3589,0.3589,0.3589,0.3589,0.3589,0.3589,0.3585,0.3573,0.3559,0.3546,0.3543,0.3535,0.3528,0.3535,0.3544,0.3553,0.3558,0.3572,0.3585,0.3579,0.3584,0.323,0.323,0.323,0.323,0.323,0.3231,0.3245,0.3266,0.3273,0.3292,0.331,0.332,0.3324,0.3324,0.3326,0.3321,0.3325,0.3324,0.3305,0.3275,0.3245,0.3231,0.3225,0.321,0.32,0.3194,0.3172,0.3164,0.3164,0.3168,0.316,0.3153,0.3134,0.3115,0.3114,0.3138,0.3153,0.3161,0.3204,0.323,0.323,0.323,0.323,0.323,0.323,0.326,0.33,0.3317,0.3347,0.3386,0.3401,0.3403,0.341,0.3411,0.3411,0.3411,0.3411,0.3411,0.3411,0.3411,0.3411,0.3411,0.3411,0.3411,0.3411,0.3414,0.3425,0.3441,0.3454,0.348,0.3519,0.3551,0.3553,0.3536,0.351,0.348,0.3452,0.3426,0.3412,0.3411,0.3411,0.3411,0.3411,0.3411,0.3412,0.3416,0.344,0.3469,0.3499,0.3531,0.3558,0.3588,0.3589,0.3589,0.3589,0.3589,0.3589,0.3589,0.3589,0.3589,0.3587,0.3585,0.3573,0.3573,0.3579,0.3568,0.3553,0.3562,0.3572,0.358,0.3583,0.3587,0.3589,0.3589,0.3589,0.323,0.323,0.323,0.323,0.3232,0.3245,0.3261,0.328,0.3307,0.3326,0.3343,0.3355,0.3363,0.3365,0.3363,0.3365,0.3359,0.3347,0.3326,0.3296,0.3266,0.3245,0.3224,0.3204,0.3189,0.3185,0.3174,0.3159,0.3146,0.314,0.3138,0.3123,0.3104,0.3092,0.3086,0.312,0.3142,0.3156,0.32,0.323,0.323,0.323,0.323,0.323,0.3232,0.3258,0.3314,0.3321,0.3354,0.3395,0.3411,0.3411,0.3411,0.3411,0.3411,0.3411,0.3411,0.3411,0.3411,0.3411,0.3411,0.3412,0.3412,0.342,0.3429,0.3433,0.3448,0.3474,0.3494,0.3519,0.3559,0.3576,0.3579,0.3566,0.3539,0.351,0.3479,0.344,0.3411,0.3411,0.3411,0.3411,0.3411,0.3414,0.3426,0.3433,0.3464,0.3494,0.3523,0.3551,0.3568,0.3588,0.3589,0.3589,0.3589,0.3589,0.3589,0.3589,0.3589,0.3589,0.3588,0.3588,0.3588,0.3588,0.3587,0.3588,0.3579,0.3589,0.3589,0.3588,0.3587,0.3589,0.3589,0.3589,0.3589,0.323,0.323,0.323,0.323,0.3235,0.3262,0.3277,0.3292,0.3341,0.3365,0.3377,0.3401,0.3403,0.3408,0.3407,0.341,0.3401,0.3377,0.3344,0.3314,0.3284,0.3251,0.3223,0.32,0.3179,0.3178,0.3164,0.315,0.313,0.3127,0.3108,0.3093,0.3091,0.3077,0.3071,0.3111,0.3142,0.315,0.32,0.323,0.323,0.323,0.323,0.323,0.324,0.3266,0.3311,0.333,0.3355,0.3407,0.3411,0.3411,0.3411,0.3411,0.3411,0.3411,0.3411,0.3411,0.3414,0.3418,0.3422,0.3419,0.3426,0.3438,0.3457,0.3465,0.348,0.3505,0.3531,0.3557,0.3585,0.3589,0.3589,0.3583,0.3562,0.3536,0.3506,0.3459,0.3434,0.3411,0.3411,0.3411,0.3415,0.342,0.3435,0.3456,0.3487,0.3517,0.3544,0.3566,0.358,0.3587,0.3589,0.3589,0.3589,0.3589,0.3589,0.3589,0.3589,0.3589,0.3589,0.3589,0.3589,0.3589,0.3589,0.3589,0.3589,0.3589,0.3589,0.3589,0.3589,0.3589,0.3589,0.3589,0.3589,0.323,0.323,0.323,0.323,0.3235,0.3264,0.3291,0.3317,0.3352,0.3381,0.3403,0.341,0.3411,0.3411,0.3411,0.3411,0.3404,0.3384,0.3352,0.332,0.3288,0.3251,0.3205,0.3193,0.3164,0.3123,0.312,0.3112,0.3084,0.3066,0.3084,0.3067,0.3067,0.3158,0.3081,0.3111,0.3153,0.3167,0.3212,0.3238,0.324,0.3239,0.3239,0.3242,0.3258,0.3287,0.3318,0.3347,0.3375,0.3407,0.3411,0.3411,0.3412,0.3412,0.3415,0.3415,0.3416,0.3418,0.3423,0.3438,0.3448,0.3454,0.3467,0.3483,0.3493,0.3495,0.3509,0.3535,0.3561,0.3584,0.3588,0.3589,0.3589,0.3583,0.3568,0.3544,0.3531,0.3505,0.3464,0.3433,0.3422,0.3419,0.3431,0.3444,0.346,0.348,0.3506,0.3529,0.3553,0.357,0.3585,0.3589,0.3589,0.3589,0.3589,0.3589,0.3589,0.3589,0.3589,0.3589,0.3589,0.3589,0.3589,0.3589,0.3589,0.3589,0.3589,0.3589,0.3589,0.3589,0.3589,0.3589,0.3589,0.3589,0.3589,0.323,0.323,0.323,0.323,0.3238,0.328,0.3307,0.3326,0.3369,0.3399,0.3408,0.3411,0.3411,0.3411,0.3411,0.3411,0.3407,0.3399,0.3363,0.3324,0.3288,0.3245,0.3193,0.3189,0.3163,0.3138,0.3134,0.3118,0.3082,0.3096,0.3095,0.31,0.3099,0.3107,0.3129,0.3168,0.3193,0.3215,0.325,0.3275,0.3276,0.3276,0.3276,0.3281,0.329,0.3314,0.3341,0.3355,0.3381,0.3405,0.3411,0.3411,0.3416,0.3426,0.3435,0.3435,0.3435,0.3444,0.3454,0.3475,0.348,0.3482,0.3497,0.351,0.352,0.3527,0.3538,0.3562,0.3576,0.3589,0.3589,0.3589,0.3589,0.3588,0.3576,0.3561,0.3546,0.3532,0.3501,0.3467,0.3467,0.3468,0.3465,0.3478,0.3487,0.3506,0.3528,0.3546,0.3562,0.3576,0.3589,0.3589,0.3589,0.3589,0.3589,0.3589,0.3589,0.3589,0.3591,0.3591,0.3594,0.3595,0.3592,0.3589,0.3589,0.36,0.3589,0.3589,0.3589,0.3589,0.3592,0.3592,0.3591,0.3589,0.3596,0.323,0.323,0.323,0.323,0.324,0.3295,0.3321,0.3333,0.3385,0.3411,0.3411,0.3411,0.3411,0.3411,0.3411,0.3411,0.3411,0.3405,0.3367,0.3324,0.329,0.3245,0.3202,0.3185,0.3171,0.3146,0.3167,0.3159,0.3119,0.3125,0.3138,0.3138,0.3144,0.3161,0.3185,0.3215,0.3251,0.3276,0.3305,0.332,0.3321,0.3321,0.3321,0.3324,0.3326,0.3341,0.336,0.3374,0.3389,0.3405,0.3411,0.3411,0.3416,0.3441,0.346,0.3465,0.3465,0.348,0.3494,0.3509,0.351,0.351,0.3517,0.3534,0.3546,0.3555,0.3564,0.3584,0.3589,0.3589,0.3589,0.3589,0.3589,0.3589,0.3588,0.3583,0.3566,0.3554,0.3549,0.3527,0.3523,0.3509,0.3498,0.3506,0.3514,0.3525,0.3547,0.3562,0.3577,0.358,0.3589,0.3589,0.3589,0.3589,0.3589,0.3589,0.3589,0.3589,0.3592,0.3594,0.3599,0.3604,0.3604,0.3611,0.3619,0.3626,0.3609,0.3591,0.3589,0.3591,0.3595,0.36,0.3607,0.3618,0.3629,0.323,0.323,0.323,0.323,0.3239,0.3295,0.3321,0.3329,0.3385,0.3411,0.3411,0.3411,0.3411,0.3411,0.3411,0.3411,0.3404,0.3385,0.3358,0.3321,0.3285,0.3242,0.3195,0.3189,0.3174,0.3159,0.3178,0.3168,0.3155,0.3153,0.315,0.3157,0.3182,0.319,0.3217,0.3257,0.327,0.3283,0.331,0.3325,0.3326,0.3326,0.3326,0.3332,0.3347,0.3365,0.3374,0.3389,0.3407,0.3408,0.3411,0.3411,0.3416,0.3441,0.3471,0.3489,0.3498,0.3499,0.3512,0.3528,0.3539,0.3544,0.3558,0.3577,0.3579,0.3579,0.3581,0.3587,0.3589,0.3589,0.3589,0.3589,0.3589,0.3589,0.3589,0.3589,0.358,0.3572,0.3566,0.3568,0.3555,0.3535,0.3519,0.3529,0.3542,0.3553,0.3565,0.3579,0.3587,0.3588,0.3589,0.3589,0.3589,0.3589,0.3589,0.3589,0.3589,0.3589,0.3592,0.3598,0.361,0.3621,0.3641,0.3648,0.3655,0.3647,0.3625,0.3609,0.3595,0.3603,0.3621,0.3628,0.363,0.3644,0.3656,0.323,0.323,0.323,0.323,0.3238,0.3295,0.3321,0.3333,0.3385,0.3411,0.3411,0.3411,0.3411,0.3411,0.3411,0.3411,0.3404,0.3378,0.335,0.3313,0.3273,0.323,0.3198,0.3189,0.3178,0.3183,0.3197,0.3223,0.3212,0.3216,0.3217,0.322,0.3247,0.3277,0.3275,0.3311,0.3336,0.3352,0.3367,0.3373,0.3373,0.3371,0.3371,0.3371,0.3385,0.3389,0.3395,0.3403,0.3411,0.3411,0.3411,0.3411,0.3425,0.3453,0.3491,0.3501,0.3536,0.3551,0.3555,0.3564,0.3566,0.357,0.3581,0.3587,0.3589,0.3589,0.3589,0.3589,0.3589,0.3589,0.3589,0.3589,0.3589,0.3589,0.3589,0.3589,0.3589,0.3589,0.3585,0.3588,0.3588,0.3564,0.3546,0.3555,0.3564,0.3569,0.3576,0.3583,0.3588,0.3589,0.3589,0.3589,0.3589,0.3589,0.3589,0.3589,0.3589,0.3589,0.3592,0.3602,0.3624,0.364,0.3663,0.3673,0.3673,0.366,0.3641,0.3639,0.3637,0.3644,0.3652,0.3656,0.366,0.3664,0.3675,0.2827,0.2827,0.3028,0.323,0.3235,0.3287,0.3314,0.3328,0.3377,0.3404,0.3411,0.3411,0.3411,0.3411,0.3411,0.3407,0.3397,0.3369,0.3339,0.3299,0.326,0.3223,0.3208,0.3201,0.3205,0.321,0.3231,0.3254,0.3279,0.329,0.3292,0.329,0.3309,0.3335,0.3358,0.337,0.3382,0.3397,0.3403,0.3405,0.3407,0.3407,0.3408,0.341,0.3411,0.3411,0.3411,0.3411,0.3411,0.3411,0.3411,0.3411,0.3419,0.3464,0.3495,0.3513,0.3549,0.358,0.3581,0.3584,0.3589,0.3589,0.3589,0.3589,0.3589,0.3589,0.3589,0.3589,0.3589,0.3589,0.3589,0.3589,0.3589,0.3589,0.3589,0.3589,0.3589,0.3589,0.3589,0.3589,0.3589,0.3589,0.3579,0.3583,0.3587,0.3588,0.3589,0.3589,0.3589,0.3589,0.3589,0.3589,0.3589,0.3589,0.3589,0.3589,0.3589,0.3594,0.3596,0.3614,0.3643,0.3666,0.3688,0.3692,0.3696,0.3704,0.3704,0.3692,0.3681,0.3675,0.3674,0.3686,0.3693,0.3694,0.3701,0.1717,0.1818,0.2726,0.3129,0.3131,0.3264,0.3295,0.3115,0.3251,0.3282,0.3196,0.3304,0.3198,0.3303,0.3299,0.3287,0.337,0.3339,0.331,0.328,0.3247,0.323,0.3221,0.3225,0.3238,0.326,0.3265,0.3283,0.3315,0.3337,0.3333,0.3326,0.335,0.336,0.3373,0.3388,0.3395,0.3404,0.3404,0.341,0.3411,0.3411,0.3411,0.3411,0.3411,0.3411,0.3411,0.3411,0.3411,0.3411,0.3411,0.3411,0.3422,0.3471,0.3499,0.3514,0.3557,0.3585,0.3589,0.3589,0.3589,0.3589,0.3589,0.3589,0.3589,0.3589,0.3589,0.3589,0.3589,0.3589,0.3589,0.3589,0.3589,0.3589,0.3589,0.3589,0.3589,0.3589,0.3589,0.3589,0.3589,0.3589,0.3589,0.3589,0.3589,0.3589,0.3589,0.3589,0.3589,0.3589,0.3589,0.3589,0.3589,0.3589,0.3589,0.3591,0.3592,0.3604,0.3613,0.364,0.3673,0.3693,0.3708,0.3731,0.3741,0.3753,0.3756,0.373,0.3708,0.3696,0.3696,0.3715,0.3727,0.3733,0.3742,0.1616,0.1616,0.202,0.2221,0.2223,0.2244,0.2368,0.2284,0.2305,0.2326,0.2345,0.2345,0.2345,0.2448,0.2754,0.285,0.2939,0.3209,0.3187,0.327,0.3247,0.3232,0.323,0.3235,0.3246,0.327,0.3277,0.3305,0.3347,0.336,0.336,0.336,0.3373,0.339,0.3399,0.3384,0.3382,0.3384,0.3386,0.339,0.3411,0.3411,0.3411,0.3411,0.3411,0.3411,0.3411,0.3411,0.3411,0.3411,0.341,0.3411,0.3422,0.3474,0.3499,0.351,0.3561,0.3584,0.3589,0.3589,0.3589,0.3589,0.3589,0.3589,0.3589,0.3589,0.3589,0.3589,0.3589,0.3589,0.3589,0.3589,0.3589,0.3589,0.3589,0.3589,0.3589,0.3589,0.3589,0.3589,0.3589,0.3589,0.3589,0.3589,0.3589,0.3589,0.3589,0.3589,0.3589,0.3589,0.3589,0.3589,0.3589,0.3589,0.3589,0.3592,0.3598,0.3613,0.3629,0.3662,0.3694,0.3708,0.3726,0.3754,0.3772,0.3768,0.3761,0.375,0.3738,0.373,0.3735,0.375,0.376,0.3764,0.3767,0.1108,0.1111,0.1108,0.131,0.1618,0.1628,0.1643,0.166,0.1775,0.1687,0.1705,0.1705,0.1702,0.1803,0.2111,0.2303,0.2394,0.2575,0.2867,0.2952,0.2938,0.3029,0.313,0.3235,0.3246,0.327,0.329,0.3317,0.3345,0.336,0.3356,0.3358,0.3373,0.3377,0.3374,0.3366,0.3354,0.3352,0.3355,0.336,0.3382,0.3382,0.3381,0.338,0.3378,0.3378,0.3377,0.3377,0.3385,0.339,0.3397,0.3408,0.3435,0.3468,0.3501,0.3528,0.3555,0.3588,0.3589,0.3589,0.3589,0.3589,0.3589,0.3589,0.3589,0.3589,0.3589,0.3589,0.3589,0.3589,0.3589,0.3589,0.3589,0.3589,0.3589,0.3589,0.3589,0.3589,0.3589,0.3589,0.3589,0.3589,0.3589,0.3589,0.3589,0.3589,0.3589,0.3589,0.3589,0.3589,0.3589,0.3589,0.3589,0.3589,0.3589,0.3603,0.3617,0.3632,0.3651,0.3682,0.3709,0.3724,0.3739,0.3761,0.3772,0.3772,0.3767,0.376,0.3763,0.3767,0.3768,0.3765,0.3767,0.3768,0.3769,0.0,0.0,0.0,0.0701,0.1414,0.1616,0.1531,0.1556,0.1561,0.1575,0.1491,0.1598,0.159,0.1581,0.1575,0.1665,0.1751,0.1844,0.2039,0.2329,0.2529,0.2726,0.3029,0.3133,0.3246,0.3276,0.3294,0.331,0.3326,0.3347,0.3345,0.3326,0.3324,0.3326,0.3322,0.3324,0.3322,0.3322,0.3322,0.3326,0.3333,0.3337,0.3337,0.3339,0.3339,0.3341,0.3341,0.3348,0.3362,0.3382,0.339,0.3412,0.3456,0.3487,0.3516,0.354,0.357,0.3588,0.3589,0.3589,0.3589,0.3589,0.3589,0.3589,0.3589,0.3589,0.3589,0.3589,0.3589,0.3589,0.3589,0.3589,0.3589,0.3589,0.3589,0.3589,0.3589,0.3589,0.3589,0.3589,0.3589,0.3589,0.3589,0.3589,0.3589,0.3589,0.3589,0.3589,0.3589,0.3589,0.3589,0.3589,0.3589,0.3598,0.3603,0.3621,0.3636,0.3651,0.3673,0.3704,0.3729,0.3746,0.376,0.3771,0.3772,0.3772,0.3772,0.3771,0.3772,0.3772,0.3772,0.3771,0.3772,0.3772,0.3772,0.0,0.0,0.0,0.02,0.0505,0.0505,0.0,0.0519,0.063,0.0,0.0532,0.053,0.0528,0.063,0.0935,0.1134,0.1127,0.1524,0.1821,0.1819,0.2121,0.2424,0.2727,0.3032,0.3145,0.327,0.329,0.3305,0.3322,0.3333,0.3317,0.3296,0.3279,0.3273,0.3285,0.3291,0.3291,0.3291,0.3292,0.3299,0.3317,0.3318,0.3318,0.3318,0.332,0.3322,0.3326,0.3339,0.3366,0.3395,0.3407,0.3442,0.3482,0.3514,0.3534,0.355,0.3573,0.3589,0.3589,0.3589,0.3589,0.3589,0.3589,0.3589,0.3589,0.3589,0.3589,0.3589,0.3589,0.3589,0.3589,0.3589,0.3589,0.3589,0.3589,0.3589,0.3589,0.3589,0.3589,0.3589,0.3589,0.3589,0.3589,0.3589,0.3589,0.3589,0.3589,0.3589,0.3589,0.3589,0.3589,0.3589,0.3592,0.3604,0.3617,0.3639,0.3666,0.3686,0.3704,0.3726,0.3748,0.3764,0.3768,0.3772,0.3772,0.3772,0.3772,0.3772,0.3772,0.3772,0.3772,0.3772,0.3772,0.3772,0.3772,0.0,0.0,0.0,0.0,0.0,0.0,0.0,0.0,0.0,0.0,0.0,0.0,0.0,0.0,0.031,0.051,0.0612,0.0811,0.1212,0.1313,0.1616,0.1919,0.2222,0.2626,0.2836,0.3056,0.3272,0.3284,0.3284,0.3299,0.3287,0.3262,0.3242,0.3247,0.3257,0.326,0.326,0.326,0.3261,0.3266,0.328,0.3287,0.3292,0.3303,0.3314,0.3326,0.3341,0.3366,0.3396,0.3425,0.3449,0.3478,0.351,0.3532,0.355,0.3564,0.3576,0.3589,0.3589,0.3589,0.3589,0.3589,0.3589,0.3589,0.3589,0.3589,0.3589,0.3589,0.3589,0.3589,0.3589,0.3589,0.3589,0.3589,0.3589,0.3589,0.3589,0.3589,0.3589,0.3589,0.3589,0.3589,0.3589,0.3589,0.3589,0.3589,0.3589,0.3591,0.3591,0.3589,0.3592,0.3595,0.3602,0.3618,0.3637,0.3663,0.369,0.372,0.3735,0.3748,0.3756,0.3769,0.3771,0.3772,0.3772,0.3772,0.3772,0.3772,0.389,0.3772,0.3772,0.3772,0.3772,0.389,0.3889,0.0,0.0,0.0,0.0,0.0,0.0,0.0,0.0,0.0,0.0,0.0,0.0,0.0,0.0,0.0,0.0,0.0,0.0,0.0404,0.0707,0.101,0.1212,0.1616,0.2121,0.2427,0.2636,0.2847,0.3155,0.3138,0.3261,0.3258,0.3243,0.324,0.3243,0.3246,0.3253,0.3251,0.3253,0.325,0.3258,0.327,0.3264,0.3285,0.3305,0.3325,0.3348,0.337,0.3397,0.3427,0.3449,0.3465,0.3499,0.3527,0.3546,0.3565,0.358,0.3589,0.3589,0.3589,0.3589,0.3589,0.3589,0.3589,0.3589,0.3589,0.3589,0.3589,0.3589,0.3589,0.3589,0.3589,0.3589,0.3589,0.3589,0.3589,0.3589,0.3589,0.3589,0.3589,0.3589,0.3589,0.3589,0.3589,0.3589,0.3589,0.3589,0.3591,0.3598,0.3598,0.3591,0.3595,0.3606,0.3615,0.3634,0.3658,0.3686,0.3709,0.3739,0.3752,0.3764,0.3771,0.3772,0.3772,0.3772,0.3772,0.3772,0.3772,0.389,0.389,0.389,0.4006,0.4006,0.4124,0.4124,0.4124,0.0,0.0,0.0,0.0,0.0,0.0,0.0,0.0,0.0,0.0,0.0,0.0,0.0,0.0,0.0,0.0,0.0,0.0,0.0,0.0303,0.0606,0.0808,0.1111,0.1515,0.202,0.2325,0.2633,0.2939,0.3135,0.3245,0.3246,0.3234,0.3254,0.326,0.3269,0.3284,0.3277,0.3272,0.3269,0.3276,0.3295,0.3309,0.3325,0.3344,0.337,0.3393,0.341,0.3435,0.3464,0.3486,0.3509,0.354,0.357,0.3577,0.3585,0.3587,0.3589,0.3589,0.3589,0.3589,0.3589,0.3589,0.3589,0.3589,0.3589,0.3589,0.3589,0.3589,0.3589,0.3589,0.3589,0.3589,0.3589,0.3589,0.3589,0.3589,0.3589,0.3589,0.3589,0.3589,0.3589,0.3589,0.3589,0.3589,0.3589,0.3589,0.3594,0.3603,0.3607,0.3602,0.3609,0.3621,0.3639,0.3659,0.3686,0.3715,0.3735,0.3754,0.3765,0.3772,0.3772,0.3772,0.3772,0.3772,0.3772,0.3772,0.3772,0.389,0.4006,0.4358,0.4476,0.4476,0.4476,0.4594,0.4829,0.0,0.0,0.0,0.0,0.0,0.0,0.0,0.0,0.0,0.0,0.0,0.0,0.0,0.0,0.0,0.0,0.0,0.0,0.0,0.0101,0.0,0.0404,0.0606,0.101,0.1515,0.1919,0.2323,0.2729,0.3033,0.3246,0.325,0.3253,0.3279,0.329,0.3302,0.332,0.3336,0.3329,0.3324,0.3325,0.3345,0.3371,0.3386,0.3407,0.3431,0.3448,0.3464,0.349,0.3516,0.3535,0.3557,0.3568,0.3588,0.3589,0.3589,0.3589,0.3589,0.3589,0.3589,0.3589,0.3589,0.3589,0.3588,0.3589,0.3589,0.3589,0.3589,0.3589,0.3589,0.3589,0.3589,0.3589,0.3589,0.3589,0.3589,0.3589,0.3589,0.3589,0.3589,0.3589,0.3589,0.3589,0.3589,0.3589,0.3591,0.3594,0.3603,0.3618,0.3622,0.3619,0.3633,0.3649,0.3669,0.3689,0.3715,0.3737,0.375,0.3763,0.3767,0.3772,0.3772,0.3772,0.3772,0.3772,0.3772,0.389,0.3889,0.4124,0.436,0.4711,0.5298,0.5651,0.5768,0.577,0.6006,0.0,0.0,0.0,0.0,0.0,0.0,0.0,0.0,0.0,0.0,0.0,0.0,0.0,0.0,0.0,0.0,0.0,0.0,0.0,0.0,0.0,0.0,0.0,0.0505,0.101,0.1515,0.2021,0.2529,0.3042,0.3261,0.328,0.3281,0.3309,0.3326,0.334,0.3366,0.3389,0.3407,0.34,0.3397,0.3395,0.3411,0.3435,0.3463,0.3493,0.3519,0.3543,0.3568,0.3589,0.3589,0.3588,0.3588,0.3588,0.3589,0.3589,0.3583,0.3579,0.3573,0.357,0.3568,0.3572,0.3576,0.3584,0.358,0.3577,0.3587,0.3589,0.3589,0.3589,0.3589,0.3589,0.3589,0.3589,0.3589,0.3589,0.3589,0.3589,0.3589,0.3589,0.3589,0.3589,0.3589,0.3589,0.3589,0.3599,0.36,0.3611,0.3629,0.3649,0.3648,0.366,0.3681,0.3693,0.3711,0.3733,0.375,0.3763,0.3771,0.3772,0.3772,0.3772,0.3772,0.3772,0.389,0.3889,0.4006,0.4124,0.4477,0.4947,0.5533,0.6121,0.6826,0.7061,0.7179,0.7297,0.0,0.0,0.0,0.0,0.0,0.0,0.0,0.0,0.0,0.0,0.0,0.0,0.0,0.0,0.0,0.0,0.0,0.0,0.0,0.0,0.0,0.0,0.0,0.0,0.0,0.101,0.1618,0.2437,0.3064,0.3292,0.3311,0.3314,0.3343,0.3367,0.3388,0.3416,0.3449,0.3472,0.3484,0.3476,0.3471,0.3493,0.352,0.3531,0.355,0.3562,0.3579,0.3583,0.3589,0.3589,0.3589,0.3589,0.3589,0.3589,0.3577,0.3562,0.3557,0.3547,0.3538,0.3534,0.3535,0.3538,0.3542,0.3551,0.3561,0.3579,0.3588,0.3588,0.3589,0.3589,0.3589,0.3589,0.3589,0.3589,0.3589,0.3589,0.3589,0.3589,0.3589,0.3589,0.3589,0.3589,0.3589,0.3595,0.3604,0.3614,0.3624,0.3645,0.3686,0.37,0.37,0.3714,0.3714,0.373,0.375,0.376,0.3768,0.3772,0.3772,0.3772,0.3772,0.3772,0.3772,0.4006,0.4124,0.4242,0.4595,0.5184,0.5653,0.6356,0.7179,0.8001,0.8823,0.9058,0.9061,0.0,0.0,0.0,0.0,0.0,0.0,0.0,0.0,0.0,0.0,0.0,0.0,0.0,0.0,0.0,0.0,0.0,0.0,0.0,0.0,0.0,0.0,0.0,0.0,0.0,0.0812,0.1633,0.2463,0.3093,0.3324,0.3343,0.335,0.338,0.3414,0.3438,0.3471,0.3501,0.3521,0.355,0.3551,0.3538,0.3554,0.3564,0.3573,0.3579,0.3589,0.3589,0.3589,0.3589,0.3589,0.3589,0.3589,0.3585,0.3574,0.3562,0.3547,0.3535,0.3519,0.3506,0.3499,0.3498,0.3505,0.3512,0.3525,0.3547,0.3565,0.3577,0.358,0.3588,0.3589,0.3589,0.3589,0.3589,0.3589,0.3589,0.3589,0.3589,0.3589,0.3589,0.3589,0.3589,0.3589,0.3589,0.3589,0.3603,0.3628,0.3639,0.3666,0.3705,0.3737,0.3741,0.3742,0.3741,0.3745,0.3761,0.3767,0.3769,0.3772,0.3772,0.3772,0.3772,0.3772,0.389,0.4124,0.4594,0.4947,0.53,0.6006,0.6711,0.7534,0.8354,0.9175,1.0,1.0704,1.0938,0.0,0.0,0.0,0.0,0.0,0.0,0.0,0.0,0.0,0.0,0.0,0.0,0.0,0.0,0.0,0.0,0.0,0.0,0.0,0.0,0.0,0.0,0.0,0.0,0.0,0.0924,0.1757,0.2384,0.312,0.325,0.3377,0.3388,0.342,0.3461,0.3482,0.351,0.3542,0.3553,0.357,0.3584,0.3588,0.3589,0.3587,0.3588,0.3589,0.3589,0.3589,0.3589,0.3589,0.3589,0.3588,0.3583,0.3574,0.3559,0.3539,0.3524,0.3505,0.3493,0.3483,0.3479,0.3482,0.3487,0.3494,0.3509,0.3529,0.355,0.3562,0.3577,0.3587,0.3589,0.3589,0.3589,0.3589,0.3589,0.3589,0.3589,0.3589,0.3589,0.3589,0.3589,0.3589,0.3589,0.3589,0.3589,0.3606,0.3633,0.366,0.3692,0.372,0.3742,0.3757,0.3759,0.3759,0.3765,0.3772,0.3772,0.3772,0.3772,0.3772,0.3772,0.389,0.4006,0.4242,0.4594,0.4947,0.5768,0.6474,0.7182,0.7887,0.8709,0.9413,1.0348,1.1286,1.1993,1.2695,0.0,0.0,0.0,0.0,0.0,0.0,0.0,0.0,0.0,0.0,0.0,0.0,0.0,0.0,0.0,0.0,0.0,0.0,0.0,0.0,0.0,0.0,0.0,0.0,0.0,0.0932,0.1566,0.2096,0.2837,0.3176,0.3415,0.3435,0.3442,0.3482,0.3525,0.3549,0.3558,0.3572,0.358,0.3589,0.3589,0.3589,0.3589,0.3589,0.3589,0.3589,0.3589,0.3589,0.3589,0.3589,0.3588,0.3577,0.3561,0.3544,0.3521,0.3491,0.3474,0.3459,0.345,0.3445,0.3445,0.3445,0.3456,0.3484,0.351,0.3538,0.3557,0.3583,0.3589,0.3589,0.3589,0.3589,0.3589,0.3589,0.3589,0.3589,0.3589,0.3589,0.3589,0.3589,0.3589,0.3589,0.3589,0.3594,0.3604,0.363,0.3656,0.3686,0.3722,0.3746,0.3769,0.3771,0.3771,0.3772,0.3772,0.3772,0.3772,0.3772,0.389,0.3889,0.4006,0.4358,0.4711,0.53,0.6121,0.6944,0.7649,0.8471,0.941,1.0235,1.0583,1.1407,1.2461,1.328,1.3981]}]]